GFSGBSN_con_sbcape_000.txt.gz
CAPE
13 13 1 0 1 2 2 4 0 1 0 0 12 26 30 35 31 82 206 180 157 159 112 106 95 111 58 22 0 0 0 0 0 107 95 12 0 0 0 0 0 0 0 0 0 0 0
6 18 15 0 0 0 4 2 1 0 1 19 54 81 58 45 41 47 146 195 263 235 174 152 126 177 53 7 0 0 0 0 0 68 112 16 0 0 0 0 0 0 0 0 0 0 0
18 17 20 0 0 0 0 2 1 13 20 26 47 58 65 53 35 75 171 207 268 298 241 195 188 95 56 0 0 0 0 3 7 51 71 5 0 0 0 0 0 0 0 0 0 0 0
23 17 25 2 0 0 0 1 1 16 43 58 52 58 59 32 46 94 168 318 319 302 272 259 246 75 20 0 0 0 0 0 11 41 108 41 22 0 0 0 0 0 0 0 0 0 0
23 11 14 11 0 1 2 1 0 3 44 55 58 52 43 1 0 43 102 156 269 344 353 329 126 32 0 92 0 0 0 0 12 18 105 57 5 0 0 0 0 0 0 0 0 0 0
13 10 13 27 14 0 1 0 0 0 11 32 47 63 80 48 13 56 130 158 185 295 231 180 79 57 1 4 0 0 0 0 52 20 107 82 21 0 0 0 0 0 0 0 0 0 0
26 14 7 16 30 1 2 0 0 0 0 18 35 41 37 74 71 86 62 82 21 15 92 17 3 20 6 3 23 13 29 6 76 68 50 51 8 0 0 0 0 0 0 0 0 0 0
39 23 7 4 25 3 0 1 0 2 20 33 39 23 11 53 50 79 59 77 11 0 20 0 0 4 149 35 9 34 89 75 59 25 48 47 16 0 0 0 0 0 0 0 0 0 0
31 35 8 2 5 5 0 0 1 2 5 27 38 22 23 24 21 66 50 53 13 6 7 88 77 0 113 76 101 76 82 43 7 33 45 6 11 0 0 0 0 0 0 0 0 0 0
24 39 4 2 0 5 0 0 0 0 5 37 39 32 15 7 3 41 56 6 31 24 84 7 60 70 93 127 90 32 6 10 59 22 44 18 0 0 0 0 0 0 0 0 0 0 0
21 27 28 1 2 1 1 0 0 0 0 11 34 26 7 8 38 31 32 41 62 13 33 0 44 61 75 67 12 1 0 2 21 21 0 1 0 0 0 0 0 0 0 0 0 0 0
22 25 31 8 1 2 0 1 0 0 0 0 16 13 6 9 24 60 21 36 39 13 2 16 39 81 3 39 0 0 1 0 9 0 0 0 0 0 0 0 0 0 0 0 0 0 0
32 25 32 24 2 1 1 0 0 0 0 0 8 13 8 6 9 12 13 53 14 30 5 41 24 20 16 3 1 8 1 1 0 0 0 0 0 0 0 0 0 0 0 0 0 0 0
52 31 29 25 7 2 2 0 0 0 0 0 2 13 5 0 0 0 16 39 26 7 12 2 23 10 8 3 0 0 0 0 0 0 0 0 0 0 0 0 0 0 0 0 0 0 0
39 51 27 22 30 2 0 0 0 0 0 0 2 0 0 0 1 1 15 14 26 26 1 7 8 6 16 15 3 0 0 0 0 0 0 0 0 0 0 0 0 0 0 0 0 0 0
27 55 40 25 30 2 0 0 0 0 0 0 0 0 0 0 0 5 16 22 27 25 0 12 10 7 20 0 0 0 0 0 4 0 0 0 0 0 0 0 0 0 0 0 0 0 0
19 31 51 23 23 1 0 0 0 0 0 0 0 0 0 0 0 8 11 23 39 3 14 45 29 7 0 0 0 0 9 8 0 8 0 0 0 0 0 0 0 0 0 0 0 0 0
21 18 42 31 11 0 0 2 0 0 0 0 0 0 0 0 0 0 2 20 31 24 5 2 0 0 0 33 4 1 0 0 0 0 0 0 0 0 0 0 0 0 0 0 0 0 0
21 17 23 29 8 0 0 1 0 0 1 0 0 0 0 0 0 0 0 0 0 2 0 31 37 19 19 8 8 0 0 0 0 0 0 0 0 0 0 0 0 0 0 0 0 0 0
18 18 16 20 10 2 2 0 0 0 0 0 0 0 0 0 0 0 0 0 0 0 0 0 0 0 0 0 0 0 0 0 0 0 0 0 0 0 0 0 0 0 0 0 0 0 0
13 15 13 17 18 7 4 0 0 0 0 0 0 0 0 0 0 0 0 0 0 0 0 0 0 0 0 0 0 0 0 0 0 0 0 0 0 0 0 0 0 0 0 0 0 0 0
10 11 17 15 11 12 0 0 0 0 0 0 0 0 0 0 0 0 0 0 0 0 0 0 0 0 0 0 0 0 0 0 0 0 0 0 0 0 0 0 0 0 0 0 0 0 0
17 9 14 8 10 12 3 0 0 0 0 0 0 0 0 0 0 0 0 0 0 0 0 0 0 0 0 0 0 0 0 0 0 0 0 0 0 0 0 0 0 0 0 0 0 0 0
11 9 11 8 9 8 2 1 0 0 0 0 0 0 0 0 0 0 0 0 0 0 0 0 0 0 0 0 0 0 0 0 0 0 0 0 0 0 0 0 0 0 0 0 0 0 0
5 9 11 11 11 8 0 0 1 0 0 0 0 0 0 0 0 0 0 0 0 0 0 0 0 0 0 0 0 0 0 0 0 0 0 0 0 0 0 0 0 0 0 0 0 0 0
5 10 9 9 11 3 0 0 0 0 0 0 0 0 0 0 0 0 0 0 0 0 0 0 0 0 0 0 0 0 0 0 0 0 0 0 0 0 0 0 0 0 0 0 0 0 0
7 11 8 9 5 1 0 0 0 0 0 0 0 0 0 0 0 0 0 0 0 0 0 0 0 0 0 0 0 0 0 0 0 0 0 0 0 0 0 0 0 0 0 0 0 0 0
3 11 5 5 2 1 0 0 0 0 0 0 0 0 0 0 0 0 0 0 0 0 0 0 0 0 0 0 0 0 0 0 0 0 0 0 0 0 0 0 0 0 0 0 0 0 0
6 7 6 2 3 2 3 0 0 1 0 0 0 0 0 0 0 0 0 0 0 0 0 0 0 0 0 0 0 0 0 0 0 0 0 0 0 0 0 0 0 0 0 0 0 0 0

GFSGBSN_con_sbcape_003.txt.gz
CAPE
18 28 16 0 0 0 7 16 4 1 3 4 5 16 2 0 0 12 70 143 292 305 242 200 164 147 63 31 0 0 0 0 0 0 3 69 0 0 0 0 0 0 0 0 0 0 0
34 30 30 16 4 0 3 14 9 4 15 22 17 27 37 21 15 28 38 123 329 390 334 259 226 226 52 4 0 0 0 0 0 0 45 66 0 0 0 0 0 0 0 0 0 0 0
25 35 33 33 1 0 1 5 22 8 28 43 31 30 40 20 49 53 51 103 273 380 368 272 256 84 52 1 0 0 0 0 0 0 78 50 0 0 0 0 0 0 0 0 0 0 0
15 25 24 28 7 1 1 3 21 20 27 60 41 42 37 27 39 49 83 113 233 437 435 353 333 85 20 0 0 0 0 1 0 0 55 70 0 0 1 0 0 0 0 0 0 0 0
15 11 23 29 27 4 4 2 16 20 10 45 42 38 71 84 44 31 46 103 192 329 420 381 130 76 27 0 0 0 0 1 0 0 5 50 21 1 13 3 0 0 0 0 0 0 0
38 13 12 33 30 33 19 1 0 13 28 18 0 35 59 66 84 68 54 92 107 136 190 105 111 88 23 0 0 0 0 0 26 0 55 112 27 10 0 0 7 0 0 0 0 0 0
34 44 15 33 23 31 17 1 0 13 3 32 40 33 32 35 74 109 68 30 17 46 43 15 50 20 0 1 0 0 0 0 34 36 29 28 15 22 0 0 0 0 0 0 0 0 0
30 39 28 26 23 17 16 0 0 2 7 28 37 28 22 41 58 52 5 11 5 4 39 35 1 8 4 68 75 5 1 5 37 13 21 70 21 0 0 0 0 0 0 0 0 0 0
28 32 34 13 15 11 9 0 0 0 3 40 52 29 28 57 36 51 3 4 57 44 40 19 1 26 11 66 42 51 13 40 1 26 47 10 0 1 0 0 0 0 0 0 0 0 0
27 29 34 28 4 7 5 4 1 0 3 35 50 29 24 29 11 45 24 37 55 69 2 5 42 56 8 38 64 93 42 49 14 1 33 25 0 4 0 0 0 0 0 0 0 0 0
31 28 34 34 24 6 5 1 5 0 1 14 43 34 15 11 34 9 11 10 46 70 0 3 81 133 100 40 35 61 21 111 0 0 43 0 0 11 25 0 0 0 0 0 0 0 0
46 31 41 36 35 25 8 5 2 0 0 0 13 26 16 16 30 35 39 48 37 28 22 23 78 32 77 55 48 52 42 1 0 12 0 0 1 16 0 0 0 0 0 0 0 0 0
53 52 53 54 34 33 24 8 1 2 0 0 1 8 16 18 25 54 62 75 29 23 1 34 5 27 27 64 37 42 47 44 4 43 21 0 0 0 0 0 0 0 0 0 0 0 0
53 52 53 60 30 34 32 14 1 0 0 0 0 14 10 4 17 30 69 43 14 5 10 18 34 15 1 52 18 55 16 18 7 0 0 0 0 0 0 0 0 0 0 0 0 0 0
40 35 30 40 46 30 26 9 6 1 0 0 9 0 4 4 24 9 38 5 14 6 24 9 11 11 25 33 13 6 2 0 0 0 0 0 0 0 0 0 0 0 0 0 0 0 0
35 28 16 37 52 21 16 7 10 5 0 2 1 0 0 0 12 14 34 17 16 0 4 0 4 11 16 8 2 13 3 0 0 0 0 0 0 0 0 0 0 0 0 0 0 0 0
26 23 17 28 48 13 5 5 9 11 1 0 0 0 2 6 17 14 26 11 1 2 18 26 3 8 0 0 0 1 0 0 0 0 0 0 0 0 0 0 0 0 0 0 0 0 0
26 26 19 25 34 7 5 3 7 8 0 0 0 0 2 0 1 0 6 33 0 0 15 35 1 0 0 0 0 0 0 0 0 0 1 0 0 0 0 0 0 0 0 0 0 0 0
25 23 18 22 26 5 4 4 4 6 1 0 0 1 2 0 0 0 10 17 27 38 24 25 0 0 1 0 0 0 0 0 0 0 0 0 0 0 0 0 0 0 0 0 0 0 0
18 20 19 23 21 4 8 4 2 3 4 0 0 0 0 1 0 0 0 10 2 0 0 0 4 1 14 1 0 0 0 0 0 0 0 0 0 0 0 0 0 0 0 0 0 0 0
16 19 20 10 21 9 9 1 1 2 0 0 0 0 0 0 0 0 0 0 0 0 0 0 8 6 1 0 0 0 0 0 0 0 0 0 0 0 0 0 0 0 0 0 0 0 0
14 17 18 17 25 6 7 2 0 0 0 0 0 0 0 0 0 0 0 0 0 0 0 0 0 0 0 0 0 0 0 0 0 0 0 0 0 0 0 0 0 0 0 0 0 0 0
18 18 15 12 10 6 8 3 0 0 0 0 0 0 0 0 0 0 0 0 0 0 0 0 0 0 0 0 0 0 0 0 0 0 0 0 0 0 0 0 0 0 0 0 0 0 0
14 14 9 11 10 8 7 3 1 0 0 0 0 0 0 0 0 0 0 0 0 0 0 0 0 0 0 0 0 0 0 0 0 0 0 0 0 0 0 0 0 0 0 0 0 0 0
14 12 8 10 11 14 7 2 1 0 0 0 0 0 0 0 0 0 0 0 0 0 0 0 0 0 0 0 0 0 0 0 0 0 0 0 0 0 0 0 0 0 0 0 0 0 0
14 9 12 12 10 14 4 0 1 1 0 0 0 0 0 0 0 0 0 0 0 0 0 0 0 0 0 0 0 0 0 0 0 0 0 0 0 0 0 0 0 0 0 0 0 0 0
8 9 14 13 14 11 5 0 0 0 0 0 0 0 0 0 0 0 0 0 0 0 0 0 0 0 0 0 0 0 0 0 0 0 0 0 0 0 0 0 0 0 0 0 0 0 0
3 9 15 15 12 9 6 0 0 0 0 0 0 0 0 0 0 0 0 0 0 0 0 0 0 0 0 0 0 0 0 0 0 0 0 0 0 0 0 0 0 0 0 0 0 0 0
1 6 16 12 12 6 6 3 0 0 0 0 0 0 0 0 0 0 0 0 0 0 0 0 0 0 0 0 0 0 0 0 0 0 0 0 0 0 0 0 0 0 0 0 0 0 0

GFSGBSN_con_sbcape_006.txt.gz
CAPE
37 34 23 32 19 7 6 11 9 10 8 8 4 23 19 7 7 2 0 18 31 82 99 151 203 231 64 25 0 0 0 0 0 0 4 25 0 0 0 0 0 0 0 0 0 0 0
27 21 37 29 26 23 9 7 8 15 8 23 37 31 13 17 19 4 6 0 9 66 89 270 384 334 36 14 0 0 0 0 0 0 4 29 7 0 0 0 0 0 0 0 0 0 0
28 10 28 20 20 19 7 2 6 7 9 16 48 38 31 13 6 24 28 14 6 73 138 268 427 141 31 0 0 0 0 0 0 1 0 12 43 0 0 0 0 0 0 0 0 0 0
27 15 11 9 11 23 10 3 5 6 18 20 52 53 33 29 16 19 16 40 32 103 127 317 398 28 2 0 0 0 0 0 0 0 0 77 138 2 3 0 0 0 0 0 0 0 0
44 32 10 6 7 25 31 24 5 8 5 14 23 16 27 53 57 65 34 45 79 79 131 274 116 21 22 0 0 0 0 0 4 0 8 82 7 16 10 0 0 0 0 0 0 0 0
38 40 40 19 14 23 24 33 9 8 1 5 41 31 14 20 40 60 67 24 62 45 57 49 81 11 0 0 0 0 0 0 12 2 15 140 56 22 14 10 9 0 0 0 0 0 0
37 35 37 36 18 24 1 23 12 4 6 4 45 61 22 18 15 73 62 32 5 18 20 1 0 1 0 0 0 0 0 0 9 2 39 89 74 27 0 0 0 0 0 0 0 0 0
34 35 39 35 20 23 4 8 10 1 8 6 62 81 36 14 38 72 9 0 0 3 5 0 28 0 27 34 77 7 4 11 33 0 31 144 25 1 0 0 3 0 0 0 0 0 0
34 36 35 33 33 18 3 4 12 1 2 7 58 46 42 32 63 49 1 0 61 35 38 0 0 37 18 38 45 10 10 22 26 0 6 24 11 4 0 0 0 0 0 0 0 0 0
43 40 38 38 36 30 17 5 5 7 5 33 26 17 16 58 33 31 2 7 45 39 15 10 14 3 35 22 30 30 5 27 19 0 2 43 1 6 3 0 0 3 0 0 0 0 0
62 39 49 46 35 41 33 21 8 4 11 30 43 26 45 62 54 39 41 2 39 62 0 0 14 7 34 6 23 61 1 3 2 0 35 36 7 26 6 1 0 0 0 0 0 0 0
74 54 60 68 65 56 39 32 9 13 10 5 25 32 53 41 58 35 10 30 26 23 0 2 44 7 13 1 60 71 71 67 16 0 29 0 0 15 5 0 0 0 0 0 0 0 0
92 61 59 66 65 61 51 39 13 22 6 6 0 17 37 63 44 72 27 11 7 24 1 26 21 17 28 15 65 40 9 12 18 37 39 0 2 0 0 0 0 0 0 0 0 0 0
83 68 46 36 53 68 45 37 19 26 10 5 2 15 25 25 30 36 32 3 23 9 2 27 33 1 10 32 48 38 14 31 9 0 3 2 16 0 0 0 0 0 0 0 0 0 0
67 59 44 40 27 69 50 22 14 25 12 7 12 0 10 17 36 21 11 8 10 3 3 36 29 0 11 30 24 52 29 14 10 1 0 0 0 0 0 0 0 0 0 0 0 0 0
66 52 35 29 24 58 56 14 7 21 10 12 1 0 0 6 40 33 16 8 15 2 0 7 2 10 90 33 15 5 10 24 5 0 0 0 0 0 0 0 0 0 0 0 0 0 0
64 43 30 27 31 46 40 11 2 19 9 3 0 0 4 5 46 48 17 3 9 0 0 9 14 2 6 1 14 2 1 0 0 0 0 0 0 0 0 0 0 0 0 0 0 0 0
63 39 26 31 26 32 36 13 5 16 2 0 0 0 14 12 33 57 22 50 1 4 30 19 12 4 1 3 3 3 1 0 0 0 0 0 0 0 0 0 0 0 0 0 0 0 0
62 37 25 26 15 16 31 19 8 13 0 0 0 6 7 10 7 8 21 13 17 6 21 29 0 0 0 3 3 1 0 0 0 0 0 0 0 0 0 0 0 0 0 0 0 0 0
60 31 26 19 15 11 16 15 5 9 4 0 0 0 8 11 1 0 6 10 31 10 3 0 0 0 0 13 0 0 0 0 0 0 0 0 0 0 0 0 0 0 0 0 0 0 0
61 34 25 18 27 15 14 11 4 6 7 0 0 0 0 0 0 0 0 4 10 2 0 0 25 0 2 0 0 0 0 0 0 0 0 0 0 0 0 0 0 0 0 0 0 0 0
51 36 21 16 28 27 15 9 5 4 0 0 0 0 0 0 0 0 0 0 0 0 0 1 3 0 0 0 0 0 0 0 0 0 0 0 0 0 0 0 0 0 0 0 0 0 0
54 36 21 13 23 21 11 8 5 2 0 0 0 0 0 0 0 0 0 0 0 0 0 0 0 0 0 0 0 0 0 0 0 0 0 0 0 0 0 0 0 0 0 0 0 0 0
60 34 12 8 15 14 10 9 6 2 0 0 0 0 0 0 0 0 0 0 0 0 0 0 0 0 0 0 0 0 0 0 0 0 0 0 0 0 0 0 0 0 0 0 0 0 0
54 34 17 12 16 11 12 11 7 2 0 0 0 0 0 0 0 0 0 0 0 0 0 0 0 0 0 0 0 0 0 0 0 0 0 0 0 0 0 0 0 0 0 0 0 0 0
36 54 19 13 10 9 12 12 6 2 0 0 0 0 0 0 0 0 0 0 0 0 0 0 0 0 0 0 0 0 0 0 0 0 0 0 0 0 0 0 0 0 0 0 0 0 0
67 40 16 8 8 10 15 10 2 0 0 0 0 0 0 0 0 0 0 0 0 0 0 0 0 0 0 0 0 0 0 0 0 0 0 0 0 0 0 0 0 0 0 0 0 0 0
11 27 7 3 8 22 26 12 2 0 0 0 0 0 0 0 0 0 0 0 0 0 0 0 0 0 0 0 0 0 0 0 0 0 0 0 0 0 0 0 0 0 0 0 0 0 0
14 14 2 0 7 23 17 14 6 1 0 0 0 0 0 0 0 0 0 0 0 0 0 0 0 0 0 0 0 0 0 0 0 0 0 0 0 0 0 0 0 0 0 0 0 0 0

GFSGBSN_con_sbcape_009.txt.gz
CAPE
59 34 32 36 37 30 18 1 2 4 2 7 5 1 2 0 27 13 17 0 4 25 51 64 75 97 6 27 1 0 0 0 0 10 0 7 43 0 3 0 0 0 0 0 0 0 0
46 34 20 36 24 43 32 1 0 2 1 1 5 2 3 0 9 43 24 0 0 17 60 71 95 99 0 8 0 0 0 0 0 9 4 8 48 0 0 0 0 0 0 0 0 0 0
45 28 18 11 6 17 29 7 0 0 3 9 6 27 10 3 31 32 21 22 3 2 52 81 83 29 30 0 0 0 0 0 0 2 5 0 18 0 0 0 0 0 0 0 0 0 0
34 42 25 13 4 9 25 21 2 0 6 9 12 19 33 20 49 37 27 28 32 27 18 77 92 6 11 0 0 0 0 0 0 0 2 3 8 31 3 0 0 0 0 0 0 0 0
32 38 57 28 12 11 16 33 33 1 1 3 7 11 0 0 35 69 72 28 38 62 64 60 15 39 5 2 7 0 0 0 1 31 0 0 6 72 22 1 0 0 0 0 0 0 0
25 32 46 50 34 21 26 2 42 11 3 1 14 57 41 4 26 24 71 58 36 25 26 25 17 11 0 3 6 1 0 0 0 72 89 90 67 78 35 24 27 0 0 0 0 0 0
25 43 37 55 58 30 22 13 23 14 4 9 22 54 64 9 5 28 52 4 3 13 15 0 1 0 11 0 1 2 0 0 0 86 3 21 91 52 17 19 3 0 0 0 0 0 0
37 50 45 57 44 40 17 15 8 8 3 5 19 42 58 28 18 29 52 0 0 0 0 0 0 0 3 62 164 31 0 0 6 7 0 83 44 43 2 4 0 0 0 0 0 0 0
41 39 60 55 46 48 38 23 6 2 9 2 9 35 34 0 15 53 10 0 1 16 9 4 0 9 37 0 47 62 0 0 66 0 0 10 30 31 5 10 22 0 0 0 0 0 0
66 62 83 62 45 48 58 44 21 1 7 13 23 43 45 17 58 13 5 4 6 5 15 16 1 1 45 120 27 25 0 3 64 0 0 61 12 21 23 0 0 2 0 0 0 0 0
67 80 78 73 61 64 54 54 39 26 6 12 36 62 44 22 29 43 13 0 6 21 6 1 5 14 26 6 11 20 0 48 22 0 48 46 108 5 6 0 0 0 0 0 0 0 0
91 104 91 79 79 76 53 52 56 38 24 13 19 47 57 24 33 26 14 13 52 9 0 17 25 35 24 32 65 68 1 41 47 0 8 7 10 34 5 0 0 0 0 0 0 0 0
76 102 105 85 73 73 59 60 70 44 32 24 24 50 48 36 56 31 9 35 9 6 1 21 21 32 5 3 11 19 14 15 14 9 8 2 15 5 11 0 0 0 2 2 1 0 0
95 82 85 79 62 62 61 68 46 46 45 24 18 36 27 15 45 9 48 12 5 13 1 10 6 16 23 11 33 42 2 8 24 3 0 8 26 0 0 0 0 0 0 0 0 0 0
81 73 79 62 58 51 57 72 44 30 24 15 17 2 17 9 58 38 3 3 0 9 0 19 9 5 39 24 58 42 23 8 8 6 0 3 0 0 0 0 0 0 0 0 0 0 0
85 73 72 67 52 48 50 66 33 25 19 7 1 2 3 4 18 10 3 9 10 2 12 0 0 0 0 13 5 10 4 31 54 0 0 0 0 0 0 0 0 0 0 0 0 0 0
103 80 74 71 53 36 43 53 30 22 19 0 1 1 4 29 10 22 7 5 8 31 0 0 12 8 6 0 7 2 0 16 36 0 0 0 0 0 0 0 0 0 0 0 0 0 0
84 92 75 63 42 28 35 42 33 14 0 0 0 0 16 3 20 22 14 15 9 0 3 0 0 10 0 0 0 42 3 1 2 0 0 0 0 0 0 0 0 0 0 0 0 0 0
43 77 82 62 33 16 25 37 31 2 0 0 0 8 36 12 11 10 9 16 19 16 34 43 0 2 0 0 9 37 3 0 0 0 0 0 0 0 0 0 0 0 0 0 0 0 0
18 92 73 57 31 14 16 24 20 0 1 0 0 9 28 17 12 15 34 13 17 30 41 25 0 0 0 0 0 1 2 0 0 0 0 0 0 0 0 0 0 0 0 0 0 0 0
7 96 81 59 34 19 14 21 19 1 5 0 0 0 0 1 4 1 10 12 14 20 8 0 3 0 0 2 1 0 0 0 0 0 0 0 0 0 0 0 0 0 0 0 0 0 0
20 17 87 62 39 21 14 21 10 1 3 0 0 0 0 0 0 1 0 7 11 4 0 5 0 0 2 3 0 0 0 0 0 0 0 0 0 0 0 0 0 0 0 0 0 0 0
35 17 75 70 35 22 10 13 8 9 0 0 0 0 0 0 0 0 0 0 0 0 0 0 0 0 0 0 0 0 0 0 0 0 0 0 0 0 0 0 0 0 0 0 0 0 0
48 24 8 64 28 12 8 10 7 13 0 0 0 0 0 0 0 0 0 0 0 0 0 0 0 0 0 0 0 0 0 0 0 0 0 0 0 0 0 0 0 0 0 0 0 0 0
31 29 7 68 19 5 9 9 12 15 1 0 0 0 0 0 0 0 0 0 0 0 0 0 0 0 0 0 0 0 0 0 0 0 0 0 0 0 0 0 0 0 0 0 0 0 0
26 25 6 63 18 8 6 9 14 16 5 0 0 0 0 0 0 0 0 0 0 0 0 0 0 0 0 0 0 0 0 0 0 0 0 0 0 0 0 0 0 0 0 0 0 0 0
37 35 9 27 9 3 5 8 16 12 1 0 0 0 0 0 0 0 0 0 0 0 0 0 0 0 0 0 0 0 0 0 0 0 0 0 0 0 0 0 0 0 0 0 0 0 0
27 13 12 15 3 2 7 13 14 8 0 0 0 0 0 0 0 0 0 0 0 0 0 0 0 0 0 0 0 0 0 0 0 0 0 0 0 0 0 0 0 0 0 0 0 0 0
32 21 13 8 0 0 9 22 15 5 0 0 0 0 0 0 0 0 0 0 0 0 0 0 0 0 0 0 0 0 0 0 0 0 0 0 0 0 0 0 0 0 0 0 0 0 0

GFSGBSN_con_sbcape_012.txt.gz
CAPE
43 69 34 27 42 30 36 23 0 3 7 5 3 0 0 0 0 0 0 0 0 22 33 38 53 63 56 37 13 22 0 0 0 5 12 1 66 52 87 84 34 0 0 0 0 0 0
37 68 37 27 27 25 28 42 9 0 4 4 12 1 0 0 0 0 0 0 5 0 38 56 59 75 20 13 1 0 0 0 0 1 17 5 50 38 98 141 67 2 1 0 0 0 0
27 37 44 31 23 6 11 32 17 0 1 1 19 11 10 0 0 0 0 7 24 28 32 55 65 52 33 2 0 0 0 0 0 0 3 9 28 113 41 114 77 39 15 7 0 0 0
44 47 44 43 26 16 8 19 29 7 1 2 13 26 15 0 0 0 0 5 41 74 27 52 51 46 18 0 0 0 0 0 0 0 0 3 20 39 53 80 70 64 61 57 0 1 0
41 59 44 46 55 33 21 26 46 39 21 1 12 49 24 4 0 5 10 59 59 79 71 57 32 34 12 0 0 0 0 0 0 0 0 0 33 61 149 4 67 100 46 34 11 1 0
26 41 80 67 52 52 39 28 22 9 43 3 17 49 64 48 12 7 0 39 71 56 51 40 44 48 0 0 0 0 0 0 0 175 47 104 52 125 217 46 35 37 37 15 22 0 0
44 25 76 68 69 53 42 33 25 0 36 29 27 49 59 67 33 4 13 9 4 24 25 0 0 0 0 0 0 3 4 6 21 171 89 105 52 5 53 69 26 20 1 18 7 0 0
79 51 46 77 80 72 54 39 21 1 8 19 21 55 58 64 47 28 32 5 0 0 10 0 3 0 24 2 56 35 42 1 14 4 13 63 50 9 30 46 23 28 14 7 10 0 0
81 70 54 92 109 92 67 61 33 10 2 14 18 48 52 39 20 16 46 17 0 1 5 8 3 12 18 5 31 115 81 2 0 1 14 14 0 14 17 58 38 47 12 6 5 0 0
89 89 95 73 85 81 74 89 62 33 21 5 35 56 65 58 29 41 41 2 0 0 2 6 14 4 37 65 28 19 76 2 78 15 27 11 13 22 79 24 32 34 23 1 1 14 28
115 104 102 71 68 68 67 68 61 54 46 19 40 70 69 50 33 14 4 1 0 0 6 0 8 3 6 21 68 39 131 2 32 70 12 2 2 49 75 20 7 44 22 13 25 7 0
104 111 89 102 68 63 67 67 60 60 52 35 35 60 62 56 62 9 3 5 8 8 5 16 13 31 40 35 8 135 154 20 76 63 8 0 21 0 61 5 19 0 0 0 0 0 12
110 106 109 99 90 75 61 61 60 56 51 38 40 41 38 23 10 50 8 28 9 18 2 32 25 37 16 13 28 54 59 39 31 53 26 0 26 30 78 36 0 26 30 42 48 24 5
73 94 122 124 97 68 61 68 69 70 58 37 25 20 15 22 44 78 11 13 21 3 9 13 19 18 20 29 26 83 37 43 41 23 0 11 17 74 56 29 0 0 32 16 14 1 2
23 142 98 95 90 71 70 65 63 54 33 17 8 4 12 25 74 29 9 10 4 17 3 17 22 24 6 23 2 55 16 18 6 3 0 13 5 0 15 0 0 0 2 0 0 0 0
27 8 104 87 88 74 66 62 58 49 16 17 0 0 3 0 41 30 5 24 12 8 1 21 5 4 11 23 33 23 17 1 1 4 13 0 1 0 0 0 0 0 0 0 0 0 0
39 18 115 98 77 62 60 52 56 39 35 0 2 4 3 5 4 6 11 26 16 12 0 14 4 4 5 11 5 24 7 0 0 8 20 6 0 0 0 1 3 6 8 0 0 0 1
67 30 107 106 76 62 57 46 58 42 0 0 4 19 11 0 3 13 11 12 14 12 3 3 10 0 0 3 1 35 2 1 0 26 14 0 1 0 0 0 0 0 0 0 13 0 0
43 38 30 108 74 54 47 36 50 44 0 0 0 9 6 2 16 15 13 19 9 24 4 0 14 6 0 0 3 5 13 0 0 20 14 0 2 4 3 0 0 0 0 0 0 0 0
42 46 31 77 71 50 39 21 29 35 12 0 0 13 39 45 23 15 13 15 13 17 4 6 23 30 0 0 4 0 28 1 1 0 0 0 0 0 0 0 0 0 0 0 0 2 0
74 45 51 7 79 63 41 11 24 24 4 0 0 3 1 4 8 8 27 20 13 32 44 37 17 7 0 0 18 22 13 3 0 0 0 0 5 0 0 0 0 0 0 0 0 0 0
72 73 56 16 11 80 49 10 21 19 5 0 0 0 0 1 6 2 1 32 12 15 16 11 8 2 0 0 0 4 3 0 1 4 4 0 10 0 0 0 0 0 0 0 0 0 0
65 49 53 25 6 77 49 6 17 15 0 0 0 0 0 0 0 3 4 4 14 8 1 0 4 1 2 8 2 3 0 0 0 0 0 4 0 0 0 0 0 0 0 0 0 0 0
62 68 45 26 14 29 41 6 11 13 0 0 0 0 0 0 0 0 0 0 0 3 6 0 0 0 0 0 0 0 0 0 0 0 0 1 0 0 0 0 0 0 0 0 0 0 0
64 56 51 37 11 16 35 6 15 23 2 0 0 0 0 0 0 0 0 0 0 0 0 0 0 0 0 0 0 0 0 0 0 0 0 0 0 0 0 0 0 0 0 0 0 0 0
72 70 31 18 12 13 9 7 11 17 11 0 0 0 0 0 0 0 0 0 0 0 0 0 0 0 0 0 10 6 7 0 0 0 0 0 0 3 0 0 0 0 0 0 0 0 0
67 57 44 20 17 13 17 5 6 12 4 0 0 0 0 0 0 0 0 0 0 0 0 0 0 0 0 0 0 0 0 0 0 0 0 0 0 0 0 0 0 0 0 0 0 0 0
57 53 55 40 25 10 18 3 3 17 2 0 0 0 0 0 0 0 0 0 0 0 0 0 0 0 0 0 0 0 0 0 0 0 0 0 0 0 1 1 0 0 0 0 0 0 0
56 46 47 24 12 11 6 3 6 21 5 0 0 0 0 0 0 0 0 0 0 0 0 0 0 0 0 0 0 0 0 0 0 0 0 0 0 0 0 0 0 0 0 0 0 0 0

GFSGBSN_con_sbcape_015.txt.gz
CAPE
16 38 50 44 32 28 35 35 3 0 0 2 5 10 6 1 7 10 1 0 0 0 1 31 45 51 60 48 16 40 0 0 0 8 11 2 0 0 13 23 127 40 21 4 1 3 0
18 17 47 54 37 27 27 26 40 5 0 0 5 13 7 1 1 0 0 0 0 0 0 7 69 77 50 29 1 9 24 0 0 1 13 39 3 0 10 11 56 40 50 19 20 5 0
53 20 41 55 51 43 25 16 41 18 0 0 3 15 8 1 10 28 12 1 0 0 0 0 63 59 47 0 0 0 0 0 0 0 25 20 33 47 36 25 17 60 69 15 19 26 0
42 39 50 45 61 69 57 35 42 34 12 0 1 4 35 20 27 37 34 11 0 0 0 0 23 56 52 0 0 0 0 0 0 0 0 18 58 23 43 84 16 54 104 35 20 20 0
40 58 67 57 43 66 62 68 44 36 38 25 7 8 39 22 25 48 53 60 45 5 13 6 4 65 19 0 0 0 0 0 3 0 0 10 48 44 59 89 92 86 49 28 54 27 1
22 71 89 80 74 40 55 88 70 55 42 56 46 29 35 52 34 40 36 38 56 39 28 35 30 41 0 0 0 0 0 0 8 5 6 31 66 45 45 148 66 41 31 22 26 17 0
30 56 88 78 68 58 61 61 77 63 47 71 51 33 33 31 52 50 25 17 0 4 20 0 0 0 0 0 0 0 0 5 6 24 57 31 98 50 9 1 8 42 95 59 30 19 21
51 65 80 85 98 85 72 68 72 78 55 64 55 37 48 38 58 65 33 16 0 0 7 3 1 5 8 1 3 0 3 16 25 29 40 237 207 79 2 0 20 109 55 106 33 28 0
156 113 85 92 94 106 102 80 60 63 56 53 56 37 44 43 45 29 26 10 0 0 4 5 0 5 3 23 8 27 17 20 21 44 62 227 114 108 43 13 103 84 71 38 18 14 0
174 180 144 101 108 83 82 75 64 71 75 55 51 40 48 57 4 1 34 0 0 0 0 8 9 2 9 26 25 12 70 61 47 37 42 66 87 2 108 13 11 133 74 45 29 20 10
76 105 127 145 108 86 73 77 67 69 65 57 46 60 65 44 43 53 7 2 0 1 13 3 17 3 12 19 18 12 0 122 61 45 12 25 3 19 88 16 101 22 52 33 39 47 16
36 48 119 115 146 106 77 76 78 76 52 48 47 48 68 62 27 34 1 2 3 6 10 13 8 14 21 41 15 44 20 79 66 43 27 12 4 19 25 60 18 23 90 73 23 16 10
0 43 54 154 103 111 91 80 72 63 55 42 53 36 32 3 12 25 1 5 7 14 1 23 19 30 39 35 44 51 23 59 87 40 48 6 0 5 42 65 41 30 38 25 53 38 2
54 73 52 8 131 93 120 87 82 85 61 31 34 34 14 0 50 4 8 7 9 4 2 9 13 21 42 15 32 33 37 51 47 1 6 8 32 13 14 24 11 7 22 10 7 13 3
51 84 58 14 3 102 102 95 78 72 31 17 24 46 10 2 54 9 5 5 12 15 9 30 28 64 71 16 24 33 13 42 17 1 10 14 13 2 46 32 4 0 44 1 0 0 29
52 99 61 43 14 148 103 102 81 64 35 15 6 2 1 5 46 14 6 15 27 19 12 14 8 16 14 4 15 23 69 0 4 0 0 9 7 0 0 0 0 5 32 10 2 0 9
85 73 49 63 26 125 97 101 81 77 54 10 0 2 15 7 18 2 1 18 26 26 7 13 7 19 20 5 16 12 4 0 0 0 10 16 5 0 3 13 10 8 2 3 6 0 32
105 69 101 74 17 109 120 79 89 92 56 0 2 5 9 10 11 9 9 9 17 24 5 13 31 23 17 9 15 17 0 0 0 0 17 33 20 8 0 0 1 1 0 4 15 0 0
109 65 64 48 31 5 122 78 84 89 0 0 1 39 12 5 8 16 11 15 14 12 6 22 11 15 14 8 20 17 17 0 3 0 33 26 3 31 14 0 0 1 0 15 6 15 3
90 75 75 67 50 13 87 61 58 73 0 0 3 49 11 22 6 7 15 16 17 12 8 9 10 12 12 13 2 0 0 5 6 0 16 8 0 1 7 0 0 1 0 0 0 2 0
99 74 60 50 32 26 19 44 35 56 15 0 0 25 1 11 13 7 17 13 13 27 4 0 17 13 5 2 1 9 0 14 9 1 1 31 24 9 2 1 0 0 2 0 1 0 0
110 98 67 39 14 24 18 22 18 37 18 1 0 0 40 21 0 6 9 11 9 2 4 34 10 32 1 1 0 5 9 24 19 59 38 23 18 0 0 0 0 0 0 0 0 0 0
112 87 75 56 66 24 18 22 19 31 0 1 0 0 0 12 34 21 14 1 9 10 12 7 27 34 23 4 0 48 14 19 17 10 19 16 18 9 10 0 0 0 0 0 0 0 0
95 96 66 50 27 29 15 8 16 29 0 0 0 0 9 1 1 10 13 11 6 11 10 0 2 0 13 0 1 33 0 0 1 5 5 0 14 3 0 0 3 0 0 0 0 0 0
82 91 63 67 41 23 20 7 16 25 7 0 0 0 15 5 2 0 0 22 0 1 4 0 0 0 0 0 34 20 0 0 0 0 10 4 19 24 4 4 2 0 0 0 0 0 0
70 94 69 59 39 33 21 12 33 26 27 0 0 0 1 2 0 0 0 0 0 0 0 0 0 0 0 0 30 12 8 5 2 5 0 1 12 38 4 4 1 0 0 0 0 0 0
45 87 64 59 44 26 24 12 39 18 23 0 0 0 3 4 0 0 0 0 0 0 0 0 0 0 0 12 9 35 16 0 4 4 1 0 4 1 2 6 0 0 0 0 0 0 0
28 79 60 50 43 29 9 3 19 15 22 0 0 0 4 16 1 0 0 0 0 0 0 0 1 0 6 3 0 0 0 0 1 5 2 0 0 7 7 6 0 0 0 0 0 0 0
28 75 52 45 34 19 19 6 20 17 18 0 1 0 3 16 6 0 0 0 0 0 0 0 0 0 1 0 0 0 0 0 0 0 0 2 0 1 0 0 0 0 0 0 0 0 0

GFSGBSN_con_sbcape_018.txt.gz
CAPE
46 62 50 33 56 58 42 61 48 18 9 1 2 4 3 0 1 1 0 0 0 0 9 33 25 19 0 13 4 11 0 0 0 0 5 3 6 0 1 11 23 29 34 13 1 0 0
20 56 62 49 67 84 37 29 41 55 25 10 1 5 7 0 3 4 0 0 0 11 0 28 50 52 19 9 0 4 17 2 0 7 37 48 24 3 0 6 1 27 35 37 18 2 1
15 15 54 57 54 78 74 42 40 37 42 19 1 6 25 1 1 9 0 0 0 13 28 22 57 21 21 0 0 0 6 0 0 0 0 24 18 49 22 9 11 6 15 68 5 4 11
20 16 33 60 65 83 91 85 51 31 29 21 9 19 27 50 12 21 0 0 0 16 43 40 54 53 13 0 0 0 0 0 0 0 0 0 12 26 27 28 47 49 29 0 0 10 5
34 20 27 61 61 85 91 97 84 52 20 29 23 48 44 67 52 47 15 0 0 38 37 41 23 52 3 0 0 0 0 0 0 0 0 0 2 35 34 41 27 41 0 0 0 3 12
84 75 52 59 86 90 86 95 102 80 59 53 60 54 58 72 72 62 13 0 0 9 30 23 9 20 0 0 0 0 0 4 2 6 9 3 16 36 42 29 2 1 20 0 0 0 11
56 101 105 115 96 92 81 89 104 104 83 66 51 51 50 76 74 60 15 16 0 0 6 0 0 0 0 0 0 0 0 3 10 18 13 14 20 6 0 0 0 0 3 47 0 24 14
22 35 123 158 106 90 96 94 101 94 82 79 61 39 54 75 89 71 38 16 1 1 1 1 0 1 0 3 2 0 0 13 16 17 13 33 17 0 0 2 3 14 13 17 22 28 15
40 48 65 162 182 121 147 101 99 89 87 76 64 42 65 73 53 49 27 1 0 0 5 12 0 0 0 0 9 12 0 0 2 5 8 15 0 0 2 1 26 5 36 4 8 34 11
70 73 54 18 100 140 108 127 84 86 75 79 66 60 67 34 17 3 11 4 5 0 1 2 9 1 0 1 4 1 7 11 9 5 8 25 0 8 25 22 27 25 3 5 136 0 9
88 97 29 30 12 80 117 109 86 83 79 72 67 67 55 1 48 36 11 0 0 0 0 0 13 0 5 1 3 1 0 27 28 3 41 0 0 2 93 66 52 5 97 5 1 24 56
115 116 66 19 17 11 83 135 103 98 84 71 67 51 48 30 15 10 3 0 0 3 1 2 4 14 30 11 9 6 6 34 26 27 28 2 32 47 21 54 0 0 72 45 32 9 17
143 135 110 55 5 14 14 146 124 108 91 72 68 40 30 7 2 0 0 1 3 7 0 13 13 16 8 29 30 9 19 31 31 42 6 10 3 0 24 73 20 47 83 5 86 23 0
161 175 140 89 11 11 33 108 138 144 103 70 53 38 14 0 2 0 1 1 2 5 0 6 9 11 24 27 31 21 20 23 22 9 0 10 1 1 3 3 46 31 1 1 1 0 0
197 187 146 106 12 19 36 6 140 121 76 67 46 35 4 7 2 0 2 1 6 21 8 11 14 23 34 20 20 20 31 7 0 3 13 59 10 4 0 0 54 18 1 2 10 0 0
184 183 166 73 67 73 50 126 159 123 70 63 34 5 2 1 7 2 6 7 12 19 9 12 26 12 6 3 19 16 9 0 0 10 0 1 7 0 6 3 5 35 1 9 5 13 29
182 174 124 110 82 60 41 8 177 156 102 37 0 1 0 2 2 11 1 2 13 14 7 11 20 19 3 0 9 11 4 0 0 0 0 6 10 6 9 39 8 23 21 15 0 1 13
123 146 76 93 63 60 34 10 177 161 123 1 1 3 11 8 17 5 5 2 9 14 12 15 19 28 13 13 0 11 1 16 0 0 1 3 12 6 2 0 0 0 0 0 8 0 0
106 101 86 80 69 74 49 22 108 163 32 0 1 8 20 6 3 3 5 7 11 30 23 16 14 4 10 13 6 0 3 20 0 0 0 7 14 10 19 3 31 19 0 0 0 0 0
70 82 99 75 87 56 55 15 12 109 11 0 0 9 15 18 9 2 6 8 8 8 8 20 9 13 7 10 12 1 0 8 4 0 75 28 7 3 15 1 1 7 0 0 0 0 0
30 80 74 86 68 82 61 24 19 82 0 0 0 8 1 5 4 6 2 10 9 11 4 2 10 2 8 12 12 0 0 30 0 0 0 7 17 7 0 0 0 0 0 0 0 0 0
24 45 69 80 60 30 21 31 12 73 3 0 1 0 1 6 0 1 5 8 7 6 9 8 0 17 16 0 1 0 0 10 5 0 0 0 3 0 0 0 0 0 0 0 0 0 0
18 23 73 103 56 38 31 10 16 23 0 1 0 0 0 3 16 3 9 2 5 12 7 0 0 0 31 0 1 0 2 30 5 0 0 8 0 11 0 0 0 0 0 0 0 0 0
23 18 72 95 65 31 21 19 14 19 9 0 0 0 8 5 0 5 34 8 20 3 18 12 12 12 26 1 33 11 0 0 0 1 10 4 1 3 0 0 0 0 0 0 0 0 0
37 16 58 71 72 41 26 27 19 46 25 0 0 0 1 9 3 0 20 3 14 5 29 0 0 0 0 0 30 9 0 4 0 0 0 11 20 26 0 0 0 0 0 0 0 0 0
31 19 45 61 57 45 30 18 21 9 54 0 0 0 0 8 0 0 0 2 13 2 0 0 0 0 0 1 19 6 3 2 1 0 0 1 10 12 1 0 0 0 0 0 0 0 0
32 26 45 71 57 50 30 5 19 11 42 1 0 0 0 2 0 0 0 1 6 0 0 0 0 0 0 0 10 25 11 0 4 3 1 1 15 6 4 2 0 0 0 0 0 0 0
32 27 40 69 58 48 24 19 30 12 29 4 0 0 0 5 2 0 0 0 0 0 0 0 2 0 4 0 1 8 3 0 0 0 0 0 1 5 0 2 0 0 0 0 0 0 0
30 25 40 63 47 46 25 25 20 10 19 5 0 0 0 2 6 0 0 0 0 0 0 0 0 0 12 12 0 0 0 0 0 0 0 0 0 0 0 0 0 0 0 0 0 0 0

GFSGBSN_con_sbcape_021.txt.gz
CAPE
19 11 25 17 48 56 100 80 76 73 33 6 0 2 8 6 1 0 0 0 0 0 0 13 23 35 31 18 1 0 0 0 0 0 18 21 8 0 0 0 0 2 0 0 0 0 0
61 20 24 28 43 63 63 92 84 85 65 38 15 1 8 10 1 1 0 0 0 0 0 0 12 46 23 4 0 0 0 0 0 0 3 18 7 3 1 0 0 0 3 0 0 1 0
54 98 35 24 50 62 58 82 89 67 50 57 43 18 18 19 2 2 2 13 0 0 0 0 0 24 26 0 0 0 1 0 0 0 0 5 28 65 22 2 0 0 0 0 0 0 3
65 56 122 55 68 71 59 94 84 90 59 58 49 41 18 24 21 6 23 8 4 14 1 0 0 16 3 0 0 0 0 0 0 0 0 0 0 2 12 13 0 4 20 1 0 0 2
23 30 64 129 94 98 118 79 92 105 106 64 65 50 38 35 56 52 28 10 0 8 36 16 0 11 0 0 0 0 0 0 0 0 0 0 0 9 1 9 0 11 3 8 1 0 5
30 22 36 53 110 100 144 130 85 95 114 93 80 66 51 48 60 60 32 0 0 4 39 22 6 10 0 0 0 0 0 0 0 0 7 0 0 0 5 29 2 1 0 0 0 0 1
28 35 33 51 41 138 109 141 116 100 102 93 87 72 65 47 53 60 0 0 0 0 12 0 0 0 0 0 0 0 0 0 0 0 7 0 1 5 0 0 0 0 0 0 0 3 10
59 31 42 41 55 54 161 149 135 131 139 96 86 82 93 53 67 63 0 0 1 0 1 2 0 0 0 1 0 0 0 0 4 12 1 3 4 0 0 0 12 1 0 0 0 0 4
64 68 45 33 57 15 52 146 154 155 131 86 82 82 82 56 69 26 6 0 0 0 23 5 0 0 0 2 3 0 0 0 0 5 2 0 0 0 0 0 5 7 0 0 0 0 0
58 76 66 57 74 30 66 48 80 140 121 103 98 90 76 47 12 0 6 0 0 0 6 0 3 7 5 2 0 3 6 0 15 6 2 3 0 0 0 0 1 6 0 0 0 33 13
74 80 84 103 110 85 72 27 5 98 129 114 123 100 70 0 0 0 0 0 0 8 0 0 8 0 8 0 2 0 3 12 12 4 3 0 0 0 0 0 4 0 0 0 11 8 19
85 102 121 134 164 115 96 5 29 95 155 116 106 110 36 4 0 0 0 0 0 2 0 1 0 6 7 20 11 13 0 9 13 25 14 0 3 5 0 0 10 0 1 0 24 55 54
85 113 160 180 193 123 87 12 65 34 142 178 91 78 27 1 1 0 0 0 0 1 0 4 6 7 4 13 18 17 26 21 15 6 8 1 1 2 5 19 12 33 24 15 50 31 5
94 134 168 193 173 161 100 23 78 98 115 121 134 73 9 1 0 0 0 11 3 0 0 2 4 1 12 2 21 15 38 17 29 5 9 0 0 0 0 0 20 3 0 16 9 13 1
98 122 153 165 116 120 147 25 34 18 136 101 96 69 11 3 0 0 5 3 0 0 0 9 9 15 21 17 6 3 1 25 1 1 0 4 0 0 0 0 0 3 0 0 10 3 7
118 97 104 87 122 155 44 22 25 50 131 126 108 69 28 2 0 1 4 7 0 3 4 5 19 7 5 3 8 33 0 0 0 0 0 0 6 1 0 11 3 88 38 23 6 11 4
118 75 89 90 105 85 59 27 9 111 151 112 2 36 8 3 7 10 0 15 4 7 7 15 17 29 12 0 0 0 0 0 0 0 0 1 7 15 1 8 3 28 13 66 40 0 0
87 83 81 91 76 79 72 84 42 46 185 56 0 16 6 5 15 15 10 4 0 10 13 15 14 22 28 3 0 0 0 0 0 0 1 1 8 6 2 20 16 6 1 1 3 1 0
85 78 56 86 63 105 62 78 49 7 71 0 1 23 6 0 2 7 7 1 1 13 16 17 20 11 0 11 0 0 0 0 0 0 0 6 11 1 14 3 10 3 7 10 17 8 0
78 69 46 116 65 83 63 34 30 22 10 0 3 15 33 22 2 6 3 5 9 6 13 23 19 3 1 10 0 3 0 6 0 0 0 1 12 6 14 16 8 7 1 7 11 0 0
86 52 46 48 69 80 48 59 43 12 32 0 0 11 2 2 2 5 2 5 8 6 10 7 8 4 0 0 0 0 0 0 0 13 23 23 5 10 4 4 2 2 0 3 4 0 0
87 42 44 30 65 76 70 45 49 13 14 1 0 1 1 0 0 4 5 5 4 8 9 8 1 2 0 0 0 0 0 0 7 7 0 2 3 10 0 0 1 1 0 0 0 0 0
83 32 41 30 72 62 65 54 33 20 7 1 0 0 0 5 0 3 2 0 1 2 2 1 0 1 0 0 4 3 2 0 13 0 0 0 1 10 0 2 0 0 0 0 0 0 0
91 38 32 26 69 73 95 45 21 25 4 0 0 0 0 9 2 4 6 0 0 3 0 2 0 1 0 5 1 31 30 0 19 17 0 0 0 0 0 0 0 0 0 0 0 0 0
87 48 25 29 53 58 61 47 31 16 15 3 0 1 6 9 13 1 0 3 12 5 21 2 1 0 0 0 15 10 7 9 0 0 0 0 1 31 0 0 0 0 0 0 0 0 0
90 64 26 24 51 70 59 45 35 21 14 0 0 0 0 0 3 0 0 0 0 13 0 0 0 0 0 0 22 1 0 0 3 3 0 0 10 18 5 0 0 0 0 0 0 0 0
98 78 29 21 49 67 66 48 25 18 8 0 0 0 0 0 0 0 1 4 31 0 9 0 0 0 0 2 18 4 1 0 4 4 0 0 13 2 4 1 0 0 0 0 0 0 0
78 74 26 23 40 59 53 36 17 15 11 2 0 0 0 0 0 0 0 0 0 3 1 0 0 3 7 5 11 8 0 0 0 0 0 0 0 6 0 0 0 0 0 0 0 0 0
79 43 31 17 27 54 49 35 22 14 12 1 0 0 0 0 1 0 0 0 0 6 12 0 0 0 3 2 0 0 0 0 0 1 0 0 0 0 0 0 0 0 0 0 0 0 0

GFSGBSN_con_sbcape_024.txt.gz
CAPE
17 71 126 81 15 45 75 148 181 109 85 57 21 1 6 8 3 0 0 0 0 0 0 0 9 24 2 6 0 0 0 0 0 17 8 5 0 0 0 0 0 0 0 0 0 0 0
20 19 51 69 108 45 28 78 125 154 126 83 51 20 9 7 10 0 0 0 0 0 0 0 0 14 0 1 0 0 0 0 0 0 0 7 0 0 0 0 0 0 0 0 0 0 0
14 13 8 23 53 89 85 102 113 151 106 104 82 60 33 22 16 2 0 0 0 0 0 0 0 3 8 0 0 0 0 0 0 1 1 3 7 19 19 0 0 0 0 0 0 0 0
35 31 29 13 15 40 102 116 138 132 118 134 106 98 60 44 17 15 27 8 0 0 0 1 2 7 0 0 0 0 0 0 0 0 0 0 0 0 0 0 0 0 0 0 0 0 0
29 32 36 32 18 20 64 100 126 140 135 133 118 102 75 54 60 65 56 13 0 0 17 22 0 0 0 0 0 0 0 0 0 0 0 0 0 0 0 20 8 0 2 0 0 0 0
31 30 24 23 28 25 48 49 171 154 139 151 115 102 98 63 66 70 58 13 0 0 18 34 11 5 0 0 0 0 0 0 0 0 0 0 0 0 0 9 5 3 0 0 0 0 0
52 47 41 57 43 37 19 34 11 175 146 95 102 85 83 81 74 73 9 0 0 0 8 2 0 0 0 0 0 0 0 0 0 0 0 0 1 2 0 0 0 0 0 0 0 0 0
72 84 84 63 69 49 42 39 23 45 167 111 105 120 94 99 95 67 0 0 0 0 0 0 0 0 0 2 0 0 0 0 0 0 0 4 15 0 0 0 0 0 0 0 0 0 0
37 78 79 69 86 52 59 62 27 8 168 147 123 111 90 121 88 33 2 0 0 0 9 2 0 3 3 11 7 1 0 0 0 1 1 0 0 0 0 0 0 3 4 3 4 0 0
79 41 91 78 92 95 98 70 41 11 85 87 104 124 111 101 10 0 4 0 0 2 1 0 0 6 8 38 14 6 3 0 7 6 0 7 0 0 0 0 0 2 0 6 18 14 1
101 81 93 74 98 109 108 108 54 42 71 62 121 155 135 1 0 0 0 0 0 12 0 0 3 0 10 8 0 0 0 11 9 2 1 0 0 0 0 0 0 0 0 0 8 13 24
89 76 108 80 151 148 151 154 106 48 75 50 111 164 46 1 0 0 0 0 1 0 0 3 0 2 11 11 10 4 0 18 16 24 13 0 0 0 0 0 0 2 4 2 1 12 32
113 89 106 120 169 155 111 148 119 93 59 29 24 187 11 0 0 0 0 0 0 0 0 4 2 3 0 9 1 10 26 17 14 13 1 9 11 2 5 9 6 24 40 15 19 14 0
131 81 111 82 89 143 86 141 146 90 63 14 36 125 6 0 0 0 0 0 0 0 0 2 0 5 1 0 3 10 35 31 10 13 15 4 2 3 0 0 1 1 4 0 0 0 0
120 108 89 66 86 126 64 189 109 72 17 15 41 98 10 2 0 0 0 6 0 0 0 0 3 6 5 7 2 15 23 9 4 16 0 2 2 0 0 0 7 5 40 0 0 0 29
134 117 86 58 57 96 80 156 82 65 38 46 57 73 17 0 0 0 3 3 0 0 1 2 0 4 2 3 18 11 0 0 1 0 0 0 0 0 0 0 1 29 6 5 21 4 5
123 116 79 41 55 67 73 83 62 69 44 82 70 21 13 2 5 8 1 6 0 0 0 0 7 20 15 0 1 0 0 0 0 0 0 0 0 0 0 2 0 14 3 22 1 0 35
102 113 77 37 80 59 72 49 43 55 41 62 25 9 9 6 13 11 8 0 0 0 1 8 6 16 25 9 0 0 0 0 0 0 0 0 16 2 0 0 0 6 3 13 13 0 46
127 104 74 39 124 96 68 76 54 63 35 36 25 38 9 0 0 8 8 0 1 8 14 11 11 10 5 30 20 0 0 0 0 0 0 16 13 1 0 4 11 14 11 9 44 47 0
126 94 66 39 82 131 76 79 54 52 30 32 15 5 30 17 15 1 6 8 7 0 6 12 14 23 19 5 3 0 0 0 0 0 0 11 27 1 2 22 8 7 10 2 33 22 1
109 99 60 42 46 111 111 66 68 53 20 3 17 14 3 3 7 1 2 5 7 11 5 14 15 15 5 0 0 0 0 0 0 0 10 9 25 23 14 3 11 20 0 6 0 0 1
103 110 65 47 48 59 76 65 64 35 23 28 12 3 3 0 0 4 4 5 3 4 9 9 11 1 18 0 0 0 0 0 0 7 6 16 4 2 1 1 12 15 16 13 2 1 2
96 77 75 47 33 35 95 74 42 57 24 21 11 0 0 1 2 9 9 4 3 1 2 4 1 3 1 0 0 0 0 0 0 0 2 8 7 4 9 2 4 18 17 1 0 0 2
94 78 82 57 23 20 62 69 45 39 32 15 0 0 1 17 6 4 2 1 2 0 1 10 0 7 0 2 0 13 34 8 2 0 0 0 0 10 0 10 0 0 0 0 0 0 0
90 78 67 66 18 17 48 70 41 36 26 5 0 0 0 7 12 8 4 1 0 0 8 19 7 0 0 22 28 27 2 6 1 1 3 0 0 10 0 0 0 0 0 0 0 0 0
99 83 63 59 16 16 41 61 43 37 20 6 0 0 2 13 10 1 0 1 0 0 12 7 0 0 0 42 46 14 0 0 0 0 0 0 0 10 0 0 0 0 0 0 0 0 0
93 88 54 30 22 24 36 52 47 33 19 13 0 0 0 4 0 0 0 3 0 6 10 5 0 0 0 11 11 3 0 1 0 0 3 4 3 2 0 0 0 0 0 0 0 0 0
91 77 61 17 32 24 22 45 47 28 18 16 0 0 1 0 0 0 0 0 0 1 11 1 11 1 4 14 10 19 1 0 0 0 0 1 2 1 0 0 0 0 0 0 0 0 0
86 68 56 14 27 16 19 51 43 23 16 12 1 0 0 3 2 0 0 0 0 0 5 4 1 0 4 7 0 0 0 0 0 0 0 0 0 0 0 0 0 0 0 0 0 0 0

GFSGBSN_con_sbcape_027.txt.gz
CAPE
10 4 10 4 10 44 144 123 150 114 56 118 96 50 20 2 11 10 7 0 0 0 0 1 0 1 1 1 0 0 0 0 0 22 6 2 0 0 0 0 0 0 0 0 0 0 0
33 29 16 15 14 10 11 45 149 136 100 140 205 87 53 29 7 17 8 2 0 0 0 0 0 18 0 0 0 0 0 0 0 0 1 4 1 0 0 0 0 0 0 0 0 0 0
32 41 28 23 20 19 11 9 54 113 109 87 141 109 82 60 14 23 18 16 7 0 0 0 0 3 0 0 0 0 0 0 0 0 0 0 4 25 14 10 0 0 0 0 0 0 0
28 39 41 47 53 28 19 33 32 44 95 96 109 98 106 70 40 33 26 34 26 7 1 0 0 1 0 0 0 0 0 0 0 0 0 0 13 0 0 2 0 1 0 0 0 0 0
28 32 45 49 46 48 42 28 44 38 59 121 133 90 103 81 61 74 58 56 28 11 28 23 0 0 0 0 0 0 0 0 0 0 0 0 0 0 3 31 11 0 0 0 0 0 0
22 18 26 29 47 53 57 55 37 18 12 48 124 117 102 95 86 80 66 48 7 5 16 51 4 2 0 0 0 0 0 0 0 0 0 0 0 1 11 28 1 0 0 0 0 0 0
45 29 33 40 64 50 47 64 69 35 19 28 94 98 110 102 91 110 46 0 0 0 9 4 1 0 0 0 0 0 0 0 0 0 0 0 0 0 0 0 0 0 0 0 0 0 0
68 87 83 45 50 76 68 53 63 60 26 32 35 102 113 121 136 109 0 0 0 0 0 0 0 0 0 0 0 0 0 0 0 0 0 2 5 0 0 0 0 0 2 1 0 0 0
61 85 75 85 104 92 69 81 81 81 65 39 2 105 86 136 129 41 0 0 0 0 0 0 0 1 0 5 18 0 0 0 0 0 0 0 0 0 0 0 0 0 2 3 2 0 0
85 77 100 80 109 101 95 89 110 99 91 99 13 123 85 132 72 5 5 0 0 0 0 0 0 0 13 29 9 0 0 0 0 0 0 0 0 0 0 0 0 2 0 0 4 22 1
89 106 97 101 99 124 116 159 117 126 101 77 34 10 76 90 0 1 0 0 0 0 0 0 6 0 14 12 0 0 0 11 8 0 0 0 0 0 0 0 0 7 0 7 23 7 1
101 105 131 103 148 108 146 214 170 93 76 80 69 26 88 0 0 0 0 0 2 0 0 1 1 6 15 14 12 6 2 24 14 19 7 0 0 0 0 0 0 2 5 10 10 8 4
106 108 152 145 162 179 173 183 96 53 118 50 54 80 78 0 0 0 0 0 0 0 0 2 1 4 0 1 3 9 1 18 21 7 10 11 9 1 0 0 0 13 13 3 12 13 0
112 112 152 148 117 101 93 46 69 212 117 59 63 83 74 0 0 1 0 0 0 0 0 1 0 0 0 0 2 5 12 2 23 27 11 2 14 5 1 0 0 0 4 7 0 0 0
122 132 138 117 96 65 70 81 101 141 83 53 59 31 76 12 0 11 0 0 0 0 0 0 0 6 2 1 2 11 13 3 1 1 5 3 0 0 0 0 1 12 13 0 2 0 0
108 132 141 116 74 61 52 105 139 101 91 59 48 35 67 8 1 1 1 0 0 0 0 0 0 0 0 0 10 10 1 0 0 0 1 0 0 0 0 3 2 4 0 18 15 0 0
99 127 134 105 53 53 61 117 102 76 79 69 67 26 31 18 1 2 0 1 0 0 0 0 0 14 2 0 3 0 0 0 0 0 0 4 0 0 1 7 0 6 8 5 3 0 1
98 113 129 90 38 46 51 93 113 73 87 52 23 4 20 6 12 4 7 0 0 0 0 0 0 6 11 4 4 0 0 0 0 0 4 1 1 0 0 0 0 0 0 12 5 0 0
103 115 110 96 42 78 63 82 87 75 68 43 10 30 19 17 0 3 11 1 0 3 2 7 14 12 7 16 35 0 0 0 0 0 0 1 12 1 6 1 12 13 4 14 5 13 0
105 101 118 92 55 61 78 63 62 40 54 17 26 6 47 21 11 0 10 7 7 0 6 8 7 14 16 26 12 2 0 0 0 0 0 0 19 4 0 5 3 17 18 25 18 6 0
98 97 105 83 62 35 59 83 58 27 24 8 41 6 3 6 13 0 0 6 8 12 2 12 11 15 14 21 1 7 0 0 0 3 13 3 12 11 4 0 2 11 14 9 7 9 11
97 93 100 85 68 31 36 70 53 28 28 37 25 17 7 5 4 7 2 10 1 3 5 9 11 3 9 21 1 0 0 0 0 0 9 14 5 1 0 1 11 25 16 10 2 0 1
88 105 106 73 67 26 24 72 68 42 38 14 11 0 1 8 7 14 10 7 2 5 2 0 0 5 16 14 2 0 0 0 1 0 8 10 8 11 0 10 4 13 6 6 5 3 3
88 97 105 68 61 15 14 40 67 41 49 22 14 0 2 9 9 12 1 0 0 8 6 0 0 8 3 4 0 0 0 0 1 0 0 5 6 11 9 7 0 1 8 3 7 1 0
88 99 92 71 26 11 18 18 43 42 36 11 8 2 0 16 2 0 4 5 6 1 8 0 9 2 0 4 27 34 5 4 2 0 0 0 0 10 12 1 0 0 0 0 5 2 0
93 96 90 77 17 12 16 13 44 36 29 5 1 1 0 9 6 14 10 0 7 2 0 0 3 0 0 20 38 12 15 4 1 1 0 1 0 2 9 0 0 0 0 0 0 0 0
88 89 81 66 20 12 11 11 44 44 26 12 2 0 0 13 1 0 2 0 0 3 4 1 7 0 7 23 13 6 0 0 0 1 2 0 0 4 2 4 0 0 0 0 0 0 0
94 95 75 66 46 12 14 8 42 48 21 20 2 0 2 6 0 0 0 0 3 0 4 0 12 2 10 15 6 8 2 0 0 0 0 0 0 0 0 0 0 0 0 0 0 0 0
88 103 77 59 54 13 13 10 43 33 18 16 7 0 0 9 0 0 0 0 0 0 1 1 1 0 1 18 1 0 7 0 0 0 0 0 0 0 0 0 0 0 0 0 0 0 0

GFSGBSN_con_sbcape_030.txt.gz
CAPE
34 24 28 28 26 19 15 11 12 24 132 110 117 103 90 43 21 12 7 8 3 2 0 2 17 23 1 0 0 0 0 0 0 4 7 8 0 0 0 0 0 0 0 0 0 0 0
17 38 35 29 18 18 16 19 20 11 30 89 91 128 123 101 45 21 14 10 2 1 0 0 5 22 1 0 0 0 0 0 0 15 12 6 9 0 1 0 0 0 0 0 0 0 0
24 19 23 21 34 38 20 25 31 8 13 52 109 119 130 116 72 27 31 20 19 4 0 0 6 0 0 0 0 0 0 0 0 0 10 1 0 13 19 3 0 0 0 0 0 0 0
29 20 28 26 29 45 58 53 45 54 14 16 22 116 128 121 101 55 44 31 42 22 0 2 13 0 0 0 0 0 0 0 0 0 0 0 14 8 0 0 0 8 0 0 0 0 0
39 25 36 27 47 26 59 79 65 55 49 15 24 36 114 135 121 81 96 71 61 39 26 24 0 0 0 0 0 0 0 0 0 0 0 0 0 0 0 13 6 10 4 0 0 0 0
34 33 27 34 56 48 57 84 77 72 46 57 18 37 53 107 137 102 143 74 49 5 16 42 1 0 0 0 0 0 0 0 0 0 0 0 0 1 6 8 0 0 0 0 0 0 0
42 34 62 48 48 60 66 69 78 76 55 54 53 55 15 99 118 124 53 0 0 0 5 0 3 0 0 0 0 0 0 0 0 0 0 0 0 0 0 0 0 0 0 2 0 0 0
69 88 100 90 93 57 63 83 100 96 84 67 61 69 23 63 131 142 0 0 0 0 0 0 0 0 0 0 0 0 0 0 0 0 0 0 2 0 0 0 0 0 3 1 0 0 0
78 70 79 84 91 97 84 97 106 111 101 104 67 38 37 23 117 22 0 0 0 0 0 0 0 1 0 3 1 0 0 0 0 0 0 0 0 0 0 0 0 0 0 0 0 0 0
51 51 90 92 104 108 112 142 140 136 128 119 62 12 22 12 154 2 13 0 0 0 0 0 2 0 0 11 1 0 0 0 0 0 0 0 0 0 0 0 0 2 0 0 0 1 1
40 69 93 127 121 132 120 186 169 146 129 87 65 30 16 23 2 2 0 0 0 0 0 0 11 4 26 0 0 0 0 8 9 0 0 0 0 0 1 0 0 1 0 0 0 3 1
72 83 93 145 150 166 189 146 134 117 82 146 132 44 38 20 13 0 0 0 0 0 0 4 4 15 21 16 14 4 13 25 3 18 3 0 0 0 0 0 0 5 4 6 14 2 6
78 91 101 147 139 135 134 106 60 129 102 188 149 74 87 56 3 0 0 0 0 0 0 2 5 6 4 8 5 13 13 22 17 14 5 3 8 0 0 0 0 5 23 2 8 11 0
75 97 105 136 126 116 59 86 130 114 208 173 107 122 89 73 1 0 0 0 0 0 0 2 0 1 0 0 1 0 15 13 20 10 14 5 0 4 0 0 0 0 4 0 0 0 0
80 108 109 124 131 91 41 56 165 215 74 102 103 66 83 51 7 0 5 0 0 0 0 0 3 0 0 0 1 13 16 0 1 3 8 3 0 0 0 0 0 22 11 0 4 3 4
101 106 108 123 116 89 37 47 101 120 71 72 34 71 34 69 32 12 2 0 0 0 0 0 0 0 0 0 0 10 2 0 3 1 3 0 1 0 0 0 0 7 1 6 1 0 0
82 106 116 136 117 74 34 53 54 106 73 57 48 51 53 65 41 20 0 0 0 0 0 0 0 0 0 0 0 2 0 0 0 0 0 6 7 0 3 3 1 13 20 24 0 0 0
87 108 126 126 108 75 32 56 55 82 61 49 21 33 71 69 11 7 11 0 0 0 0 0 0 0 0 0 5 1 0 0 0 0 0 0 18 1 0 0 0 0 0 1 0 0 0
82 110 129 128 99 77 44 45 56 76 84 50 46 49 61 0 0 2 1 0 0 0 0 0 0 0 2 8 23 1 0 0 0 0 0 0 13 1 0 0 1 4 2 9 1 2 0
91 108 123 124 104 77 53 36 63 66 41 17 0 6 17 18 14 0 0 8 0 0 0 0 5 6 11 27 15 5 1 0 0 0 0 0 13 0 0 0 3 18 4 8 6 4 0
100 114 122 115 109 67 30 48 61 59 39 8 5 3 1 2 6 2 1 0 5 5 2 15 8 6 13 8 9 32 0 0 0 0 0 0 17 9 4 1 2 7 17 5 3 0 3
84 109 130 124 81 70 22 47 64 73 33 23 6 20 12 0 7 0 1 9 6 5 3 3 19 9 11 24 0 0 0 0 0 0 2 13 3 0 0 2 8 3 9 21 4 5 7
78 108 114 112 80 37 19 34 51 64 48 23 21 17 27 11 24 10 6 4 1 2 1 0 0 7 13 4 2 1 0 0 0 5 14 7 8 10 0 1 8 4 4 7 9 5 3
80 101 115 108 68 24 13 18 37 69 58 24 24 22 28 18 14 6 2 4 3 0 2 0 0 10 2 0 1 1 0 0 0 0 0 5 8 6 3 1 0 1 16 14 9 7 0
83 102 104 88 67 23 11 11 13 39 47 10 11 8 2 17 13 16 3 1 0 4 16 11 6 0 1 4 24 9 4 3 0 0 0 0 8 6 22 2 0 0 0 0 1 0 0
97 100 93 76 61 45 10 11 9 33 33 8 1 3 3 3 2 3 3 4 4 8 4 6 0 1 0 26 33 3 2 2 0 0 0 0 1 14 0 4 0 0 0 0 0 0 0
84 77 82 72 68 53 19 12 10 38 32 11 5 3 2 2 0 0 0 1 0 0 4 4 2 1 1 27 27 14 0 0 0 0 0 4 4 5 3 3 0 0 0 0 0 0 0
66 82 81 71 59 53 23 9 10 36 27 10 2 0 3 1 0 0 0 0 0 0 2 1 6 13 17 27 13 6 4 1 0 0 0 0 0 0 0 0 0 0 0 0 0 0 0
67 73 75 63 53 42 13 11 15 37 30 7 12 1 2 7 1 0 0 0 0 0 0 5 8 7 11 16 2 0 9 0 0 0 0 0 0 0 0 0 0 0 0 0 0 0 0

GFSGBSN_con_sbcape_033.txt.gz
CAPE
28 25 24 24 18 15 23 26 24 16 15 10 30 88 104 121 99 25 6 0 1 1 0 0 19 9 0 1 1 0 0 0 0 1 12 0 0 0 0 0 0 0 0 0 0 0 0
27 31 25 31 32 37 21 17 28 35 32 15 15 38 42 112 146 89 20 0 1 1 0 0 3 8 0 0 0 0 0 0 0 14 18 4 0 0 0 0 0 0 0 0 0 0 0
21 28 24 24 43 24 31 26 26 24 30 46 23 22 42 76 132 105 48 12 0 0 0 0 11 0 0 0 0 0 0 0 0 4 8 14 0 0 0 0 0 0 0 0 0 0 0
17 17 20 22 22 35 46 29 47 72 39 34 35 25 22 21 76 139 90 43 18 33 22 11 22 0 0 0 0 0 0 0 0 0 0 0 6 20 4 0 0 4 3 0 0 0 0
22 29 33 25 42 45 43 53 85 74 64 66 56 42 17 34 45 123 133 130 80 64 52 37 0 0 0 0 0 0 0 0 0 0 0 3 0 0 3 0 0 5 0 0 0 0 0
53 58 87 89 77 42 46 56 76 77 75 83 60 63 37 33 6 96 123 96 63 16 39 41 4 0 0 0 0 0 0 0 0 0 0 0 0 3 10 0 0 0 0 0 0 0 0
98 84 62 75 90 87 80 44 56 73 86 101 80 65 58 42 23 67 45 6 0 0 2 0 1 0 0 0 0 0 0 0 0 0 0 0 1 3 0 0 0 0 0 0 0 0 0
78 36 64 52 82 90 93 102 106 107 110 109 116 83 63 39 78 27 1 0 0 0 0 0 0 0 0 0 0 0 0 0 0 0 0 0 2 0 0 0 0 2 5 1 0 0 0
52 67 71 81 78 79 93 110 101 128 147 122 102 83 79 32 58 34 2 0 0 0 0 0 0 1 0 0 0 0 0 0 0 0 0 0 0 0 0 0 0 0 0 0 0 0 0
63 85 86 81 86 97 115 122 143 168 171 109 114 60 27 41 36 80 6 0 0 0 0 0 0 0 4 18 2 0 0 0 0 0 0 0 0 0 0 0 0 1 0 0 0 1 3
63 73 76 85 86 104 112 104 118 91 81 104 74 55 34 60 35 29 1 0 0 0 0 0 5 10 12 0 0 0 0 4 0 0 0 0 0 0 1 0 0 0 0 0 0 1 4
73 74 82 87 93 104 96 86 50 78 72 130 227 186 119 40 47 0 0 0 0 0 0 6 6 27 33 20 20 1 7 21 5 9 1 0 0 0 0 0 0 0 0 9 10 9 18
53 71 95 83 82 99 83 65 36 91 169 81 144 165 85 29 5 42 1 4 0 0 0 10 9 24 16 8 15 17 17 15 11 9 2 12 6 1 0 0 0 0 46 5 14 25 1
66 86 79 89 96 101 71 47 29 92 132 67 107 123 99 72 33 45 3 3 0 0 0 0 2 5 3 2 1 8 13 21 18 8 8 0 0 0 1 3 0 3 1 0 0 0 0
71 68 81 93 108 111 73 58 29 94 96 39 20 2 38 76 58 13 2 0 0 0 0 1 4 5 1 0 0 8 8 3 2 12 11 5 0 0 0 0 1 25 25 0 4 1 34
76 77 86 105 112 105 82 71 26 104 112 76 30 42 64 84 59 26 0 0 0 0 0 0 0 0 1 1 0 6 3 0 0 0 0 0 0 0 0 1 3 8 0 15 13 8 10
56 75 93 111 118 113 86 72 34 83 91 63 8 46 34 59 59 18 0 0 0 0 0 0 0 0 0 0 0 0 0 0 0 0 1 1 1 0 8 4 0 6 14 35 11 15 10
86 83 91 111 128 110 84 53 48 76 89 42 26 3 10 67 0 1 3 0 0 0 0 0 0 0 0 0 2 0 0 0 0 0 0 0 8 2 0 0 0 0 0 3 12 0 1
79 86 101 116 127 114 67 30 32 69 81 27 43 29 48 0 1 4 3 0 0 0 0 0 0 0 0 0 0 0 0 0 0 0 0 0 5 1 0 0 0 2 0 4 7 2 1
80 80 103 111 117 105 57 18 42 58 56 27 1 7 1 12 6 3 0 0 1 0 0 0 0 0 1 9 0 1 3 0 0 0 0 0 2 0 0 0 0 3 2 5 3 1 0
73 69 96 109 101 77 37 16 28 49 45 11 0 4 1 2 9 0 0 0 0 1 0 0 2 1 0 6 8 5 1 0 0 0 0 1 23 2 1 0 0 2 2 0 3 0 0
72 75 94 90 86 75 29 14 28 39 54 12 20 17 0 0 1 2 3 0 0 0 0 0 0 0 1 10 2 0 0 0 0 0 0 2 13 3 4 3 1 1 2 4 1 4 4
67 76 80 81 53 66 31 12 21 24 48 20 5 9 27 2 3 9 2 1 0 0 0 0 0 2 7 6 0 0 0 0 2 2 1 15 7 9 0 0 0 3 6 11 8 9 0
58 78 80 69 46 51 36 12 13 16 48 26 21 16 18 20 15 1 1 0 0 0 0 0 0 8 1 0 0 0 0 0 0 0 0 6 6 7 2 2 0 3 11 0 6 9 4
52 65 50 73 46 44 33 11 11 12 41 14 14 11 9 13 5 16 6 0 0 1 1 4 7 0 3 6 21 7 2 0 0 0 0 0 7 7 14 9 0 0 0 0 2 0 1
25 49 68 66 53 41 29 9 3 8 30 2 0 4 5 9 1 2 3 3 9 6 11 5 1 2 0 10 24 12 10 0 0 0 0 0 4 11 1 2 0 0 0 0 0 0 0
48 49 53 62 64 49 32 7 6 9 27 4 1 3 5 0 0 0 5 2 9 1 2 0 1 1 4 9 19 23 1 0 0 0 1 3 3 4 5 14 0 0 0 0 0 0 0
51 57 51 61 46 45 36 4 6 13 32 9 0 0 8 0 0 0 0 0 0 0 1 1 8 5 13 21 9 19 5 3 0 0 0 0 1 6 0 0 0 0 0 0 0 0 0
33 53 55 42 38 44 18 3 7 22 31 20 6 0 0 1 0 0 0 0 0 0 0 5 8 14 28 7 0 3 1 0 0 0 0 0 0 0 0 0 0 0 0 0 0 0 0

GFSGBSN_con_sbcape_036.txt.gz
CAPE
21 23 24 24 20 18 30 15 17 21 28 22 20 9 16 59 91 117 54 20 1 0 0 0 3 2 3 5 3 0 0 0 0 59 40 3 0 0 2 0 0 0 0 0 0 0 0
19 19 16 23 26 26 27 26 34 34 31 43 32 12 18 6 49 98 100 39 4 0 0 0 0 2 0 0 0 0 0 0 4 31 50 25 5 0 1 1 0 1 0 0 0 0 0
15 22 20 19 23 38 43 37 31 41 40 54 56 51 27 10 25 60 120 64 12 0 0 0 0 0 0 0 0 0 0 0 0 34 59 16 0 0 7 11 7 2 0 0 0 0 0
32 39 50 53 50 42 25 17 28 40 48 55 59 52 39 27 16 17 79 116 71 40 0 0 0 0 0 0 0 0 0 0 0 6 44 26 21 10 11 1 2 0 0 0 0 0 0
53 58 51 65 85 89 66 45 39 20 46 64 73 63 63 48 46 20 56 150 98 62 28 20 0 0 0 0 0 0 0 0 0 0 0 41 25 13 10 11 7 3 0 0 0 0 0
55 32 39 63 78 96 68 84 90 92 47 68 95 110 77 72 38 51 22 116 74 59 56 51 5 1 0 0 0 0 0 0 0 0 0 4 2 8 0 3 0 0 0 0 0 0 0
36 28 48 49 71 89 81 84 88 92 110 112 128 126 111 72 51 44 22 1 0 1 11 0 1 0 0 0 0 0 0 0 0 10 14 8 13 1 0 0 0 0 0 1 1 0 0
38 62 76 72 56 84 78 102 118 108 126 158 169 124 153 83 75 32 63 10 0 0 1 0 0 0 0 0 0 0 0 0 0 7 12 8 5 0 0 0 4 6 6 3 0 0 0
59 67 73 67 74 89 93 119 120 102 96 138 144 120 114 84 61 43 50 53 0 0 0 0 0 0 0 0 0 0 0 0 0 3 1 1 0 0 0 3 10 9 7 2 0 0 0
60 54 59 68 93 83 94 118 93 82 46 101 120 137 139 97 57 25 36 47 0 0 7 0 5 0 1 4 0 0 0 0 0 0 5 7 1 0 0 2 1 1 0 0 0 2 1
63 58 73 83 87 88 110 125 88 57 68 110 174 240 166 125 45 35 48 2 0 0 13 0 16 10 12 0 0 5 0 2 6 0 0 0 0 4 6 0 1 1 1 1 5 9 3
55 69 65 72 86 97 118 104 81 44 86 99 150 74 144 116 89 4 44 0 9 14 1 19 21 41 29 11 11 13 11 18 9 7 5 3 0 0 3 0 1 1 8 9 11 21 17
49 71 76 72 92 115 112 107 86 33 107 97 65 60 111 73 8 45 39 11 3 19 0 18 13 38 17 16 36 19 27 20 13 21 21 8 8 4 1 8 7 15 28 12 14 24 1
62 59 77 93 111 118 109 110 88 42 42 66 58 74 100 40 98 79 47 0 12 1 4 7 18 27 17 10 13 12 23 19 21 9 13 9 2 5 6 8 5 15 17 10 1 0 0
59 75 80 98 121 120 124 100 80 25 116 78 88 95 139 151 143 80 5 17 4 0 1 4 10 9 3 4 1 7 10 7 3 8 5 10 0 0 3 1 7 21 18 1 22 23 30
70 81 93 101 123 123 122 87 57 18 100 97 25 126 92 126 87 27 3 15 0 0 0 2 2 1 3 3 3 2 1 0 3 7 6 6 8 0 1 1 6 16 7 12 38 8 1
61 78 86 104 129 129 107 73 19 24 66 68 12 73 77 132 8 0 5 5 8 0 0 0 0 3 2 4 4 2 2 0 0 0 18 7 1 2 5 9 3 7 20 34 6 16 12
61 76 82 102 118 112 86 26 16 36 56 19 14 32 41 68 1 6 4 16 7 0 0 0 0 0 0 1 2 5 0 0 0 0 5 2 11 15 1 0 0 0 1 9 30 0 9
56 77 73 91 107 87 63 7 14 39 68 9 30 24 20 65 11 19 6 15 0 0 0 0 0 0 0 0 0 3 2 0 0 0 0 8 24 5 0 0 0 7 0 0 19 13 20
50 68 77 79 89 66 49 9 7 23 29 76 17 11 1 1 10 5 29 16 3 0 0 0 0 0 0 2 0 9 2 0 0 0 0 8 12 0 0 0 3 20 2 2 6 17 3
50 61 81 72 76 63 42 8 8 24 19 33 16 18 8 25 25 19 20 11 4 1 0 0 0 0 0 1 2 11 0 0 0 0 2 3 22 5 0 0 0 5 10 9 2 4 9
50 55 61 71 60 49 39 11 7 37 26 10 9 36 10 1 0 18 5 3 0 0 0 0 0 0 1 0 0 5 2 2 7 1 3 8 16 24 8 0 3 4 6 5 2 3 2
53 51 54 38 67 36 23 23 5 22 29 22 13 10 34 10 8 19 9 1 0 0 0 0 0 1 5 0 0 1 7 4 10 14 19 9 11 8 16 0 2 8 8 6 6 2 5
37 27 44 44 64 30 24 21 3 10 39 24 25 22 15 20 12 7 3 0 0 0 1 3 1 5 3 0 0 2 2 20 29 14 15 17 7 12 29 4 8 7 1 2 3 6 2
50 49 48 32 56 37 21 16 1 6 20 15 11 9 10 12 11 9 7 5 1 0 0 9 10 1 16 10 9 27 18 15 4 0 0 6 10 38 42 12 0 0 0 0 1 3 1
28 41 44 39 59 34 15 8 0 8 14 13 2 9 17 24 12 5 18 4 7 8 12 10 7 7 15 25 25 15 1 0 3 7 0 0 4 22 26 4 6 0 0 0 0 5 0
12 23 36 43 41 19 28 4 0 5 21 17 1 11 7 49 9 3 17 13 5 15 11 1 6 21 19 16 18 31 12 3 4 2 14 8 10 9 13 8 0 0 0 0 0 0 0
9 12 22 32 37 39 20 5 1 5 20 7 0 2 8 7 13 1 2 0 0 4 2 4 4 10 15 18 29 11 5 13 2 0 3 3 6 20 18 17 0 0 0 0 0 0 0
7 5 9 12 10 6 7 5 2 6 13 6 10 0 4 7 28 0 0 0 0 0 0 0 2 3 11 26 19 44 18 15 0 9 0 1 0 2 0 0 0 0 0 0 0 0 0

GFSGBSN_con_sbcape_039.txt.gz
CAPE
14 17 15 24 23 27 33 41 35 24 28 26 25 36 32 14 11 17 98 126 28 6 4 0 0 0 2 1 19 1 0 0 7 94 63 23 14 21 16 2 0 0 0 0 0 0 0
13 22 23 16 20 22 27 24 23 23 34 30 37 45 53 46 15 11 30 125 70 15 4 0 0 0 1 0 0 0 0 0 6 52 76 31 23 13 19 15 0 2 0 0 0 0 0
25 36 54 38 42 12 20 34 35 24 23 39 46 38 44 53 33 11 12 114 109 46 8 0 0 1 4 0 0 0 0 0 29 16 52 40 20 0 13 8 11 1 0 0 0 0 0
34 66 47 45 49 60 76 55 49 46 49 39 41 60 57 57 56 40 53 80 149 87 6 3 0 0 2 0 0 0 0 0 18 74 64 6 1 12 4 0 0 0 0 0 0 0 0
63 35 32 54 55 55 61 70 73 82 94 74 55 60 91 99 85 65 38 50 55 54 19 24 1 0 2 0 0 0 0 8 25 36 49 50 17 15 7 9 12 6 0 0 0 0 0
47 45 54 59 64 58 69 77 74 89 83 91 91 104 125 105 81 76 45 53 78 76 67 41 8 0 0 0 0 0 0 15 17 13 28 22 14 6 11 25 5 2 1 0 0 0 0
36 58 60 46 65 68 78 80 108 95 107 97 131 126 129 121 140 81 63 44 77 77 58 4 0 0 0 0 0 0 0 11 13 18 7 8 8 0 0 0 0 0 0 0 0 0 0
53 64 82 68 68 73 94 104 131 126 112 103 72 162 152 136 139 86 53 42 38 10 10 4 0 0 0 0 0 0 0 5 18 20 4 7 7 0 0 0 0 0 1 0 0 0 0
67 79 58 72 75 84 104 125 149 122 97 75 46 121 141 101 123 84 50 5 15 6 19 15 4 3 0 0 4 0 0 3 7 17 6 15 0 0 0 0 0 0 0 0 0 0 0
43 53 70 75 68 85 109 140 149 125 94 52 54 134 141 106 49 59 57 2 41 13 16 1 11 3 7 3 5 4 0 0 7 11 15 18 3 0 0 0 0 1 0 0 0 0 0
35 64 79 72 85 110 134 151 148 109 90 56 49 86 90 96 54 68 55 46 13 49 37 6 8 13 15 0 2 13 6 10 10 1 0 1 0 2 1 0 0 0 1 0 0 3 1
45 62 65 82 97 105 132 143 141 102 78 91 48 61 108 123 211 103 83 122 39 8 16 15 15 9 9 12 15 16 19 15 9 2 7 6 1 2 2 0 1 1 2 2 1 2 8
38 73 85 91 107 105 121 126 103 80 61 78 58 93 73 131 128 165 103 47 21 17 1 20 17 23 9 6 17 27 26 22 10 12 10 8 4 3 0 2 4 4 12 7 9 15 0
61 65 77 92 97 108 121 107 83 61 46 95 67 80 145 143 126 88 13 13 61 7 5 4 24 36 20 10 15 20 28 14 6 3 0 2 5 3 2 3 4 5 9 1 0 0 0
59 64 73 75 95 105 112 85 72 20 67 109 55 36 179 142 145 4 11 20 76 4 5 6 29 34 27 14 10 27 25 12 6 2 3 3 0 0 2 6 2 8 9 1 12 6 3
55 63 63 73 93 99 83 72 35 28 77 59 40 43 124 146 112 44 13 17 3 2 1 10 6 2 10 19 15 13 11 3 0 5 8 3 3 0 8 4 7 4 4 6 26 6 0
56 58 71 71 73 73 56 59 22 27 41 36 25 27 148 191 157 18 30 24 8 3 0 7 5 2 1 8 0 2 1 0 4 3 1 7 2 1 3 5 2 4 11 10 8 11 6
50 56 70 71 56 55 47 41 15 13 43 12 17 20 77 18 23 7 17 21 11 6 2 6 7 2 3 6 0 4 5 1 0 0 2 2 13 5 0 0 0 3 4 5 14 0 0
51 61 64 64 52 42 37 27 5 11 41 43 6 22 33 58 32 10 4 24 15 2 6 7 2 1 0 4 0 3 2 0 0 0 5 2 10 3 0 0 2 5 0 0 7 11 20
52 57 55 59 54 27 29 21 4 5 36 90 6 19 31 40 33 18 22 13 5 7 9 1 0 0 1 4 1 1 3 0 0 0 1 7 11 1 0 18 2 13 0 3 4 15 2
43 53 52 47 53 17 29 22 4 9 8 19 51 34 10 9 34 45 37 1 4 6 4 2 0 1 0 2 5 3 2 4 1 0 0 8 11 7 6 1 0 2 3 3 2 2 2
24 28 24 35 56 14 21 12 3 13 3 7 8 25 23 11 7 20 3 9 5 0 1 8 11 0 0 0 3 4 6 2 0 2 3 4 24 45 4 0 0 9 3 4 4 3 3
42 42 49 42 49 17 11 13 2 7 13 14 11 9 27 5 13 7 8 21 13 6 0 1 3 3 1 1 0 3 0 5 10 10 11 30 20 9 3 0 0 2 5 9 10 5 15
32 27 44 47 31 26 8 13 2 7 23 23 16 11 13 11 10 17 7 11 8 13 18 3 1 3 5 3 0 4 1 0 2 17 20 22 10 10 28 0 9 4 0 0 0 0 8
19 15 32 53 23 16 12 12 2 5 21 21 12 7 11 22 14 4 4 9 7 2 12 12 3 9 12 14 10 11 15 16 8 12 22 14 11 43 17 5 0 1 0 0 0 1 0
9 14 19 31 26 19 18 6 1 2 11 5 5 8 18 19 8 10 16 0 2 11 10 15 9 12 11 29 14 23 1 8 4 4 0 7 13 31 8 20 3 0 0 0 0 0 0
9 8 9 19 24 25 13 2 1 5 12 2 4 8 10 9 14 25 11 13 9 10 17 17 14 13 9 8 39 33 20 11 17 19 16 4 16 8 13 15 1 0 0 0 0 0 0
5 9 6 2 5 4 2 1 0 7 10 7 0 9 8 4 18 18 22 26 2 29 9 8 3 4 8 20 23 15 10 12 1 4 10 7 9 13 20 31 3 0 0 0 0 0 0
6 10 7 4 5 9 6 5 11 2 5 4 7 0 3 7 22 0 7 0 1 1 7 1 3 0 12 10 9 32 23 15 9 6 0 6 0 22 9 4 2 0 0 0 0 0 0

GFSGBSN_con_sbcape_042.txt.gz
CAPE
26 26 29 31 28 21 23 28 23 26 30 45 38 33 36 32 51 43 13 11 43 160 34 4 0 0 0 20 6 8 7 6 58 90 50 18 1 0 0 0 0 0 0 0 0 0 0
33 23 67 27 45 55 51 39 39 36 28 37 42 48 26 43 46 49 30 9 10 161 55 14 0 0 0 0 1 0 0 0 0 75 68 61 13 7 11 4 1 1 0 0 0 0 0
45 54 34 40 37 57 64 68 59 64 78 64 59 61 45 38 40 59 52 16 18 118 77 40 0 0 0 0 0 0 0 0 6 34 81 68 14 0 8 15 2 8 0 0 0 0 0
44 49 43 48 65 73 86 66 68 59 82 90 88 88 55 45 77 84 63 42 13 62 87 49 0 3 2 0 0 0 0 0 4 32 54 14 0 5 4 0 0 0 0 0 0 0 0
42 41 48 72 69 52 80 71 85 84 93 119 86 100 109 87 94 81 82 63 17 26 124 68 17 12 0 0 0 0 0 0 7 5 63 24 14 1 0 0 5 1 0 0 0 0 0
24 55 45 68 57 71 87 101 108 124 128 130 137 153 138 98 148 127 84 48 28 50 94 78 49 10 0 0 0 0 0 7 14 28 60 48 20 4 16 7 1 0 0 0 0 0 0
47 70 78 51 61 81 89 106 119 132 162 149 158 96 96 159 189 144 118 55 73 53 65 25 0 0 0 0 0 0 0 8 7 31 4 8 5 0 1 5 0 0 0 0 0 0 0
74 41 44 59 75 75 90 111 134 165 178 155 116 67 91 94 167 165 96 25 10 20 52 15 6 11 0 0 0 0 0 8 7 4 1 1 0 0 0 0 0 0 0 0 0 0 0
32 44 49 67 79 93 113 128 160 170 161 102 76 44 74 182 71 45 38 18 80 45 15 12 22 17 0 0 0 0 0 5 4 8 7 3 0 0 0 0 0 0 0 0 0 0 0
60 65 48 82 98 100 113 122 150 159 126 96 65 51 69 87 43 14 7 39 70 73 7 23 17 24 1 3 1 0 0 0 6 5 10 3 0 0 0 0 0 0 0 0 0 0 0
54 48 68 73 85 102 102 123 131 141 104 69 47 35 47 77 62 5 61 93 57 23 2 12 7 26 3 0 0 0 0 5 6 1 1 0 0 0 0 0 0 0 0 0 0 0 0
68 46 66 79 85 85 102 109 104 81 62 60 44 28 63 30 152 26 98 68 17 4 2 21 2 14 33 29 8 0 8 0 1 1 0 1 0 0 0 0 0 0 0 0 0 0 0
63 56 62 73 71 82 97 93 74 63 34 26 36 30 42 58 40 151 70 38 10 14 4 31 12 10 12 22 19 13 8 1 0 0 1 0 0 0 0 1 0 0 1 0 1 1 0
32 51 59 80 74 78 80 73 69 31 34 56 60 76 31 118 153 5 29 31 2 18 10 1 22 13 19 17 18 22 18 7 2 0 2 0 2 2 0 0 0 0 3 0 0 0 0
27 56 66 72 69 70 71 71 51 18 34 61 43 26 137 194 93 0 0 8 4 3 0 16 30 26 13 11 6 18 12 9 3 4 2 0 0 0 0 1 0 2 0 0 1 0 0
25 55 65 72 75 67 64 62 41 20 40 47 24 29 149 125 33 19 6 35 3 2 3 20 10 9 9 3 14 22 21 2 0 1 0 2 2 0 3 0 1 0 0 0 3 0 0
35 51 67 67 72 63 49 33 31 20 32 62 18 2 126 103 41 25 14 1 3 6 6 9 0 0 2 11 4 3 0 0 1 0 0 0 1 0 0 0 0 1 0 1 1 0 0
24 59 65 58 67 60 35 34 16 22 69 9 28 11 73 58 10 6 3 9 8 10 11 4 3 0 1 5 5 1 0 0 1 1 0 0 6 1 0 0 0 1 0 0 1 0 0
25 57 39 48 45 59 19 40 8 13 47 54 9 21 62 25 8 6 1 9 2 8 9 9 5 2 1 0 0 0 1 0 0 0 4 0 6 0 0 0 0 0 0 0 0 0 0
38 36 40 37 43 49 23 30 3 7 21 9 6 24 8 27 40 7 24 21 14 21 16 1 0 0 1 1 0 1 0 0 0 0 0 1 3 0 0 0 0 0 0 0 1 0 0
34 54 56 46 34 50 28 24 2 19 4 18 33 17 5 22 27 6 10 14 0 4 6 8 8 12 4 0 1 0 1 0 0 0 0 0 1 1 0 0 0 0 0 0 0 0 1
29 44 47 48 36 50 18 21 2 17 2 1 3 11 17 1 0 19 0 4 16 13 16 1 12 0 0 2 2 0 1 0 0 0 4 3 2 0 0 0 0 0 0 0 0 0 1
30 25 27 35 39 39 19 19 2 13 14 6 5 5 4 7 2 4 13 14 11 9 2 0 0 0 1 0 0 0 0 0 0 0 2 7 3 0 1 0 0 0 0 0 0 0 6
20 17 20 24 34 29 30 15 4 9 22 15 9 6 4 3 4 2 3 7 11 29 2 0 0 3 1 0 0 0 0 0 3 10 4 6 1 1 3 0 0 0 0 0 0 0 0
16 14 14 14 27 32 34 15 6 7 13 4 4 6 6 19 13 4 4 4 24 2 3 1 1 2 0 3 0 1 1 0 0 1 6 11 3 8 5 0 0 0 0 0 0 0 0
18 15 10 10 11 12 17 11 6 4 10 0 6 5 8 7 9 6 2 0 0 5 1 10 6 9 0 8 5 0 0 0 1 2 1 9 11 24 0 0 0 0 0 0 0 0 0
18 16 10 10 7 8 10 4 7 14 4 0 8 2 5 2 24 12 9 3 9 7 14 23 13 13 7 13 4 1 0 2 14 20 15 15 15 12 6 7 0 0 0 0 0 0 0
16 19 12 11 12 10 14 13 9 12 3 2 2 1 4 3 0 30 14 30 19 24 5 2 4 2 6 11 14 0 0 2 0 5 0 1 7 5 3 6 0 0 0 0 0 0 0
19 18 13 15 17 21 22 21 19 16 7 5 13 0 2 5 1 10 13 3 0 0 6 0 5 0 2 4 7 2 6 0 6 7 0 1 0 0 0 0 0 0 0 0 0 0 0

GFSGBSN_con_sbcape_045.txt.gz
CAPE
36 38 54 42 31 38 36 52 55 53 74 73 57 58 65 74 47 38 54 63 40 26 37 110 23 10 22 19 2 6 368 75 98 72 47 11 11 0 0 0 0 0 0 0 0 0 0
35 44 44 32 56 59 66 63 67 66 67 70 96 110 76 53 51 31 49 59 53 37 43 131 34 59 11 8 0 0 0 15 57 65 48 59 3 0 0 0 0 0 0 0 0 0 0
62 25 43 50 48 80 63 60 70 72 89 92 94 92 100 84 62 64 72 78 63 27 6 145 55 31 12 0 0 0 0 0 0 25 51 57 46 7 3 0 0 0 0 0 0 0 0
45 42 60 43 55 68 49 74 87 103 107 112 123 150 160 145 120 96 85 66 65 19 11 42 60 25 10 0 0 0 0 0 0 14 64 44 6 2 1 0 0 0 0 0 0 0 0
32 47 68 67 38 41 63 75 95 110 136 135 172 177 181 165 133 130 139 87 60 10 15 117 57 18 4 0 0 0 0 0 5 40 14 9 0 0 0 0 0 0 0 0 0 0 0
37 63 38 37 50 72 89 93 114 141 154 158 164 172 159 126 130 137 165 132 64 19 76 72 41 26 3 0 0 0 0 0 5 66 35 18 1 0 0 0 0 0 0 0 0 0 0
40 30 38 37 67 79 95 111 123 128 146 149 139 107 122 92 104 92 48 5 14 61 110 11 6 0 0 0 0 0 0 0 30 45 0 15 0 0 0 0 0 0 0 0 0 0 0
22 68 67 28 74 83 100 112 116 116 131 122 102 75 69 76 156 107 41 6 15 23 2 0 4 4 0 0 0 0 0 2 21 9 0 0 0 0 0 2 0 0 0 0 0 0 0
29 51 40 54 68 89 89 94 99 97 105 99 65 62 45 69 91 36 14 8 69 36 2 22 15 7 0 0 0 0 0 2 4 9 0 0 0 0 0 0 0 0 0 0 0 0 0
33 41 50 61 69 70 80 75 78 73 67 60 57 52 47 64 75 9 9 0 22 9 4 9 23 7 6 9 0 0 0 0 7 1 4 2 0 0 0 0 0 0 0 0 0 0 0
45 36 48 56 69 68 72 73 62 60 60 32 34 47 53 65 19 42 29 0 2 0 0 9 26 22 21 1 0 0 0 1 0 2 0 0 0 0 0 0 0 0 0 0 0 0 0
49 29 59 62 75 66 67 63 50 56 25 23 15 30 74 8 26 5 38 1 11 11 0 17 4 38 24 13 1 0 0 0 0 8 3 0 0 0 0 0 0 0 0 0 0 0 0
29 32 56 71 69 66 58 51 46 34 28 26 35 86 77 52 31 0 2 8 0 0 3 16 11 13 26 26 0 2 4 0 0 0 0 0 0 0 0 0 0 0 0 0 0 0 0
15 23 60 68 72 71 62 56 41 28 40 60 51 155 8 87 103 1 12 5 0 0 16 8 23 14 30 15 16 13 1 0 0 0 0 0 0 0 0 0 0 0 0 0 0 0 0
16 33 52 72 72 65 57 35 31 39 73 90 98 0 45 21 11 0 1 0 2 25 3 16 9 5 5 9 8 10 1 0 0 0 0 0 0 0 0 0 0 0 1 0 0 0 0
18 43 53 60 62 58 46 21 30 36 84 114 4 2 5 16 0 0 7 39 2 14 14 3 3 3 15 20 5 12 7 0 0 0 0 0 0 0 3 1 0 0 0 0 0 0 0
22 39 34 42 51 49 27 22 22 17 58 73 0 8 44 33 0 16 7 3 6 8 5 8 0 3 0 4 3 10 0 0 0 0 0 0 0 0 0 0 0 0 5 1 0 0 0
19 43 58 39 43 46 18 20 13 24 57 14 0 11 12 11 0 1 3 3 22 2 0 7 0 0 0 1 4 4 0 0 0 0 0 0 0 0 0 0 0 0 0 0 0 0 0
19 36 65 55 57 31 12 10 5 15 48 0 7 7 1 4 4 1 1 3 1 24 32 24 6 0 1 4 0 6 0 0 0 0 0 0 0 0 0 0 0 0 0 0 0 0 0
17 30 34 55 52 33 6 12 0 2 11 0 0 0 0 3 2 2 12 5 8 12 8 0 0 0 1 5 0 0 0 0 0 0 15 1 0 0 0 0 0 0 0 0 0 0 0
20 30 24 33 48 24 12 12 0 4 3 1 0 0 0 1 4 4 11 0 4 2 0 3 3 0 3 2 0 0 0 0 0 0 0 0 0 0 0 0 0 0 0 0 0 0 0
19 19 21 21 35 28 19 10 1 6 3 0 0 1 0 0 0 3 0 0 11 0 0 2 0 0 0 0 0 0 0 0 0 0 0 0 0 0 0 0 0 0 0 0 0 0 1
21 19 18 15 24 38 23 9 2 4 7 7 1 0 3 0 0 0 0 0 4 1 0 0 0 0 0 0 0 0 0 0 0 0 0 4 1 0 0 0 0 0 0 0 0 0 0
16 20 19 12 10 23 19 9 3 1 11 6 7 6 3 0 0 0 2 1 0 0 0 0 0 0 0 0 0 0 0 0 0 0 0 1 0 0 0 0 0 0 0 0 0 0 0
17 22 19 17 6 7 4 3 2 4 5 0 5 7 6 1 0 0 0 4 4 0 0 0 0 0 0 0 0 2 0 0 0 1 1 2 0 0 1 0 0 0 0 0 0 0 0
23 18 16 16 14 10 11 5 2 8 0 0 1 7 6 8 0 0 3 0 2 2 4 10 1 2 0 2 1 2 0 0 0 3 0 3 10 1 0 0 0 0 0 0 0 0 0
17 27 15 13 16 17 13 11 9 6 1 0 0 0 5 4 0 12 13 0 1 5 10 13 6 8 1 0 0 0 0 0 0 0 15 7 26 4 5 4 0 0 0 0 0 0 0
13 31 22 15 15 22 20 19 12 12 6 0 0 1 3 4 0 4 26 31 14 13 0 0 2 0 0 4 0 0 0 0 0 0 0 1 4 27 15 0 0 0 0 0 0 0 0
20 27 27 17 18 11 27 11 22 8 11 2 2 2 7 5 0 0 1 1 8 1 1 0 0 0 2 6 0 0 0 0 0 13 0 0 0 0 0 0 0 0 0 0 0 0 0

GFSGBSN_con_sbcape_048.txt.gz
CAPE
37 61 18 28 43 28 64 60 65 62 82 88 97 97 95 112 63 59 38 37 44 52 37 7 41 70 52 13 0 0 250 82 47 51 13 0 8 0 0 0 0 0 0 0 0 0 0
45 35 24 45 56 60 63 38 63 70 93 91 94 112 131 162 133 87 75 51 61 52 41 24 9 86 0 4 0 0 70 51 112 75 45 38 24 0 0 0 0 0 0 0 0 0 0
21 27 27 60 36 28 38 54 61 73 90 117 124 138 165 160 181 157 111 86 72 68 30 4 1 44 3 0 0 0 22 97 124 74 23 36 44 2 0 0 0 0 0 0 0 0 0
22 38 73 35 25 37 63 68 84 92 108 118 127 154 177 166 187 173 136 165 100 74 34 3 12 72 0 0 0 0 0 0 0 4 83 84 46 3 0 0 0 0 0 0 0 0 0
33 40 31 35 32 47 73 80 89 102 93 94 109 150 147 156 158 143 148 134 134 101 48 6 13 28 0 0 0 0 0 0 33 19 59 102 25 10 0 0 0 0 0 0 0 0 0
49 31 56 54 47 65 75 75 85 91 86 86 94 100 100 115 80 118 116 64 84 69 24 21 38 8 0 0 0 0 0 0 22 95 71 36 5 4 0 0 1 0 0 0 0 0 0
35 39 70 38 61 66 72 83 66 85 81 86 83 65 58 79 103 153 25 0 0 20 83 0 4 1 0 0 0 0 0 0 46 5 11 18 1 2 0 0 0 0 0 0 0 0 0
45 48 53 65 60 67 66 75 72 68 65 65 60 52 61 50 58 105 0 7 0 11 4 6 12 2 0 0 0 0 0 3 36 1 0 2 0 0 0 0 0 0 0 0 0 0 0
42 53 40 60 58 68 75 73 75 60 61 52 30 29 42 42 33 12 0 4 8 8 8 13 18 8 4 0 0 0 0 1 2 0 0 0 0 0 0 0 1 0 0 0 0 0 0
39 17 37 65 61 65 67 65 65 67 58 28 36 29 25 49 3 0 6 3 2 10 1 40 35 31 18 3 0 0 1 0 1 1 0 0 0 0 0 0 0 0 0 0 0 0 0
48 27 42 64 66 85 83 68 75 66 58 42 43 44 52 70 7 4 57 0 4 9 0 3 28 7 22 1 0 0 0 0 0 0 0 0 0 0 0 0 0 0 0 0 0 0 0
34 23 29 58 65 71 65 68 67 44 39 64 55 87 162 60 33 1 47 19 4 0 0 6 19 8 17 0 0 1 4 0 0 0 0 0 0 0 0 0 0 0 0 0 0 0 0
24 30 21 63 54 61 72 62 43 45 62 50 65 144 140 77 28 0 9 10 0 0 1 5 18 20 4 6 0 8 1 0 0 0 0 0 0 0 0 0 0 0 0 0 0 0 0
25 25 44 41 57 51 68 49 43 46 59 79 122 32 6 73 52 0 4 0 0 1 0 6 2 17 34 0 8 8 0 0 0 0 0 0 0 0 0 0 0 0 0 0 0 0 0
11 31 23 46 45 49 72 36 35 26 49 88 19 0 1 13 0 0 1 0 2 7 5 21 15 5 28 6 13 1 0 0 0 0 0 0 0 0 0 0 0 0 0 0 0 0 0
18 29 29 33 50 24 58 32 24 20 75 58 0 0 30 31 0 0 5 15 7 1 7 0 1 0 9 5 10 3 0 0 0 0 0 0 0 0 0 1 0 0 0 0 0 0 0
8 27 29 52 56 17 32 28 19 42 94 1 0 0 17 7 1 1 1 8 4 8 5 1 0 0 0 0 0 0 0 0 0 0 0 0 0 0 0 0 0 0 0 0 0 0 0
17 20 20 26 44 24 14 24 14 28 34 0 0 3 0 2 0 3 5 8 5 6 0 0 0 0 0 0 0 0 0 0 0 0 0 0 0 0 0 0 0 0 0 0 0 0 0
14 25 7 19 31 20 12 15 6 11 9 0 0 0 0 0 2 2 3 2 7 5 3 11 0 0 0 0 0 0 0 0 0 0 0 0 0 0 0 0 0 0 0 0 0 0 0
9 20 5 11 19 26 15 9 4 1 3 0 0 0 0 0 0 2 6 1 3 8 0 0 0 0 0 1 0 0 0 0 0 1 21 0 0 0 0 0 0 0 0 0 0 0 0
8 15 5 7 11 29 21 10 4 1 0 0 0 0 0 0 8 0 0 0 2 1 0 0 0 0 5 1 0 0 0 0 0 0 0 0 0 0 0 0 0 0 0 0 0 0 0
8 11 4 3 5 16 15 10 4 8 0 0 0 1 1 0 0 0 0 0 0 0 0 0 0 0 0 0 0 0 0 0 0 0 0 0 0 0 0 0 0 0 0 0 0 0 0
1 16 8 4 4 3 4 4 5 9 0 0 1 0 5 0 0 0 0 0 0 0 0 0 0 0 0 0 0 0 0 0 0 0 0 0 0 0 0 0 0 0 0 0 0 0 0
0 14 7 9 3 3 3 2 6 9 2 0 7 4 1 0 0 0 0 0 0 0 0 0 0 0 0 0 0 0 0 0 0 0 0 0 0 0 0 0 0 0 0 0 0 0 0
0 13 9 12 6 3 4 3 3 8 4 0 0 5 5 0 0 0 0 0 0 0 0 0 0 0 0 0 0 1 1 0 0 1 0 0 0 0 0 0 0 0 0 0 0 0 0
4 6 15 10 14 6 5 5 7 3 4 0 1 0 4 3 0 0 0 0 0 0 0 10 0 0 0 0 0 1 0 0 0 3 0 1 1 1 0 0 0 0 0 0 0 0 0
7 5 25 17 15 11 11 6 10 8 4 0 0 0 2 5 0 0 3 1 1 0 3 14 7 3 0 0 1 0 0 0 0 1 14 21 28 14 0 1 0 0 0 0 0 0 0
7 10 23 17 23 17 7 12 9 12 7 1 0 0 0 3 0 0 28 13 11 8 3 1 1 0 0 1 0 0 0 0 0 0 0 1 1 14 4 2 0 0 0 0 0 0 0
8 11 24 17 27 23 19 26 19 16 3 3 0 3 13 3 0 0 0 0 2 5 5 0 0 0 0 0 1 0 0 0 0 16 0 0 0 0 0 0 0 0 0 0 0 0 0

GFSGBSN_con_sbcape_051.txt.gz
CAPE
35 41 21 25 72 35 29 31 49 52 77 85 94 97 106 148 167 180 124 111 76 65 41 45 23 28 40 17 0 0 25 401 0 13 16 23 0 0 0 0 0 0 0 0 0 0 0
38 30 54 68 26 25 35 60 73 79 82 85 91 77 108 120 153 171 151 148 143 79 71 63 30 13 26 0 0 0 0 165 1 115 28 11 3 0 0 0 0 0 0 0 0 0 0
21 26 41 28 44 49 51 68 73 80 93 83 83 79 106 142 164 185 184 183 178 133 111 72 42 6 13 0 0 0 192 145 185 136 58 1 1 16 0 0 0 0 0 0 0 0 0
26 37 25 56 53 50 60 69 65 76 72 82 79 80 96 134 128 187 200 190 209 175 106 67 52 14 20 0 0 0 0 105 90 72 59 57 61 6 0 0 0 0 0 0 0 0 0
52 33 49 67 42 61 75 65 71 62 73 74 71 74 83 81 120 157 163 202 200 144 126 79 44 13 0 1 0 0 0 0 5 25 60 99 70 14 0 1 0 0 0 0 0 0 0
36 47 39 42 56 65 67 80 74 88 82 77 61 63 62 51 88 113 181 146 32 77 61 69 75 4 0 0 0 0 0 24 124 127 114 132 93 2 0 0 0 0 0 0 0 0 0
37 45 49 38 53 59 64 78 100 85 77 88 72 66 61 65 63 94 9 0 0 8 62 26 35 0 0 0 0 0 0 11 122 48 100 14 23 10 2 0 0 0 0 0 0 0 0
32 42 29 31 61 71 69 82 93 94 81 75 45 12 33 29 77 99 0 2 1 6 0 25 3 0 0 0 0 0 0 18 87 16 8 9 1 0 8 1 1 0 0 0 0 0 0
40 37 23 41 62 72 75 74 87 73 71 29 28 45 28 29 71 1 0 0 2 5 7 4 1 1 0 4 0 0 0 9 15 0 0 3 0 0 0 8 8 0 0 0 0 0 0
28 16 25 47 80 69 74 71 80 59 22 37 58 67 89 139 7 0 0 21 0 1 0 6 6 1 14 8 0 0 0 2 5 0 0 0 0 0 0 0 0 0 0 0 0 0 0
28 36 25 56 70 68 69 84 60 27 63 59 69 123 201 142 5 3 17 0 0 1 0 3 11 41 25 8 0 0 0 0 0 0 0 0 0 0 0 0 0 0 0 0 0 0 0
29 24 30 46 38 53 62 71 35 63 65 77 129 150 62 97 65 15 18 7 3 0 0 7 25 7 10 1 6 1 6 0 0 0 0 0 0 0 0 0 0 0 0 0 0 0 0
18 18 37 36 48 50 46 74 41 35 56 90 209 98 46 108 39 6 1 6 0 0 4 4 16 19 6 25 23 13 0 0 0 2 0 0 0 0 0 0 0 0 0 0 0 0 0
18 17 25 60 36 42 37 45 34 29 54 162 80 1 16 2 0 0 0 0 0 0 1 3 11 14 21 27 7 8 0 0 0 0 0 0 0 0 0 0 0 0 0 0 0 0 0
14 16 26 33 57 19 44 38 15 31 89 88 0 0 0 18 0 0 1 0 1 2 4 21 5 2 33 9 7 4 0 0 0 0 0 0 0 0 0 0 0 0 0 0 0 0 0
10 14 24 18 33 27 29 37 10 29 65 0 0 0 0 6 0 0 1 3 5 7 3 0 0 6 2 4 2 1 0 0 0 0 0 0 0 0 0 0 0 0 0 0 0 0 0
14 14 10 16 20 14 24 26 10 11 21 0 0 0 0 0 0 0 0 9 5 9 2 0 0 0 0 0 0 0 0 0 0 0 0 0 0 0 0 0 0 0 0 0 0 0 0
18 13 6 10 13 13 24 20 3 11 10 0 0 0 1 0 0 1 5 6 0 1 0 0 0 0 0 0 0 0 0 0 0 0 0 0 0 1 0 0 0 0 0 0 0 0 0
13 13 5 7 7 12 19 15 3 7 7 0 0 0 0 0 0 0 2 1 0 1 0 0 0 0 0 0 0 0 0 0 0 0 0 0 0 0 0 0 0 0 0 0 0 0 0
8 14 5 7 4 5 10 11 2 4 2 0 0 0 0 0 0 2 2 0 2 0 0 0 0 0 0 0 0 0 0 0 0 0 0 0 0 0 0 0 0 0 0 0 0 0 0
10 14 2 4 4 3 2 4 5 1 0 0 0 0 1 0 0 0 0 0 0 0 0 0 0 0 0 0 0 0 0 0 0 7 0 0 0 0 0 0 0 0 0 0 0 0 0
8 15 4 2 4 2 2 3 6 3 0 0 0 0 0 0 0 0 0 0 0 0 0 0 0 0 0 0 0 0 0 0 0 0 0 0 0 1 0 0 0 0 0 0 0 0 0
8 9 11 1 4 4 2 3 4 7 0 0 1 0 3 0 0 0 0 0 0 0 0 0 0 0 0 0 0 0 0 0 0 0 0 0 0 0 0 0 0 0 0 0 0 0 0
7 9 13 0 3 4 4 2 4 4 2 0 6 7 0 0 0 0 0 0 0 0 0 0 0 0 0 0 0 0 0 0 0 0 0 0 0 0 0 0 0 0 0 0 0 0 0
4 5 19 3 4 1 5 5 6 3 2 0 0 5 3 0 0 0 0 0 0 0 0 0 0 0 0 0 0 0 0 0 0 0 0 0 0 0 0 0 0 0 0 0 0 0 0
7 4 8 17 0 6 3 7 7 7 0 0 0 4 3 9 0 0 0 0 0 0 0 0 0 0 0 0 0 0 0 0 0 2 0 0 0 0 0 0 0 0 0 0 0 0 0
8 6 7 23 3 11 8 7 5 8 5 0 0 1 3 5 0 0 0 0 0 0 0 2 4 1 0 0 1 0 0 0 0 1 19 34 29 6 8 1 0 0 0 0 0 0 0
6 7 13 18 1 16 17 6 10 9 9 0 0 3 5 4 0 0 0 2 0 1 0 0 0 2 0 3 1 0 0 0 0 0 0 0 4 12 7 9 0 0 0 0 0 0 0
5 13 8 22 0 10 15 23 15 26 7 1 0 4 18 5 0 0 0 0 0 2 5 0 0 0 1 4 0 0 0 0 0 2 0 0 0 0 0 0 0 0 0 0 0 0 0

GFSGBSN_con_sbcape_054.txt.gz
CAPE
41 19 23 38 24 60 45 60 61 68 75 87 92 83 71 72 71 89 110 141 174 183 137 67 54 51 44 20 0 0 5 3 17 3 4 34 2 1 5 0 0 0 0 0 0 0 0
36 29 42 24 64 53 57 61 64 65 73 98 94 65 62 74 70 100 145 182 219 197 164 128 75 59 55 5 0 0 0 120 7 41 34 36 9 0 0 0 0 0 0 0 0 0 0
22 27 29 36 49 50 57 61 60 63 85 77 90 78 73 66 72 106 153 235 229 221 209 174 93 55 53 2 0 0 0 181 12 107 51 68 0 0 0 0 0 0 0 0 0 0 0
30 31 28 42 44 58 63 67 78 107 83 93 75 66 65 56 57 76 155 256 243 253 235 156 83 60 30 0 0 0 0 114 125 208 181 94 1 12 1 0 0 0 0 0 0 0 0
25 22 37 41 39 56 68 81 79 92 105 103 80 98 78 76 60 81 166 209 283 290 229 189 41 46 48 5 0 0 0 204 203 101 102 146 58 24 5 0 0 0 0 0 0 0 0
17 18 32 37 29 69 73 75 81 95 104 93 84 90 52 17 32 95 154 170 128 102 115 113 68 46 8 0 0 0 0 48 139 103 124 136 40 31 2 3 0 2 0 0 0 0 0
19 29 34 23 30 62 75 78 67 73 88 86 65 40 27 17 32 118 7 0 0 0 34 19 0 20 1 0 0 0 0 117 125 116 157 70 12 16 8 3 0 0 0 0 0 0 0
19 25 30 40 30 69 64 68 69 78 77 27 11 14 58 95 33 99 0 0 0 3 1 20 0 17 2 0 3 0 0 39 72 62 15 42 0 3 9 0 1 0 0 0 0 0 0
10 24 25 44 44 39 59 69 70 54 25 63 82 100 149 152 155 0 0 0 1 4 2 5 1 1 2 4 3 0 0 18 23 16 5 4 8 28 14 2 6 0 0 0 0 0 0
15 30 22 42 42 54 58 73 58 22 67 73 119 244 267 233 23 1 0 0 0 0 0 0 6 4 10 18 1 0 9 18 15 1 0 0 1 26 5 1 0 0 0 0 0 0 0
17 19 27 35 56 39 47 46 34 45 76 89 188 239 125 74 2 10 0 0 0 0 0 0 8 13 11 16 0 1 0 1 1 1 0 0 0 0 4 0 0 0 0 0 0 0 0
14 17 20 44 56 62 49 40 28 60 93 104 85 113 112 1 30 14 0 0 0 0 0 9 15 14 16 5 4 10 6 0 0 0 0 0 0 0 0 0 0 0 0 0 0 0 0
11 18 25 39 28 43 42 34 34 42 111 77 19 3 5 13 1 0 0 0 0 0 3 8 7 8 12 30 19 15 1 0 1 0 0 0 0 0 0 0 0 0 0 0 0 0 0
10 18 27 16 24 28 25 28 19 32 48 80 16 1 6 2 0 0 0 0 0 1 2 3 19 12 17 18 26 10 0 0 0 0 0 0 0 0 0 0 0 0 0 0 0 0 0
9 21 31 17 18 23 20 13 7 17 27 57 0 0 5 12 0 0 0 0 2 3 2 13 2 4 17 10 23 8 0 0 0 0 0 0 0 0 0 0 0 0 0 0 0 0 0
4 17 23 19 13 19 20 8 6 8 10 1 0 0 0 0 0 0 0 3 2 3 0 0 1 0 3 10 4 0 0 0 0 0 0 0 0 0 0 0 0 0 0 0 0 0 0
4 17 11 18 10 12 17 9 3 8 6 0 0 0 0 1 0 0 0 4 3 5 0 0 0 0 0 0 0 0 0 0 0 0 0 0 0 0 0 0 0 0 0 0 0 0 0
5 12 19 14 8 6 8 7 2 10 7 0 0 0 0 0 0 2 0 4 0 2 0 0 0 0 0 0 0 0 0 0 0 0 0 0 0 0 0 0 0 0 0 0 0 0 0
5 9 12 13 6 5 4 5 2 9 5 0 0 0 0 0 0 0 0 0 0 0 0 0 0 0 0 0 0 0 0 0 0 0 0 0 0 0 0 0 0 0 0 0 0 0 0
3 8 16 15 8 5 4 4 1 3 2 0 0 0 0 0 0 0 1 0 0 0 0 0 0 0 0 0 0 0 0 0 0 0 0 0 0 0 0 0 0 0 0 0 0 0 0
1 4 20 15 11 4 5 3 2 0 0 0 0 0 2 0 0 0 0 0 0 0 0 0 0 0 0 0 0 0 0 0 0 1 0 0 0 0 0 0 0 0 0 0 0 0 0
1 3 9 14 12 5 4 4 3 0 0 0 0 2 0 0 0 0 0 0 0 0 0 0 0 0 0 0 0 0 0 0 0 0 0 0 0 0 0 0 0 0 0 0 0 0 0
3 4 5 13 8 9 4 4 4 1 0 0 1 0 2 0 0 0 0 0 0 0 0 0 3 0 0 0 0 0 0 0 0 0 0 0 0 0 0 0 0 0 0 0 0 0 0
3 3 6 19 2 5 7 4 4 3 0 0 3 6 1 0 0 0 0 0 0 0 0 0 0 0 0 0 0 0 0 0 0 0 0 0 0 0 0 0 0 0 0 0 0 0 0
1 5 7 11 9 1 4 7 2 5 1 0 0 6 5 0 0 0 0 0 0 0 0 0 0 0 0 0 0 0 0 0 0 0 0 0 0 0 0 0 0 0 0 0 0 0 0
3 4 6 10 32 2 0 3 4 4 2 0 1 1 4 4 0 0 0 0 0 0 0 0 0 0 0 0 0 0 0 0 0 2 0 0 0 0 2 0 0 0 0 0 0 0 0
7 4 7 8 28 9 11 5 2 0 4 0 0 0 3 6 0 0 0 0 0 0 0 0 0 0 0 0 0 0 0 0 1 0 27 6 18 0 2 4 0 0 0 0 0 0 0
3 4 8 5 19 6 13 17 8 3 9 0 0 8 4 7 0 0 0 0 0 0 0 0 0 0 1 2 0 0 0 0 0 0 2 0 0 9 2 12 0 0 0 0 0 0 0
3 3 6 5 7 17 0 10 31 10 21 1 0 1 10 5 4 0 0 0 0 0 0 0 0 0 0 1 0 0 0 0 0 12 0 0 0 0 0 0 0 0 0 0 0 0 0

GFSGBSN_con_sbcape_057.txt.gz
CAPE
23 27 52 48 25 50 39 52 53 55 61 74 82 92 98 76 84 67 59 53 82 138 175 192 132 90 67 34 6 0 0 0 75 8 0 34 12 27 16 0 0 0 0 0 0 0 0
34 33 21 45 38 50 55 60 70 65 75 94 100 100 104 87 84 82 70 62 148 227 225 259 190 126 55 67 1 0 0 0 13 30 8 87 5 0 10 0 0 0 0 0 0 0 0
32 32 30 29 64 28 57 79 82 88 83 105 116 107 117 97 89 60 64 136 251 271 258 292 219 114 53 8 0 0 0 2 37 33 47 147 2 12 0 0 0 0 0 0 0 0 0
22 22 32 55 43 33 57 84 93 87 90 97 101 115 143 115 117 87 85 170 268 292 276 224 203 63 14 52 0 0 0 79 29 93 151 245 24 0 0 0 0 0 0 0 0 0 0
23 28 41 39 25 41 70 83 87 84 77 88 123 107 140 88 39 33 124 241 294 318 311 212 76 34 23 86 2 0 0 41 65 205 258 168 39 24 0 0 0 0 0 0 0 0 0
15 21 34 35 22 41 59 62 72 75 91 91 69 48 30 22 63 35 161 202 152 104 125 163 31 16 0 12 20 0 0 14 145 214 140 92 71 36 4 0 0 1 0 0 0 0 0
19 33 30 25 40 49 67 45 64 107 71 52 66 87 96 117 129 60 3 0 0 0 4 0 0 2 37 42 21 0 0 156 169 92 20 65 49 7 8 4 0 0 0 0 0 0 0
14 21 19 25 42 66 61 38 60 66 60 103 141 152 188 153 145 83 0 0 2 0 0 2 18 1 21 26 45 0 0 77 77 42 81 27 29 17 0 0 0 0 0 0 0 0 0
14 18 19 30 63 82 70 46 66 46 86 127 208 228 249 212 70 23 0 0 0 4 3 27 11 15 33 23 8 1 0 36 68 44 0 2 2 47 0 18 14 0 0 0 0 0 0
16 20 19 28 60 50 34 49 53 41 79 93 177 213 127 6 1 2 0 0 0 0 0 2 40 21 54 28 16 0 18 24 7 4 0 6 3 44 13 24 18 5 0 0 0 0 0
16 15 17 37 33 38 53 36 44 23 65 41 39 144 102 11 2 7 0 0 0 0 0 0 22 32 9 6 0 2 5 4 0 13 0 0 17 0 3 5 0 0 0 0 0 0 0
13 14 17 27 28 33 29 30 28 15 21 33 16 15 20 0 5 2 0 0 0 0 0 13 8 12 3 15 5 31 7 0 0 0 0 0 0 0 0 1 0 0 0 0 0 0 0
10 11 15 13 19 26 20 18 13 13 7 30 9 10 0 1 0 0 0 0 0 0 0 2 5 6 9 19 17 19 3 0 1 0 0 0 0 0 0 0 0 0 0 0 0 0 0
8 11 20 8 11 19 19 13 13 10 8 4 1 0 6 0 0 0 0 0 0 0 0 2 29 31 37 1 3 6 4 0 0 0 0 0 2 0 0 0 0 0 0 0 0 0 0
7 9 15 10 7 13 15 17 12 11 3 5 0 0 0 0 0 0 0 0 5 1 1 11 5 6 24 12 6 4 0 0 0 0 0 0 0 0 0 0 0 0 0 0 0 0 0
7 8 13 11 5 9 10 7 9 8 3 2 0 0 0 0 0 0 0 5 3 3 0 0 0 0 12 17 19 0 0 0 0 0 0 0 0 0 0 0 0 0 0 0 0 0 0
6 8 12 10 8 7 7 5 6 7 5 0 0 0 0 0 0 0 0 0 1 1 0 0 0 0 0 0 0 0 0 0 0 0 0 0 0 0 0 0 0 0 0 0 0 0 0
6 10 18 6 9 6 7 4 5 8 5 0 0 0 0 0 0 0 0 0 0 0 0 0 0 0 0 0 0 0 0 0 0 0 0 0 0 0 0 0 0 0 0 0 0 0 0
5 9 13 10 6 5 6 2 1 8 11 0 0 0 0 0 0 0 0 0 0 0 0 0 0 0 0 0 0 0 0 0 0 0 0 0 0 0 1 0 0 0 0 0 0 0 0
4 6 8 15 6 6 5 4 1 1 3 0 0 0 0 0 0 0 0 0 0 0 0 0 0 0 0 0 0 0 0 0 0 0 0 0 0 0 0 0 0 0 0 0 0 0 0
3 4 8 21 8 4 5 4 1 0 0 0 0 0 1 0 0 0 0 0 0 0 0 0 0 0 0 0 0 0 0 0 0 0 0 0 0 0 0 0 0 0 0 0 0 0 0
2 3 8 15 7 5 3 3 3 0 0 0 0 0 0 0 0 0 0 0 0 0 0 0 0 0 0 0 0 0 0 0 0 0 0 0 0 0 0 0 0 0 0 0 0 0 0
3 2 5 8 20 6 1 2 4 0 0 0 0 0 4 0 0 0 0 0 0 0 1 0 0 0 0 0 0 0 0 0 0 0 0 0 0 0 0 0 0 0 0 0 0 0 0
4 4 5 5 25 7 0 1 3 4 0 0 1 4 2 0 0 0 0 0 0 0 0 0 0 0 0 0 0 0 0 0 0 0 0 0 0 0 0 0 0 0 0 0 0 0 0
2 2 1 5 6 20 0 3 0 3 2 0 0 4 8 2 0 0 0 0 0 0 0 0 0 0 0 0 0 0 0 0 0 0 0 0 0 0 0 0 0 0 0 0 0 0 0
2 5 3 5 2 28 3 6 0 0 2 0 0 0 4 14 0 0 0 0 0 0 0 0 0 0 0 0 0 0 0 0 0 3 0 0 0 0 0 0 0 0 0 0 0 0 0
9 2 1 5 5 17 7 13 2 0 2 0 0 0 3 16 0 0 0 0 0 0 0 0 0 0 0 0 0 0 0 0 0 0 1 1 1 0 0 0 0 0 0 0 0 0 0
9 3 4 5 8 8 21 7 15 11 5 0 0 1 4 8 0 0 0 2 0 0 0 0 0 0 0 0 0 0 0 0 0 0 0 0 0 0 0 1 0 0 0 0 0 0 0
11 6 2 6 8 8 17 28 6 23 10 0 0 0 1 0 6 0 0 0 0 2 0 0 0 0 0 0 0 0 0 0 0 15 0 0 0 0 0 0 0 0 0 0 0 0 0

GFSGBSN_con_sbcape_060.txt.gz
CAPE
18 31 30 37 43 47 22 46 81 91 98 96 85 102 105 115 116 103 98 96 72 61 77 101 109 95 77 45 0 18 1 199 342 143 41 52 81 65 32 17 3 0 0 0 0 0 0
30 15 26 43 50 36 30 66 94 93 106 96 100 108 134 171 176 148 106 82 95 137 172 172 190 169 86 24 0 2 0 0 50 152 26 92 57 70 48 24 6 0 0 0 0 0 0
30 29 29 27 38 47 50 70 61 81 92 109 115 123 171 201 171 183 161 167 107 182 222 252 270 159 103 2 64 43 1 8 98 213 6 109 126 95 47 26 6 1 0 0 0 0 0
11 11 31 35 23 51 53 57 48 74 90 104 119 122 79 111 116 68 33 49 200 265 295 295 225 100 13 3 0 0 0 3 44 260 37 206 189 154 26 16 6 1 1 0 0 0 0
15 24 31 26 35 53 45 61 25 64 87 72 86 90 56 42 24 55 48 133 273 279 294 259 95 55 45 60 28 8 44 34 44 236 151 246 119 81 40 30 24 13 0 0 0 0 0
13 20 23 23 31 46 71 54 33 63 61 106 174 189 174 154 114 68 91 140 111 164 210 139 18 39 6 16 143 45 1 80 199 250 118 146 102 88 81 37 1 1 0 0 0 0 0
16 21 16 22 27 34 35 41 59 57 76 113 157 180 214 199 130 116 53 0 0 156 126 46 16 12 39 154 185 12 0 0 273 94 55 74 30 40 28 12 0 3 1 0 0 0 0
20 17 13 21 31 29 34 52 49 52 77 91 111 148 156 127 98 35 11 0 2 1 9 17 31 11 0 61 53 11 0 99 124 54 36 60 30 29 47 30 4 0 0 0 0 0 0
13 9 16 23 21 21 27 41 46 48 61 39 37 86 67 27 10 9 12 0 2 2 29 37 27 3 0 43 21 17 8 43 49 16 51 26 3 21 37 28 17 7 0 0 0 0 0
10 7 14 26 19 18 19 34 33 39 47 23 12 13 5 0 7 10 4 11 8 3 36 3 12 5 23 19 14 6 0 30 10 20 3 4 0 44 35 32 17 14 0 0 0 0 0
11 7 11 14 15 14 15 27 24 26 31 25 0 1 0 0 13 8 13 0 0 3 22 12 14 6 30 12 1 7 38 0 4 11 5 4 3 48 59 26 41 2 0 0 0 0 0
8 6 11 12 12 13 11 12 14 10 20 10 1 0 0 0 4 7 0 0 1 16 11 11 15 5 12 12 16 35 7 0 1 1 0 5 2 0 2 4 0 0 0 0 0 0 0
7 7 8 11 12 12 9 11 14 11 13 10 11 0 0 0 0 0 0 10 4 7 4 8 11 2 15 16 22 2 13 18 10 14 9 1 8 1 2 1 2 0 0 6 1 2 0
5 4 8 9 9 9 9 7 9 11 11 4 3 0 0 0 0 0 1 4 4 2 4 2 7 21 19 8 11 5 1 1 0 0 5 22 12 4 0 0 1 0 0 4 0 0 0
7 4 6 7 6 6 8 8 9 8 18 5 0 0 0 0 0 0 5 4 11 4 1 19 3 6 16 15 10 5 0 0 0 0 0 0 4 0 0 0 0 0 1 0 0 0 0
6 4 5 5 6 5 6 6 6 10 17 5 0 0 0 0 0 0 4 8 33 2 0 0 0 3 1 0 1 4 0 0 0 0 0 0 5 0 0 0 0 0 0 0 0 0 0
4 5 3 8 3 5 3 3 4 8 8 0 0 0 0 0 0 0 0 7 8 1 0 0 0 0 3 2 2 0 0 0 0 0 0 0 0 2 0 0 0 0 0 0 0 0 0
4 5 1 9 2 5 3 2 2 5 8 0 0 0 0 0 0 3 3 1 0 0 0 0 0 1 3 0 2 0 0 0 0 0 0 0 1 4 3 0 0 0 0 0 0 0 0
6 4 2 8 0 4 5 3 1 2 6 11 0 0 0 0 0 2 0 0 0 0 0 0 0 0 0 0 0 0 0 0 0 0 0 0 0 5 3 0 0 0 0 0 0 0 0
3 4 2 0 5 3 5 3 1 0 1 0 0 0 0 0 0 0 0 0 0 0 0 0 0 0 0 0 0 0 0 0 0 0 0 0 0 0 0 0 0 0 0 0 0 0 0
4 4 4 0 3 3 2 1 0 0 0 0 1 2 2 1 0 0 0 0 0 0 0 0 0 0 0 0 0 0 0 0 0 0 0 0 0 0 0 0 0 0 0 0 0 0 0
3 3 4 1 10 0 1 0 0 0 0 0 5 4 1 0 0 0 0 0 0 0 0 0 0 0 0 0 0 0 0 0 0 0 0 0 0 0 0 0 0 0 0 0 0 0 0
3 5 4 5 2 2 0 0 0 0 0 7 1 2 6 0 0 0 0 0 0 0 0 0 0 0 0 0 0 0 0 0 0 0 0 0 0 0 0 0 0 0 0 0 0 0 0
5 5 3 1 5 14 0 0 0 0 0 1 5 9 6 1 0 0 0 0 0 0 0 0 0 0 0 0 0 0 0 0 0 0 0 0 2 0 0 0 0 0 0 0 0 0 0
6 5 1 2 4 4 2 0 0 0 0 0 8 9 18 3 1 0 0 0 0 0 0 0 0 0 0 0 7 5 5 2 1 0 0 0 0 1 1 0 0 0 0 0 0 0 0
8 3 3 1 4 2 14 0 0 0 0 0 0 0 10 30 0 0 1 0 0 0 0 0 0 0 0 0 1 1 8 0 7 2 0 0 0 4 3 2 0 0 0 0 0 8 0
7 9 5 3 6 2 9 8 5 0 0 0 0 0 12 29 2 3 2 2 0 0 0 0 0 0 0 4 9 1 2 0 1 4 4 10 8 16 12 8 0 0 0 0 11 3 0
4 10 6 6 4 6 3 15 6 4 10 1 0 0 7 12 1 0 0 4 3 0 1 0 1 2 1 24 11 4 2 0 1 0 0 1 6 7 2 6 0 0 0 15 1 0 0
10 7 8 6 7 10 8 5 26 12 17 4 5 0 10 3 0 0 0 0 0 0 4 0 0 0 7 27 11 5 4 6 6 13 0 1 0 0 0 0 0 0 0 0 0 0 0

GFSGBSN_con_sbcape_063.txt.gz
CAPE
29 22 23 32 29 37 45 45 61 45 76 94 93 125 126 141 158 165 184 177 130 144 95 85 80 69 58 32 1 31 70 233 343 337 20 14 21 58 49 41 3 0 0 0 1 0 0
16 14 17 30 25 31 42 32 54 56 74 109 137 136 153 159 187 195 196 214 199 150 165 197 139 82 49 10 1 0 4 4 368 341 27 14 27 63 59 47 28 2 7 3 0 0 0
14 18 21 26 20 29 50 67 45 29 62 88 112 98 105 62 29 70 94 82 145 180 197 224 210 144 65 1 19 270 74 0 35 248 25 25 56 107 54 48 46 16 5 9 0 0 0
15 12 12 17 22 44 38 64 36 50 74 97 154 164 176 150 7 12 23 44 39 204 307 289 242 104 54 12 4 0 1 18 26 162 103 56 171 229 119 75 41 29 20 22 0 0 0
11 14 10 18 25 41 31 47 55 54 63 97 106 143 169 182 163 78 2 64 111 214 251 304 250 104 31 129 1 1 25 23 15 273 257 135 297 226 153 84 42 43 3 0 0 0 0
11 14 11 16 29 22 30 49 44 61 72 74 68 102 105 137 184 83 86 96 21 127 261 174 102 106 2 78 59 89 98 68 25 257 140 122 163 113 92 88 40 4 0 0 0 0 0
10 7 12 16 31 26 26 35 47 45 65 60 67 71 36 33 100 48 36 17 80 173 150 79 45 15 60 112 239 224 40 10 129 72 18 90 79 31 4 7 1 7 0 0 0 0 0
7 8 11 17 21 20 15 27 30 28 43 45 53 58 23 18 27 12 20 15 6 23 41 4 25 35 11 22 4 102 43 157 235 31 33 81 22 2 47 37 31 4 11 2 0 0 0
6 5 9 15 16 15 17 15 22 31 31 34 34 32 9 0 0 12 12 6 5 8 31 24 23 16 7 23 21 4 56 33 68 34 37 28 23 2 35 40 16 15 13 1 0 0 0
2 4 8 15 14 12 12 14 10 14 24 23 26 7 0 0 2 13 4 6 3 2 124 7 11 37 70 56 4 16 5 3 36 47 51 23 22 9 30 38 10 23 10 1 0 0 0
1 3 7 10 14 10 11 10 11 15 17 22 9 12 0 0 0 3 6 0 0 3 76 10 5 0 56 8 2 13 23 77 22 2 8 2 27 24 34 56 16 24 4 5 0 0 0
1 2 6 10 10 10 8 8 8 13 11 21 8 1 0 2 3 0 2 4 9 10 41 7 12 13 9 7 22 18 2 0 1 0 1 4 2 0 7 0 5 8 0 0 0 0 4
0 1 4 7 10 9 6 8 8 9 10 14 5 1 4 1 3 1 12 5 12 35 2 16 12 4 19 21 17 27 5 12 8 7 5 3 3 1 0 0 0 0 25 29 29 14 4
1 1 4 6 7 8 4 3 6 7 12 12 2 0 0 0 10 12 5 10 14 3 5 1 10 21 13 7 13 21 14 4 4 2 18 14 12 2 8 2 3 6 13 66 12 8 1
0 0 2 6 5 7 5 4 6 5 14 22 0 0 2 0 5 7 6 4 14 5 0 16 21 11 7 1 0 17 7 3 0 0 5 15 17 5 6 0 0 8 8 0 0 0 0
0 1 1 6 5 7 7 4 3 4 10 11 0 0 0 0 0 1 4 3 16 3 7 4 9 2 3 2 7 9 2 0 0 0 0 0 8 0 0 0 0 1 0 0 0 0 0
0 1 1 3 6 5 6 2 2 3 9 1 0 1 0 0 0 0 9 25 15 1 0 1 2 2 2 3 5 2 0 0 0 0 0 0 0 3 1 0 2 0 0 0 0 0 0
0 1 0 2 6 4 5 2 1 1 6 0 0 2 0 0 0 3 3 0 0 1 0 0 4 3 4 3 4 2 3 2 0 0 0 0 3 8 7 0 0 0 1 0 0 0 0
2 3 1 0 7 1 3 1 1 0 2 5 0 0 0 0 1 10 0 0 0 0 0 0 0 0 0 2 0 2 0 0 0 0 0 0 0 3 1 0 0 0 0 0 0 0 0
4 2 2 0 6 1 1 1 0 0 0 4 1 1 0 0 0 4 2 0 0 0 0 0 0 0 0 0 0 0 0 0 0 0 0 0 0 0 2 0 0 0 0 0 0 0 0
3 2 2 0 0 5 0 0 0 0 0 0 0 4 1 6 3 0 0 0 0 0 0 0 0 0 0 1 0 0 0 0 0 0 0 0 2 0 0 0 0 0 0 0 0 0 2
4 5 4 3 1 5 0 0 0 0 0 0 6 2 3 0 0 0 1 3 0 0 0 0 0 0 0 0 0 0 0 1 1 0 0 0 0 0 0 0 0 0 0 0 0 0 0
5 2 3 3 3 3 0 0 0 0 0 0 9 10 9 0 0 0 8 1 0 0 0 0 1 0 0 0 0 0 0 0 0 0 0 2 0 0 0 0 0 0 0 0 0 0 0
2 0 5 3 1 2 6 0 0 0 0 1 1 15 3 0 0 4 0 0 2 1 1 2 7 11 0 0 0 0 0 0 0 0 0 7 4 1 1 0 0 0 0 0 0 0 0
0 2 4 6 2 2 3 0 0 0 0 0 6 4 19 4 1 0 0 1 3 0 0 0 0 1 0 0 13 2 1 4 1 0 0 1 6 5 3 0 0 0 0 0 0 0 0
0 0 6 7 5 2 0 7 0 0 0 0 1 3 4 15 0 1 5 6 6 12 23 3 0 0 0 36 21 1 1 1 1 3 0 0 0 10 4 1 0 0 0 0 0 6 0
0 0 1 8 2 2 1 3 1 0 0 0 3 0 9 26 0 0 5 8 4 3 9 23 8 2 0 38 21 6 1 2 2 1 6 10 16 16 12 1 0 0 0 0 5 2 0
1 0 2 3 2 0 2 6 8 3 0 1 12 0 11 7 0 0 0 2 5 9 21 17 24 17 36 30 8 0 4 4 4 2 2 1 7 4 4 2 0 0 0 0 1 0 0
0 3 0 0 4 0 1 12 12 14 31 17 11 18 21 23 0 0 0 0 0 0 9 4 13 10 26 34 31 21 10 7 4 1 0 0 0 2 0 0 0 0 0 0 0 0 0

GFSGBSN_con_sbcape_066.txt.gz
CAPE
8 12 12 23 29 32 43 58 52 20 19 48 75 108 146 139 130 146 176 163 210 123 118 99 89 74 44 8 0 0 70 27 156 334 83 37 0 16 43 40 7 0 0 0 0 0 0
7 14 18 15 24 32 50 33 38 33 41 61 94 120 154 173 158 33 74 93 148 166 176 143 184 68 1 6 0 0 0 0 82 234 133 12 7 3 3 92 62 1 0 0 2 0 0
6 12 13 20 22 34 36 36 37 33 53 76 78 80 146 180 161 33 29 34 5 69 147 178 209 88 21 0 5 165 76 13 0 97 166 27 0 8 39 56 29 30 7 5 0 0 0
7 12 17 21 28 22 27 22 22 36 43 70 57 76 93 118 157 128 11 20 40 82 235 274 221 65 15 0 0 0 10 0 0 5 203 74 0 161 109 74 50 31 16 28 2 0 0
8 12 14 16 23 19 24 22 28 31 39 55 44 42 39 49 88 136 31 11 80 131 186 243 185 90 1 56 0 0 0 0 0 4 192 248 101 128 111 62 34 38 2 3 3 0 0
6 10 12 19 18 15 19 26 26 28 28 42 51 49 22 28 22 96 31 112 32 45 234 166 96 26 12 5 42 0 141 27 7 105 231 169 72 52 77 56 2 0 0 0 0 0 0
4 10 10 13 13 11 15 14 13 21 28 30 42 34 8 11 27 30 65 148 96 118 71 19 22 24 12 50 147 36 108 12 57 190 222 74 17 0 0 0 0 0 0 0 0 0 0
4 8 14 10 9 10 12 14 10 14 23 22 19 30 20 0 9 9 41 3 4 3 9 5 3 3 68 57 45 94 94 21 54 0 31 55 13 0 13 15 80 1 0 0 1 3 0
3 7 9 11 6 10 11 13 13 14 12 27 14 27 7 2 0 33 1 3 2 0 21 7 25 36 59 0 14 48 39 18 1 13 0 5 5 15 1 0 2 7 0 0 0 0 0
1 5 9 10 7 8 10 13 11 12 8 17 7 14 9 0 0 0 0 0 0 0 7 22 23 16 44 0 29 48 39 20 39 8 42 20 24 0 17 3 9 15 0 5 0 0 0
1 3 6 10 9 8 9 12 15 12 9 10 6 6 5 0 10 0 0 1 0 4 0 0 23 7 19 18 2 0 34 2 9 22 12 0 5 1 0 0 13 6 34 9 0 0 0
0 2 4 8 10 9 6 9 14 11 8 11 4 3 1 8 20 0 2 4 5 1 1 4 9 5 6 6 9 19 17 0 0 1 0 2 0 2 5 7 15 42 16 7 2 15 1
0 1 3 5 8 7 5 7 9 10 5 9 8 0 0 1 5 5 2 1 1 1 0 1 3 15 1 8 6 20 9 15 4 0 0 3 3 0 0 7 0 21 0 19 28 12 0
0 1 2 4 5 6 5 7 6 5 5 3 0 0 0 0 6 3 1 2 0 3 1 5 1 19 7 1 4 11 11 5 0 0 6 1 0 2 1 3 0 0 2 20 1 1 0
0 0 2 2 7 8 6 6 5 2 10 6 0 0 0 0 0 1 1 0 4 0 0 1 11 12 11 0 0 1 0 3 5 1 9 18 8 6 7 0 0 0 0 0 0 0 0
0 0 2 1 6 10 4 4 3 3 3 1 0 0 0 0 0 0 0 0 9 0 1 0 5 2 5 2 3 7 2 0 0 0 0 0 6 8 8 7 0 2 0 0 0 0 0
0 0 1 1 5 8 4 2 2 1 0 0 0 0 0 0 0 0 0 1 3 1 0 0 0 2 0 0 10 0 0 0 0 0 0 0 0 3 0 1 1 2 1 0 0 0 0
0 0 1 1 2 7 3 4 1 0 1 0 0 1 0 0 0 3 2 0 0 0 0 0 0 0 2 0 4 2 0 0 0 0 0 0 0 0 0 0 0 0 0 0 0 0 0
0 0 1 1 0 6 3 2 0 0 0 2 0 0 0 0 10 17 0 0 0 0 0 0 0 0 0 0 0 0 0 0 0 0 0 0 0 0 0 0 0 0 0 0 0 0 0
0 0 0 1 1 2 2 1 0 0 0 0 0 0 0 0 0 1 7 0 0 0 0 0 0 0 0 0 0 0 0 0 0 0 0 0 0 0 0 0 0 0 0 0 0 0 0
0 1 1 3 2 3 5 0 0 0 0 0 0 1 1 3 3 0 3 8 0 0 0 0 0 0 0 0 0 0 0 0 0 0 0 0 0 0 0 0 0 0 0 0 0 0 0
0 1 0 1 2 2 2 0 0 0 0 0 0 1 0 0 0 0 0 11 4 1 0 0 0 0 0 0 0 0 0 0 0 0 0 0 0 0 0 0 0 0 0 0 0 0 0
0 0 0 1 3 3 1 0 0 0 0 0 0 0 5 0 0 0 4 3 8 0 0 0 0 0 0 2 0 0 0 0 0 0 0 0 0 0 0 0 0 0 0 0 0 0 0
0 0 0 0 1 3 0 3 0 0 0 0 5 6 2 0 0 0 0 0 0 13 16 9 0 1 0 0 0 0 0 0 0 0 0 0 2 0 0 0 0 0 0 0 0 0 0
0 0 0 0 0 4 2 3 0 0 0 0 3 2 9 0 0 0 0 0 2 3 5 1 8 0 0 0 6 4 2 0 3 1 0 0 4 1 0 0 0 0 0 0 0 0 0
0 0 0 0 1 2 0 1 4 0 0 0 0 0 14 2 0 0 0 0 0 3 12 17 0 0 0 11 13 0 0 0 3 0 0 0 0 0 0 0 0 0 0 0 0 0 0
0 0 0 0 0 0 0 1 2 5 0 0 1 0 1 4 0 0 0 2 6 11 8 9 0 0 0 18 22 19 4 0 0 0 0 3 3 1 0 3 0 0 0 0 1 0 0
0 0 0 0 0 1 0 2 7 9 19 3 2 2 0 1 0 0 0 0 0 3 22 1 8 2 10 23 26 1 0 1 0 0 0 0 1 1 3 3 0 0 0 0 0 0 0
3 0 3 6 9 0 1 0 1 15 25 38 16 10 7 25 0 0 0 0 0 0 3 4 8 0 33 13 7 4 3 3 0 0 0 0 0 0 0 0 0 0 0 0 0 0 0

GFSGBSN_con_sbcape_069.txt.gz
CAPE
12 16 21 19 23 25 21 29 34 32 45 45 61 64 80 99 100 154 43 77 140 158 137 140 111 124 60 15 0 0 0 30 1 262 80 42 0 0 35 20 1 0 0 0 1 0 0
12 13 18 16 22 19 23 23 32 40 45 39 60 57 62 67 110 149 11 2 25 51 157 159 196 120 2 0 0 0 0 0 24 187 60 35 1 0 48 25 5 0 5 13 0 0 0
9 13 11 14 15 19 15 21 32 26 32 28 60 36 26 45 63 107 2 4 30 4 68 178 232 100 70 0 0 18 94 44 27 27 67 19 0 0 0 0 0 18 21 7 0 0 0
7 11 7 15 21 17 15 17 33 26 31 25 48 32 12 36 10 75 63 0 27 39 186 262 244 85 19 0 0 0 0 14 0 0 19 86 12 25 23 17 14 39 0 8 0 0 0
5 11 13 14 14 16 14 17 23 24 26 28 38 20 14 27 26 71 74 6 90 125 153 190 134 88 6 48 0 0 0 0 0 0 43 179 23 18 60 47 15 11 5 0 0 0 0
4 10 10 11 10 14 11 16 11 17 23 17 24 17 2 8 4 8 13 39 45 11 115 192 73 11 1 6 18 0 47 6 0 22 93 168 61 18 39 9 0 6 0 0 0 0 0
3 8 6 12 11 13 9 11 16 9 11 12 14 10 0 0 0 3 0 0 0 0 5 9 6 0 0 40 81 28 117 3 6 25 95 49 28 0 0 0 2 0 0 0 0 0 0
4 8 9 8 9 12 10 10 13 16 9 12 4 5 6 0 0 0 0 0 0 0 0 9 18 26 19 0 54 105 17 3 49 17 12 34 4 0 0 0 5 0 0 0 0 0 0
2 5 7 8 10 15 13 11 10 14 11 8 11 6 3 0 0 0 0 0 0 0 5 5 7 37 5 0 15 0 0 13 24 41 2 5 1 0 4 4 15 1 0 0 0 0 0
2 4 6 6 10 12 14 7 8 9 13 8 14 5 2 0 0 0 0 0 0 0 0 19 16 14 5 0 13 27 28 22 3 5 3 12 12 7 1 0 0 0 0 0 0 0 0
1 2 5 8 10 10 12 7 6 6 7 5 9 4 0 0 0 0 0 0 0 0 0 1 8 0 47 9 1 3 47 10 13 11 8 1 23 1 0 0 0 0 0 0 0 0 0
1 2 3 5 9 8 11 8 5 5 4 5 5 4 0 0 0 0 0 1 0 0 0 0 5 10 9 3 7 30 21 8 0 0 0 1 0 0 0 0 0 11 0 0 0 0 0
0 1 2 4 8 6 8 7 6 3 3 7 5 5 0 0 0 0 0 0 0 0 0 0 2 4 5 7 23 10 13 9 1 0 1 0 1 0 0 0 0 0 0 0 0 0 0
0 0 2 3 6 7 5 5 2 1 1 9 1 0 0 0 0 0 0 0 0 0 0 0 0 6 1 8 8 0 23 10 0 0 0 0 0 2 0 0 0 2 0 0 0 0 0
0 0 2 2 4 6 3 3 3 1 2 1 0 0 0 0 0 0 0 0 0 0 0 0 0 2 1 0 1 1 0 6 0 0 0 0 1 3 0 0 0 9 0 0 0 0 0
0 0 1 2 2 6 5 1 1 3 0 0 0 0 0 0 0 0 0 0 0 0 0 0 0 0 0 0 6 0 0 0 0 0 0 0 0 7 6 2 0 6 0 0 0 0 0
0 0 0 1 1 4 4 0 0 0 0 0 0 0 0 0 0 0 0 0 1 1 0 0 0 1 0 0 0 0 0 0 0 0 0 0 0 14 8 6 6 5 2 0 0 0 0
0 0 0 0 0 1 2 1 0 0 1 0 0 0 0 0 0 0 0 0 0 0 0 0 0 0 0 0 0 0 0 0 0 0 0 0 0 0 0 0 0 0 0 0 0 0 0
0 0 0 0 0 1 2 0 0 0 0 0 0 0 0 0 0 0 0 0 0 0 0 0 0 0 0 0 0 0 0 0 0 0 0 0 0 0 0 0 0 0 0 0 0 0 0
0 0 0 0 0 0 1 0 0 0 0 0 0 0 0 0 0 0 0 0 0 0 0 0 0 0 0 0 0 0 0 0 0 0 0 0 0 0 0 0 0 0 0 0 0 0 0
0 0 0 0 0 2 1 0 0 0 0 0 0 0 0 0 0 0 0 0 0 1 0 0 0 0 0 0 0 0 0 0 0 0 0 0 0 0 0 0 0 0 0 0 0 0 0
0 0 0 0 0 0 0 1 0 0 0 0 0 0 0 0 0 0 0 0 6 1 0 0 0 0 0 0 0 0 0 0 0 0 0 0 0 0 0 0 0 0 0 0 0 0 0
0 0 0 0 0 0 0 1 0 0 0 0 0 0 0 0 0 0 0 0 1 0 0 0 0 0 0 0 0 0 0 0 0 0 0 0 0 0 0 0 0 0 0 0 0 0 0
0 0 0 0 0 0 0 1 0 0 0 0 0 0 0 0 0 0 0 0 0 0 11 5 4 5 0 0 0 0 0 0 0 0 0 0 0 0 0 0 0 0 0 0 0 0 0
0 0 0 0 0 0 0 0 2 0 0 0 0 0 0 0 0 0 0 0 0 0 0 0 1 0 0 0 0 9 6 3 0 0 0 0 1 0 0 0 0 0 0 0 0 0 0
0 0 0 0 0 0 0 0 0 1 0 0 0 0 0 0 0 0 0 0 0 0 0 24 2 0 0 4 19 4 2 0 5 1 0 0 0 0 0 0 0 0 0 0 0 0 0
10 3 0 0 0 0 0 0 0 0 2 0 0 0 0 0 0 0 0 0 0 0 1 0 24 0 0 4 61 5 1 0 0 3 2 0 0 0 0 0 0 0 0 0 0 0 0
18 11 5 3 0 0 0 0 0 0 1 0 0 0 0 0 0 0 0 0 0 0 0 1 2 5 0 7 3 3 0 3 0 0 0 0 0 0 0 6 0 0 0 0 0 0 0
18 19 11 10 13 0 1 0 0 0 8 16 7 0 0 0 0 0 0 0 0 0 0 0 2 7 12 0 0 0 0 0 0 0 0 0 0 0 0 0 0 0 0 0 0 0 0

GFSGBSN_con_sbcape_072.txt.gz
CAPE
10 13 16 15 15 27 16 29 40 40 42 58 42 41 30 39 64 133 33 11 32 91 115 132 125 160 94 1 1 0 20 12 91 9 87 15 0 45 42 13 18 6 0 0 2 26 18
10 10 17 15 21 20 18 25 28 42 37 38 27 30 21 42 39 70 0 0 10 35 114 176 222 145 20 1 2 10 37 3 4 47 73 32 0 1 32 56 51 0 8 0 0 0 0
6 7 13 16 16 16 19 19 21 27 33 35 37 24 20 36 11 31 0 0 33 14 100 181 252 104 39 0 0 0 0 20 39 84 72 24 0 17 1 0 9 5 41 2 0 0 0
7 9 13 13 16 15 15 17 10 19 35 29 24 28 10 25 41 24 0 0 12 27 142 221 218 80 0 0 0 0 7 0 3 18 62 70 9 0 0 2 3 28 1 12 0 0 0
4 8 10 14 15 15 13 16 16 13 18 30 22 24 18 15 3 10 0 0 3 28 75 128 118 1 0 1 0 0 0 0 4 0 25 67 6 0 17 27 18 31 0 0 0 0 0
2 7 10 11 13 15 13 13 16 14 13 19 22 10 20 6 1 5 0 0 0 0 0 23 17 0 0 0 0 31 57 34 29 80 64 55 52 0 0 1 1 0 0 0 0 0 0
2 6 8 9 11 12 15 10 13 14 5 13 19 5 7 5 0 0 0 0 0 0 0 0 0 0 0 7 12 56 72 4 18 24 56 69 18 0 0 0 0 0 0 0 0 0 0
1 6 6 7 9 13 13 11 10 11 11 11 16 14 8 1 0 0 0 0 0 0 0 0 11 13 1 0 32 7 0 0 22 0 21 46 14 0 0 16 2 0 0 0 0 0 0
1 4 5 5 9 11 10 7 8 9 9 8 14 15 5 2 0 0 0 0 0 0 1 7 7 3 5 2 4 0 4 3 14 3 13 18 6 0 0 5 4 0 0 0 0 0 0
1 2 4 5 6 9 9 5 7 7 7 8 5 11 5 4 0 0 0 0 0 0 0 6 4 7 34 0 44 22 62 19 22 4 3 5 1 2 1 2 2 13 0 0 0 0 0
0 1 3 3 6 8 6 4 5 3 4 3 4 5 2 4 0 0 0 0 0 0 0 2 2 0 45 12 16 11 16 33 7 4 15 1 0 2 19 0 0 2 0 0 0 0 0
0 0 3 2 4 4 4 3 5 2 1 1 5 2 0 0 0 0 1 0 0 0 0 0 1 23 28 9 21 42 22 7 16 19 0 1 0 0 0 0 1 0 0 0 0 0 0
0 0 1 1 2 3 2 3 2 1 0 0 0 0 0 0 0 0 0 0 0 0 0 0 3 20 4 18 34 3 2 25 8 1 0 0 1 0 0 0 0 8 0 1 0 0 0
0 0 0 1 1 3 2 2 2 0 0 2 0 0 0 0 0 0 0 0 0 0 0 0 0 0 10 10 1 8 13 0 0 0 0 0 6 0 0 0 0 0 0 0 0 0 0
0 0 0 1 1 2 3 1 2 0 0 0 0 0 0 0 0 0 0 0 0 0 0 0 0 0 0 6 4 5 0 0 0 0 0 1 0 0 0 0 0 1 1 0 0 0 0
0 0 0 0 1 2 2 1 1 0 0 0 0 0 0 0 0 0 0 0 0 0 0 0 0 0 0 2 1 0 0 0 0 0 0 0 5 0 0 1 0 2 0 1 0 0 0
0 0 0 0 0 0 2 1 0 0 0 0 0 0 0 0 0 0 0 0 0 0 0 0 0 0 0 0 0 0 0 0 0 0 0 0 0 7 15 14 5 7 6 0 0 0 0
0 0 0 0 0 1 0 0 0 0 0 0 0 0 0 0 0 0 0 0 0 0 0 0 0 0 0 0 0 0 0 0 0 0 0 0 0 4 3 2 1 2 0 0 0 0 0
0 0 0 0 0 0 0 0 0 0 0 0 0 0 0 0 0 0 0 0 0 0 0 0 0 0 0 0 0 0 0 0 0 0 0 0 0 0 0 0 0 5 0 0 0 0 0
0 0 0 0 0 0 0 0 0 0 0 0 0 0 0 0 0 0 0 0 2 0 0 0 0 0 0 0 0 0 0 0 0 0 0 0 0 0 0 0 0 0 0 0 0 0 0
0 0 0 0 0 0 0 0 0 0 0 0 0 0 0 0 0 0 0 0 0 0 0 0 0 0 0 0 0 0 0 0 0 0 0 0 0 0 0 0 0 0 0 0 0 0 0
0 0 0 0 0 0 1 0 0 0 0 0 0 0 0 0 0 0 0 0 0 1 0 0 0 0 0 0 0 0 0 0 0 0 0 0 0 0 0 0 0 0 0 0 0 0 0
0 0 0 0 0 0 0 0 0 0 0 0 0 0 0 0 0 0 0 0 0 0 0 1 0 0 0 0 0 0 0 0 0 0 0 0 0 0 0 0 0 0 0 0 0 0 0
0 0 0 0 0 0 0 0 0 0 0 0 0 0 0 0 0 0 0 0 0 0 0 3 5 4 0 0 0 0 0 0 0 0 0 0 0 0 0 0 0 0 0 0 0 0 0
0 0 0 0 0 0 0 0 0 0 0 0 0 0 0 0 0 0 0 0 0 0 0 0 0 1 0 0 0 0 2 0 0 0 0 0 0 0 0 0 0 0 0 0 0 0 0
0 0 0 0 0 0 0 0 0 0 0 0 0 0 0 0 0 0 0 0 0 0 1 0 0 0 0 0 11 8 4 0 2 3 0 0 0 0 0 0 0 0 0 0 0 0 0
2 16 8 0 0 0 0 0 0 0 0 0 0 0 0 0 0 0 0 0 0 0 0 0 1 4 0 0 27 0 0 0 3 5 2 0 0 0 0 3 0 0 0 0 0 0 0
23 23 21 5 4 0 0 0 0 0 0 0 0 0 0 0 0 0 0 0 0 0 0 0 0 44 30 9 3 10 0 0 0 0 0 0 0 0 0 1 0 0 0 0 0 0 0
21 23 20 13 17 14 12 0 0 0 0 8 0 0 0 1 0 0 0 0 0 0 1 0 0 1 17 14 1 0 0 0 0 0 0 0 0 0 0 0 0 0 0 0 0 0 0

GFSGBSN_con_sbcape_075.txt.gz
CAPE
7 11 7 12 15 14 12 12 19 19 31 28 35 26 34 36 26 30 0 0 9 35 58 96 84 169 48 0 1 0 24 0 28 53 0 1 0 27 37 34 63 1 0 2 6 0 0
7 9 6 15 10 11 12 13 13 13 23 23 34 18 18 21 20 3 2 1 6 37 109 179 188 82 7 0 0 0 0 8 111 50 0 2 0 17 40 14 89 25 4 3 0 15 1
6 4 6 15 16 10 10 11 13 6 21 18 26 18 15 16 5 2 0 3 7 29 113 184 230 107 21 0 0 0 0 0 6 44 10 64 0 32 0 18 5 7 17 0 0 1 2
4 2 5 12 11 10 10 11 14 13 9 14 23 12 22 17 4 0 0 0 0 17 86 155 142 22 0 0 0 0 2 0 0 55 54 63 19 0 0 0 0 12 5 2 0 0 1
2 2 5 10 15 8 10 12 15 10 6 6 16 7 12 19 16 2 0 0 0 0 23 49 15 0 0 1 0 0 0 0 6 53 54 72 10 0 7 1 11 5 0 0 0 0 0
1 3 4 7 10 15 6 11 14 11 12 9 9 5 3 4 10 2 0 0 0 0 0 0 0 0 0 0 0 43 35 40 51 90 58 88 38 2 0 4 2 0 0 0 0 0 0
1 2 3 7 6 12 11 12 12 11 9 4 13 9 3 1 1 0 0 0 0 0 0 2 9 0 1 0 1 40 35 25 47 46 3 35 11 0 0 0 0 0 0 0 0 0 1
0 1 3 4 5 7 11 10 9 12 8 4 5 15 3 1 1 0 0 0 0 0 0 0 0 3 2 0 6 2 4 14 39 23 9 16 5 0 0 1 0 0 0 0 0 0 1
0 0 1 2 3 5 7 10 9 9 8 8 5 7 3 0 0 0 0 0 0 0 0 3 5 13 9 2 3 0 8 24 16 10 12 5 0 0 11 17 2 0 0 0 0 0 0
0 0 1 1 2 4 5 8 11 8 9 5 4 0 3 1 0 0 0 0 0 0 0 5 11 7 40 1 6 7 49 34 16 3 2 22 2 0 4 1 0 9 0 0 0 0 0
0 0 0 1 2 2 4 6 10 13 7 3 7 3 2 0 0 0 0 0 0 0 0 0 4 5 24 19 1 29 26 58 0 3 3 1 1 3 3 0 3 0 3 0 0 0 0
0 0 0 1 0 1 5 6 6 9 4 2 5 3 0 0 0 0 0 0 0 0 0 0 2 32 40 33 38 15 2 10 19 1 5 1 0 0 0 0 0 0 0 0 0 0 0
0 0 0 0 0 1 2 3 5 4 1 0 0 0 0 0 0 0 0 0 0 0 0 0 9 5 16 23 27 0 0 10 3 5 0 1 1 0 0 0 0 1 0 3 0 0 0
0 0 0 0 0 1 3 2 3 2 0 4 0 0 0 0 0 0 0 0 0 0 0 0 0 2 25 29 11 14 32 5 0 0 1 0 10 0 0 0 1 0 0 0 0 0 0
0 0 0 0 1 1 1 3 2 2 2 1 0 0 0 0 0 0 0 0 0 0 0 0 0 0 13 15 5 10 12 0 0 0 0 0 0 0 0 0 0 0 0 0 0 0 0
0 0 0 0 0 0 0 1 1 0 0 0 0 0 0 0 0 0 0 0 0 0 0 0 0 0 0 0 4 2 0 0 0 0 0 0 0 0 0 4 0 0 0 0 0 0 0
0 0 0 0 0 0 0 0 0 0 0 0 0 0 0 0 0 0 0 0 0 0 0 0 0 0 0 0 0 0 0 0 0 0 0 0 0 4 0 14 6 8 8 1 0 0 0
0 0 0 0 0 0 0 0 0 0 0 0 0 0 0 0 0 0 0 0 0 0 0 0 0 0 0 0 0 0 0 0 0 0 0 0 0 0 5 6 0 0 2 2 0 0 0
0 0 0 0 0 0 0 0 0 0 0 0 0 0 0 0 0 0 0 0 0 0 0 0 0 0 0 0 0 0 0 0 0 0 0 0 0 0 1 0 4 16 3 19 0 0 0
0 0 0 0 0 0 0 0 0 0 0 0 0 0 0 0 0 0 0 0 0 0 0 0 0 0 0 0 0 0 0 0 0 0 0 0 0 0 0 0 0 1 0 4 2 0 0
0 0 0 0 0 0 0 0 0 0 0 0 0 0 0 0 0 0 0 0 0 0 0 0 0 0 0 0 0 0 0 0 0 0 0 0 0 0 0 0 0 0 0 0 0 0 0
0 0 0 0 0 0 0 0 0 0 0 0 0 0 0 0 0 0 0 0 0 0 0 0 0 0 0 0 0 0 0 0 0 0 0 0 0 0 0 0 0 0 0 0 0 0 0
0 0 0 0 0 0 0 0 0 0 0 0 0 0 0 0 0 0 0 0 0 0 0 1 0 0 0 0 0 0 0 0 0 0 0 0 0 0 0 0 0 0 0 0 0 0 0
0 0 0 0 0 0 0 0 0 0 0 0 0 0 0 0 0 0 0 0 0 0 0 0 0 0 0 0 0 0 0 0 0 0 0 0 0 0 0 0 0 0 0 0 0 0 0
0 0 0 0 0 0 0 0 0 0 0 0 0 0 0 0 0 0 0 0 0 0 0 0 0 0 0 0 0 3 0 0 0 0 0 0 0 0 0 0 0 0 0 0 0 0 0
3 1 0 0 0 0 0 0 0 0 0 0 0 0 0 0 0 0 0 0 0 0 0 0 0 0 0 1 2 0 0 0 0 0 0 0 0 0 0 0 0 0 0 0 0 0 0
4 4 0 0 0 0 0 0 0 0 0 0 0 0 0 0 0 0 0 0 0 0 0 0 0 0 6 28 10 0 0 0 0 0 0 0 0 0 0 1 0 0 0 0 0 0 0
8 12 5 12 6 0 0 0 0 0 0 0 0 0 0 0 0 0 0 0 0 0 0 0 0 5 6 31 11 13 0 0 0 0 0 0 1 0 0 2 0 0 0 0 0 0 0
9 19 14 12 16 14 0 0 0 0 0 0 0 0 0 0 0 0 0 0 0 0 0 0 0 0 6 2 2 2 0 0 0 0 0 0 0 0 0 0 0 0 0 0 0 0 0

GFSGBSN_con_sbcape_078.txt.gz
CAPE
8 9 10 9 14 12 10 14 8 16 27 21 25 11 11 28 10 1 0 2 4 14 94 149 129 164 15 0 0 1 13 0 15 63 2 0 1 2 30 38 11 2 7 11 5 0 0
4 8 12 5 16 13 9 11 15 7 16 13 21 14 16 21 12 3 0 2 1 12 86 189 212 81 1 0 0 0 0 0 21 91 7 19 1 0 37 39 39 9 9 15 2 0 0
2 7 9 12 14 13 4 8 13 7 17 12 14 9 20 9 10 3 0 0 0 0 51 148 194 84 0 0 0 0 0 0 7 81 54 52 1 27 9 36 28 29 20 0 0 0 1
1 5 6 10 8 9 7 8 10 8 8 11 7 9 13 15 13 9 0 0 0 0 6 95 103 0 0 0 0 0 0 0 1 125 121 101 9 0 0 0 21 59 24 15 0 0 0
0 3 3 8 9 9 5 9 8 11 5 12 11 4 10 7 7 2 3 0 0 0 0 0 0 0 0 1 2 1 25 0 29 111 104 115 26 0 0 3 11 8 20 8 0 0 3
0 1 2 4 8 10 10 7 6 11 15 4 13 4 7 3 2 1 0 0 0 0 0 0 0 0 0 0 5 0 32 25 30 84 46 54 27 0 0 0 1 17 0 6 1 0 9
0 0 1 3 5 8 9 9 8 8 12 8 7 9 2 3 2 0 0 0 0 0 0 0 0 0 0 0 13 15 28 16 28 19 28 2 14 0 0 0 0 0 0 0 0 0 0
0 0 0 2 4 7 8 11 10 7 9 11 4 7 8 5 1 0 0 0 0 0 0 3 0 0 3 0 0 0 8 24 20 30 8 9 1 0 0 0 0 0 0 0 0 0 0
0 0 0 0 2 5 7 9 8 7 6 8 3 4 6 5 1 0 0 0 0 0 0 15 6 6 7 3 0 0 16 18 30 6 13 7 2 0 9 12 3 0 0 0 0 0 0
0 0 0 0 1 4 6 7 10 9 7 7 5 2 1 3 0 0 0 0 0 0 0 5 11 6 21 0 0 2 25 7 0 11 2 2 0 0 14 19 0 0 0 0 0 0 0
0 0 0 0 1 2 4 7 10 9 6 3 5 2 0 0 0 0 0 0 0 0 0 0 9 8 29 0 0 0 7 20 0 6 4 1 8 4 3 7 0 0 0 0 0 0 0
0 0 0 0 1 2 3 4 8 6 3 1 4 0 2 0 0 0 0 0 0 0 0 0 6 39 37 16 22 12 0 1 0 17 14 2 0 0 0 0 0 2 0 0 0 0 0
0 0 0 0 1 1 1 3 4 3 2 1 1 0 0 0 0 0 0 0 0 0 0 0 9 1 11 9 2 0 3 0 0 1 1 0 1 0 0 0 0 1 6 6 13 2 3
0 0 0 0 0 2 1 2 2 2 0 2 0 0 0 0 0 0 0 0 0 0 0 0 0 10 20 9 1 6 10 0 0 0 8 2 9 0 0 0 2 0 0 0 0 0 0
0 0 0 0 0 1 1 1 2 1 0 0 0 0 0 0 0 0 0 0 0 0 0 0 0 8 1 23 6 10 2 0 0 0 0 0 0 0 0 0 0 0 0 0 0 0 0
0 0 0 0 0 0 1 1 1 0 0 0 0 0 0 0 0 0 0 0 0 0 0 0 0 0 1 0 0 2 0 0 0 0 0 0 0 0 0 0 0 0 0 0 0 0 0
0 0 0 0 0 0 0 0 0 0 0 0 0 0 0 0 0 0 0 0 0 0 0 0 0 0 0 0 0 0 0 0 0 0 0 0 0 3 1 1 6 10 3 0 0 0 0
0 0 0 0 0 0 0 0 0 0 0 0 0 0 0 0 0 0 0 0 0 0 0 0 0 0 0 0 0 0 0 0 0 0 0 0 0 0 0 1 0 6 7 2 1 0 0
0 0 0 0 0 0 0 0 0 0 0 0 0 0 0 0 0 0 0 0 0 0 0 0 0 0 0 0 0 0 0 0 0 0 0 0 0 1 4 1 5 9 2 4 0 0 0
0 0 0 0 0 0 0 0 0 0 0 0 0 0 0 0 0 0 0 0 0 0 0 0 0 0 0 0 0 0 0 0 0 0 0 0 0 0 0 0 0 10 0 3 2 2 0
0 0 0 0 0 0 0 0 0 0 0 0 0 0 0 0 0 0 0 0 0 0 0 0 0 0 0 0 0 0 0 0 0 0 0 0 0 0 0 0 0 0 0 0 6 3 1
0 0 0 0 0 0 0 0 0 0 0 0 0 0 0 0 0 0 0 0 0 0 0 0 0 0 0 0 0 0 0 0 0 0 0 0 0 0 0 0 0 0 0 0 0 0 5
1 0 0 0 0 0 0 0 0 0 0 0 0 0 0 0 0 0 0 0 0 0 0 0 0 0 0 0 0 0 0 0 0 0 0 0 0 0 0 0 0 0 0 0 0 0 0
3 1 0 0 0 0 0 0 0 0 0 0 0 0 0 0 0 0 0 0 0 0 0 0 0 0 0 0 2 0 0 0 0 0 0 0 0 0 0 0 0 0 0 0 0 0 0
3 1 1 0 0 0 0 0 0 0 0 0 0 0 0 0 0 0 0 0 0 0 0 0 0 0 0 3 2 13 0 0 0 0 0 0 0 0 0 0 0 0 0 0 0 0 0
5 1 1 0 0 0 0 0 0 0 0 0 0 0 0 0 0 0 0 0 0 0 0 0 0 0 0 38 40 84 3 0 0 0 0 0 0 1 0 0 0 0 0 0 0 0 0
7 5 1 0 0 0 0 0 0 0 0 0 0 0 0 0 0 0 0 0 0 0 0 0 0 0 0 22 21 26 1 0 0 0 0 0 3 0 0 0 0 0 0 0 0 0 0
5 6 2 0 0 0 0 0 0 0 0 0 0 0 0 0 0 0 0 0 0 0 0 0 0 1 0 13 35 7 0 0 0 0 0 0 0 0 0 1 0 0 0 0 0 0 0
4 2 4 0 4 8 0 0 0 0 0 0 0 0 0 0 0 0 0 0 0 0 0 3 0 0 0 2 5 4 17 1 0 0 0 0 0 0 0 0 0 0 0 0 0 0 0

GFSGBSN_con_sbcape_081.txt.gz
CAPE
1 3 6 8 8 10 15 9 10 7 12 18 28 11 12 10 12 5 2 6 9 2 49 99 87 53 1 0 0 0 24 2 3 71 60 14 1 1 10 18 0 2 19 52 5 0 0
2 3 4 8 7 5 7 11 8 9 10 16 20 19 25 9 10 9 4 2 1 3 25 87 118 51 0 0 0 0 0 1 4 85 59 23 3 0 4 45 13 7 39 29 0 0 0
2 1 3 6 7 9 7 11 9 9 3 8 20 19 15 24 15 12 6 1 0 0 6 85 100 0 0 0 0 0 0 0 9 114 54 67 0 35 14 62 11 0 44 14 1 0 0
1 2 3 5 6 6 10 11 10 10 9 10 11 18 3 12 15 9 9 0 0 0 0 63 33 0 0 0 0 0 0 0 16 130 111 138 1 0 5 0 7 49 23 11 0 0 0
0 1 3 4 6 8 4 9 10 10 13 4 16 16 8 8 8 6 0 0 0 0 0 0 0 0 0 0 0 0 14 0 21 96 86 83 15 0 0 11 29 23 8 0 2 0 0
0 0 2 3 4 9 11 11 8 11 11 12 4 15 14 7 4 4 0 0 0 0 0 0 0 0 0 0 14 17 11 3 9 75 53 51 10 0 1 1 1 7 15 4 1 0 0
0 0 0 2 4 6 7 6 3 14 13 13 4 9 14 2 4 2 0 0 0 0 0 0 0 0 0 0 0 12 0 0 3 44 0 23 5 13 0 0 0 0 11 1 0 0 0
0 0 0 1 3 4 9 9 9 7 5 15 8 5 10 1 5 0 0 0 0 0 0 0 0 0 0 0 0 0 15 1 9 8 10 3 25 0 0 2 1 0 1 0 0 0 3
0 0 0 1 3 3 5 10 3 5 9 13 8 2 11 1 6 0 0 0 0 0 0 7 1 0 0 0 0 0 20 14 3 2 6 3 4 0 7 6 4 0 0 0 0 0 0
0 0 0 0 2 2 4 8 5 7 11 11 8 2 1 2 0 0 0 0 0 0 0 11 17 3 0 0 0 11 4 0 1 9 3 15 14 0 13 2 0 0 0 0 0 0 9
0 0 0 0 2 1 3 4 5 6 8 9 3 0 1 0 0 0 0 0 0 0 0 0 23 5 0 0 0 2 0 1 0 2 2 3 15 10 18 0 0 0 0 0 0 0 0
0 0 0 0 1 1 2 2 4 6 6 6 2 0 1 0 0 0 0 0 0 0 0 1 16 22 2 1 4 14 0 0 0 1 6 3 0 3 0 0 0 0 0 0 0 0 0
0 0 0 0 0 0 1 2 5 3 5 6 2 0 0 0 0 0 0 0 0 0 0 0 0 2 4 0 0 9 7 0 0 1 0 3 1 0 0 4 8 8 0 1 1 1 0
0 0 0 0 0 0 0 1 3 2 3 3 0 0 0 0 0 0 0 0 0 0 0 0 0 1 9 0 0 0 10 0 0 0 2 1 5 1 0 0 2 0 0 0 0 0 0
0 0 0 0 0 0 0 0 2 1 1 0 0 0 0 0 0 0 0 0 0 0 0 0 0 12 0 16 1 0 19 0 0 0 0 0 1 0 0 0 0 0 0 0 0 0 0
0 0 0 0 0 0 0 0 0 0 0 0 0 0 0 0 0 0 0 0 0 0 0 0 0 0 1 2 1 5 0 0 0 0 0 0 1 0 0 0 0 0 0 0 1 0 0
0 0 0 0 0 0 0 0 0 0 0 0 0 0 0 0 0 0 0 0 0 0 0 0 0 0 0 0 0 0 0 0 0 0 0 0 0 5 0 4 8 11 4 0 0 0 0
0 0 0 0 0 0 0 0 0 0 0 0 0 0 0 0 0 0 0 0 0 0 0 0 0 0 0 0 3 0 0 0 0 0 0 0 0 0 0 0 0 1 0 3 10 0 0
1 0 0 0 0 0 0 0 0 0 0 0 0 0 0 0 0 0 0 0 0 0 0 0 0 0 0 0 0 0 0 0 0 0 0 0 0 1 2 1 1 7 0 5 0 0 0
1 0 0 0 0 0 0 0 0 0 0 0 0 0 0 0 0 0 0 0 0 0 0 0 0 0 0 0 0 0 0 0 0 0 0 0 0 0 0 0 0 1 0 2 5 2 0
3 0 0 0 0 0 0 0 0 0 0 0 0 0 0 0 0 0 0 0 0 0 0 0 0 0 0 1 0 0 0 0 0 0 4 1 2 0 0 0 0 0 0 0 0 0 0
4 0 0 0 0 0 0 0 0 0 0 0 0 0 0 0 0 0 0 0 0 0 0 0 0 0 0 0 11 0 1 0 0 0 0 0 0 0 0 0 0 0 0 0 0 0 0
3 0 0 0 0 0 0 0 0 0 0 0 0 0 0 0 0 0 0 0 0 0 0 0 0 0 0 0 0 1 0 0 1 0 0 0 0 0 0 0 0 0 0 0 0 0 0
2 2 0 0 0 0 0 0 0 0 0 0 0 0 0 0 0 0 0 0 0 0 0 0 0 0 0 0 0 0 0 2 0 0 0 0 0 0 0 0 0 0 0 0 0 0 0
6 4 0 0 0 0 0 0 0 0 0 0 0 0 0 0 0 0 0 0 0 0 0 0 0 0 0 0 8 0 21 3 3 0 0 0 0 0 0 0 0 0 0 0 0 0 0
6 6 1 0 0 0 0 0 0 0 0 0 0 0 0 0 0 0 0 0 0 0 0 0 0 0 0 0 7 6 3 0 0 0 0 0 0 3 0 0 0 0 0 0 0 0 0
8 7 3 0 0 0 0 0 0 0 0 0 0 0 0 0 0 0 0 0 0 0 0 0 0 0 0 2 12 4 0 1 0 0 0 1 6 0 0 0 0 0 0 0 0 0 0
6 6 4 1 0 0 0 0 0 0 0 0 0 0 0 0 0 0 0 0 0 0 0 0 0 0 0 0 0 2 2 0 0 0 0 0 0 0 0 0 1 0 0 0 0 0 0
7 7 2 0 1 0 0 0 0 0 0 0 0 0 0 0 0 0 0 0 0 0 1 0 0 0 0 0 0 0 3 0 4 6 0 0 0 0 0 0 0 0 0 0 0 0 0

GFSGBSN_con_sbcape_084.txt.gz
CAPE
3 2 3 4 5 8 5 11 11 6 10 22 23 18 26 17 5 4 3 1 2 3 37 78 106 87 14 0 11 5 34 2 6 10 62 69 83 38 4 25 88 84 123 95 41 29 34
0 1 3 2 6 5 5 8 12 12 6 16 23 19 12 26 16 7 1 1 0 0 0 102 127 31 0 3 0 0 0 0 7 81 86 48 74 20 45 90 101 11 121 132 49 28 5
0 0 2 2 4 6 7 6 8 10 7 9 17 23 14 9 20 9 11 0 0 0 0 96 90 0 42 14 3 1 0 0 0 90 84 47 45 80 37 114 61 54 88 129 74 69 52
0 0 1 2 3 5 7 7 4 11 13 5 13 15 15 6 9 8 5 0 0 0 0 1 37 0 34 0 33 16 11 3 80 108 55 63 39 60 84 66 103 75 53 87 99 47 25
0 0 0 2 3 3 7 8 5 9 12 12 6 12 12 10 7 6 1 0 0 0 0 0 0 0 0 10 21 2 14 3 81 99 80 53 56 45 80 129 118 97 25 30 72 54 32
0 0 0 0 2 3 5 7 7 7 9 8 7 8 13 7 4 3 0 0 0 0 0 0 0 0 0 22 7 4 14 4 66 86 54 33 61 90 86 122 46 14 36 33 27 4 0
0 0 0 0 2 2 4 5 8 6 10 10 8 5 9 5 3 2 0 0 0 0 0 0 1 0 6 18 6 15 0 2 55 51 12 3 38 37 5 73 13 37 42 42 20 2 8
0 0 0 0 0 1 2 4 8 4 4 7 6 6 5 6 2 0 0 0 0 0 0 1 2 5 0 0 0 22 1 0 16 27 6 5 10 29 8 29 6 24 26 10 0 0 18
0 1 0 0 0 1 1 2 5 9 3 4 2 4 6 1 1 0 0 0 0 0 5 3 7 0 0 2 5 22 18 5 6 12 9 7 3 18 18 14 18 13 14 3 0 0 23
0 0 0 0 0 0 0 0 4 4 3 3 1 4 1 0 0 0 0 0 0 0 38 1 15 5 0 0 11 20 26 0 6 2 2 7 2 2 30 15 11 19 0 0 1 16 15
0 0 0 0 0 0 0 0 3 8 5 3 1 1 1 0 0 0 0 0 0 0 5 0 14 19 0 0 1 15 27 15 2 2 4 10 5 6 34 27 19 16 0 11 10 40 20
0 0 0 0 0 0 0 0 1 6 7 6 1 0 1 0 0 0 0 0 0 2 0 1 12 23 19 6 2 4 29 4 8 3 4 2 1 16 16 19 15 2 6 6 6 24 18
1 0 0 0 0 0 0 0 0 4 3 4 0 2 0 0 0 0 0 0 10 1 0 0 1 5 6 9 9 9 24 13 15 2 2 4 21 16 14 60 36 55 67 42 54 49 7
0 0 0 0 0 0 0 0 0 1 0 0 0 1 0 0 0 0 0 0 1 0 0 0 0 0 26 1 6 3 9 7 0 3 11 22 12 20 14 25 29 25 31 15 1 1 1
0 0 0 0 0 0 0 0 0 0 0 0 0 0 0 0 0 0 0 4 0 0 0 0 0 9 6 19 16 9 2 3 1 1 37 17 3 0 2 0 19 38 57 0 6 0 1
0 0 0 0 0 0 0 0 0 0 0 0 0 0 0 0 0 0 0 0 0 0 0 0 0 0 4 7 0 3 8 0 0 0 0 0 4 11 1 1 1 33 3 20 33 21 7
0 0 0 0 0 0 0 0 0 0 0 0 0 0 0 0 0 0 2 0 0 0 0 0 0 0 0 4 6 0 0 0 0 0 0 0 0 12 12 27 29 3 16 14 6 15 15
0 0 0 0 0 0 0 0 0 0 0 0 0 0 1 0 0 0 0 0 0 0 0 0 0 0 0 0 17 9 8 0 0 0 0 0 0 7 3 2 2 20 15 26 26 4 5
1 0 0 0 0 0 0 0 0 0 0 0 0 0 0 1 0 0 0 0 0 0 0 0 0 0 0 0 8 10 9 0 0 0 2 0 26 9 13 7 6 28 13 11 18 1 10
2 0 0 0 0 0 0 0 0 0 0 0 0 0 0 0 0 0 0 0 0 0 0 0 0 0 0 0 4 17 4 0 0 4 0 1 4 0 4 0 0 2 4 14 21 43 8
3 2 1 0 0 0 0 0 0 0 0 0 0 0 0 0 0 0 0 0 0 0 0 0 0 0 3 7 14 28 22 15 0 1 8 0 14 2 0 0 0 0 0 6 11 7 15
5 3 3 0 0 0 0 0 0 0 0 0 0 0 0 0 0 0 0 0 0 0 0 0 0 0 0 6 49 100 3 11 75 0 33 5 14 5 4 2 0 0 0 0 0 0 0
5 3 3 0 0 0 0 0 0 0 0 0 0 0 0 0 0 0 0 0 0 0 0 0 0 0 0 0 0 4 6 3 3 21 17 3 2 3 23 1 3 5 0 0 0 0 0
5 6 2 0 0 0 0 0 0 0 0 0 0 0 0 0 0 0 0 0 0 0 0 0 0 0 0 0 0 0 0 1 0 6 6 10 6 10 7 0 8 0 0 0 0 0 0
6 6 3 1 0 0 0 0 0 0 0 0 0 0 0 0 0 0 0 0 0 0 0 0 0 0 0 0 8 12 9 1 1 1 4 12 7 26 29 6 0 0 0 0 0 0 0
9 5 9 0 0 0 0 0 0 0 0 0 0 0 0 0 0 0 0 0 0 0 0 0 0 0 0 0 13 18 12 16 65 4 2 0 5 26 10 12 2 0 0 0 0 0 0
9 6 5 1 0 0 0 0 0 0 0 0 0 0 0 0 0 0 0 0 0 0 0 0 0 0 0 11 16 18 5 13 15 18 1 9 34 42 13 29 5 0 0 0 0 0 0
8 6 7 3 0 0 0 0 0 0 0 0 0 0 0 0 0 0 0 0 0 0 0 0 0 1 0 4 1 2 4 14 13 5 2 13 23 19 27 22 8 0 0 0 0 0 0
7 6 5 4 1 0 0 0 0 0 0 0 0 0 0 0 0 0 0 0 0 0 2 5 0 0 0 0 1 0 0 0 3 12 0 21 2 7 5 0 0 0 0 0 0 0 0

GFSGBSN_con_sbcape_087.txt.gz
CAPE
1 0 0 1 4 10 13 9 8 13 12 14 26 29 15 17 33 9 5 6 4 2 12 124 160 108 90 53 11 0 8 1 12 7 154 242 81 54 7 37 122 105 53 71 92 72 54
3 1 0 0 1 5 10 6 10 12 9 12 23 21 17 4 18 17 13 13 2 0 0 107 129 79 72 37 10 11 4 0 9 100 144 164 79 57 28 26 72 105 83 74 89 82 74
1 2 0 0 0 2 6 9 13 10 11 12 11 17 18 16 5 15 11 11 0 0 0 21 112 13 64 37 28 15 2 0 0 110 134 118 78 17 26 54 66 84 76 92 41 72 76
1 1 0 0 0 0 2 5 6 13 19 9 11 14 16 16 4 7 6 1 0 0 0 0 7 10 19 10 42 39 25 14 77 79 49 58 71 110 101 91 76 50 71 75 62 90 73
3 0 0 0 0 0 0 2 5 8 20 18 11 8 13 12 2 4 4 0 0 0 0 0 2 3 22 36 11 7 6 35 57 84 97 66 64 45 103 95 94 74 37 61 61 68 71
4 1 0 0 0 0 0 1 2 6 19 15 15 7 10 14 4 0 0 0 0 0 0 0 1 2 11 12 3 4 0 38 41 72 1 10 57 55 66 74 22 26 33 43 50 62 50
3 2 0 0 0 0 0 0 1 3 8 10 5 3 11 12 1 1 0 0 0 6 0 2 14 12 13 22 11 5 0 48 48 53 7 8 38 27 13 36 41 18 42 39 39 31 31
4 3 1 0 0 0 0 0 0 1 5 11 7 3 8 10 0 0 0 0 0 0 12 2 1 4 0 2 15 9 13 31 22 31 21 11 62 15 23 43 37 67 56 59 26 27 0
5 2 1 0 0 0 0 0 0 1 3 5 3 2 6 2 0 0 0 0 0 0 15 0 0 2 0 0 7 27 14 5 22 14 19 12 20 8 24 30 38 32 43 44 26 0 7
6 2 1 0 0 0 0 0 0 1 2 3 3 1 1 0 0 0 0 0 0 0 21 3 3 4 3 0 8 11 18 30 16 4 1 0 0 0 21 21 8 34 21 6 0 17 30
5 3 3 0 0 0 0 0 0 1 1 2 4 1 0 0 0 1 0 0 0 0 8 0 9 1 0 4 0 20 27 31 11 4 26 19 8 9 22 5 1 50 26 23 27 28 31
5 3 3 0 0 0 0 0 0 0 1 1 2 1 0 0 4 0 0 0 0 4 0 0 6 9 6 0 0 4 14 11 16 14 13 3 4 11 27 42 24 22 14 34 36 50 40
5 3 1 0 0 0 0 0 0 0 0 0 0 0 1 0 2 0 0 1 0 12 0 0 6 9 0 4 4 1 12 18 33 39 50 6 32 28 11 42 34 27 26 54 39 40 7
6 6 1 0 0 0 0 0 0 0 0 0 0 0 0 0 1 0 6 0 3 0 0 0 0 2 3 1 3 0 10 15 11 7 35 30 33 20 12 33 20 11 38 33 21 19 6
4 5 2 0 0 0 0 0 0 0 0 1 0 2 6 1 4 3 3 2 0 0 0 0 9 11 16 7 8 12 13 11 11 8 49 65 101 7 0 30 38 29 88 43 27 2 1
2 6 4 0 0 0 0 0 0 0 0 0 0 1 5 0 2 7 0 0 0 0 0 0 7 2 5 15 11 16 7 0 6 0 15 18 21 9 7 4 14 35 14 32 47 19 9
1 5 3 0 0 0 0 0 0 0 0 0 0 0 5 1 3 0 0 0 0 0 0 1 0 0 0 8 27 13 6 2 1 0 0 10 16 19 13 23 3 12 11 14 12 6 24
2 8 6 1 0 0 0 0 0 0 0 0 0 0 6 6 0 0 0 0 0 0 0 0 0 0 0 6 13 35 13 32 2 13 6 1 36 93 3 1 14 7 5 9 65 21 15
4 7 9 0 0 0 0 0 0 0 0 0 0 0 0 3 0 0 0 0 0 0 0 0 0 0 0 2 15 18 48 45 35 68 19 5 46 29 43 30 15 35 33 28 21 35 69
1 10 8 0 0 0 0 0 0 0 0 0 0 0 0 0 0 0 0 0 0 0 0 0 0 1 7 15 26 30 41 51 36 41 78 38 27 6 22 4 0 3 1 3 35 56 8
1 8 10 1 0 0 0 0 0 0 0 0 0 0 0 0 0 0 0 0 0 0 0 0 0 6 13 18 15 5 30 48 61 78 51 9 13 12 13 0 0 0 0 0 5 6 24
3 5 10 1 0 0 0 0 0 0 0 0 0 0 0 0 0 0 0 0 0 0 0 0 0 0 0 0 0 0 8 4 53 50 7 13 8 6 5 4 0 0 0 0 4 6 12
6 12 8 2 0 0 0 0 0 0 0 0 0 0 0 0 0 0 0 0 0 0 0 0 0 0 0 0 0 0 0 9 9 3 21 7 4 13 39 12 11 12 0 0 0 0 0
8 8 8 6 1 0 0 0 0 0 0 0 0 0 0 0 0 0 0 0 0 0 0 0 0 0 0 0 0 0 0 2 3 12 2 14 6 23 25 8 28 0 0 0 0 0 0
10 10 10 3 2 1 0 0 0 0 0 0 0 0 0 0 0 0 0 0 0 0 0 0 0 0 0 0 0 3 10 1 3 1 1 13 15 40 58 5 1 0 0 0 0 0 0
11 8 8 4 3 0 0 0 0 0 0 0 0 0 0 0 0 0 0 0 0 0 0 0 0 0 0 1 2 5 13 5 31 3 1 3 7 17 57 57 3 0 0 0 0 0 0
10 10 8 7 4 0 0 0 0 0 0 0 0 0 0 0 0 0 0 0 0 0 0 0 0 0 0 0 18 21 14 7 17 26 2 22 11 8 69 31 7 0 0 0 0 1 0
9 10 9 7 2 0 0 0 0 0 0 0 0 0 0 0 0 0 0 0 0 0 0 0 0 1 2 1 2 5 6 2 2 0 26 35 34 66 58 31 6 0 0 0 2 0 0
8 11 5 3 1 0 0 0 0 0 0 0 0 0 0 0 0 0 0 0 0 0 0 0 0 0 2 3 5 2 1 0 1 4 0 7 11 19 57 21 0 0 0 0 0 0 0

GFSGBSN_con_sbcape_090.txt.gz
CAPE
0 2 0 1 2 5 3 2 6 12 11 7 15 25 25 19 6 27 17 19 4 4 0 27 173 157 90 23 5 1 1 0 0 0 0 156 62 74 23 16 0 1 0 84 88 61 37
3 1 1 0 1 2 5 3 2 5 14 9 5 17 21 23 4 10 21 12 8 0 0 0 109 134 99 1 10 7 0 0 0 23 96 156 68 50 40 80 48 0 0 8 70 95 13
8 5 2 0 0 1 3 2 3 3 8 13 12 7 11 21 4 7 13 9 3 0 0 0 58 30 0 0 9 8 2 0 0 59 131 155 82 112 33 21 97 28 0 50 40 57 68
8 6 3 1 0 0 1 2 2 2 4 11 13 9 10 19 5 5 7 4 0 0 0 12 38 12 1 0 2 2 4 0 20 96 81 37 20 34 34 18 26 61 52 11 3 55 69
14 9 4 1 0 0 1 1 3 2 3 10 10 6 5 6 7 2 3 1 0 0 0 0 0 8 0 6 3 0 2 25 64 43 6 1 13 1 43 11 5 9 33 4 9 21 58
58 10 4 2 0 0 0 0 2 3 2 4 3 2 3 5 4 0 1 0 0 0 0 0 5 1 0 0 0 2 0 28 44 0 0 0 0 0 0 31 0 0 3 19 18 55 36
73 25 8 3 0 0 0 0 1 2 2 6 4 2 6 9 5 0 0 0 0 0 0 0 0 2 0 0 2 3 0 35 9 0 0 0 8 1 0 0 5 6 5 1 2 86 33
82 66 9 3 1 0 0 0 1 1 3 2 3 3 3 5 0 0 0 0 0 0 0 0 0 0 0 0 9 0 2 16 17 0 4 6 13 1 19 16 17 9 0 0 7 54 43
83 85 10 5 1 0 0 0 1 0 3 1 1 2 2 1 0 0 0 0 0 0 5 0 0 0 0 0 4 3 0 7 5 8 14 0 19 8 16 32 28 24 8 23 17 3 0
69 84 21 7 1 0 0 0 0 0 3 0 0 2 1 0 0 0 0 0 0 0 0 0 0 1 0 0 0 0 0 2 1 8 0 4 4 0 19 21 8 21 20 3 5 8 0
70 61 23 8 2 0 0 0 0 0 3 2 0 1 0 0 0 0 0 0 0 0 0 0 1 0 0 0 0 1 0 0 0 0 7 12 1 1 25 5 2 20 23 8 3 1 5
70 60 9 7 1 0 0 0 0 0 2 2 0 0 0 0 5 0 0 0 0 1 0 0 1 4 4 0 0 0 1 3 7 6 1 1 0 3 9 28 13 50 28 22 11 9 3
31 69 2 5 4 0 0 0 0 0 1 0 0 0 0 1 0 0 0 0 2 0 0 0 1 2 0 0 1 0 12 5 4 4 0 1 0 0 2 14 17 35 20 17 20 15 0
49 71 12 3 6 0 0 0 0 0 0 0 0 0 0 1 0 0 0 0 0 0 0 0 0 1 1 0 1 0 1 0 0 2 2 0 1 0 0 8 0 13 11 5 5 0 0
52 31 31 4 7 2 0 0 0 0 0 0 0 1 2 0 0 0 0 0 0 0 0 0 2 3 6 1 0 2 0 0 0 2 25 3 0 0 0 2 3 0 0 8 0 6 0
69 16 5 5 8 1 0 0 0 0 0 0 0 1 2 0 0 1 0 0 0 0 0 0 0 0 1 8 8 13 8 0 0 8 34 24 9 1 1 2 5 23 1 13 1 0 0
51 22 3 6 10 3 0 0 0 0 0 0 0 2 0 2 3 0 0 0 0 0 0 0 0 0 0 0 6 11 16 4 3 7 23 34 8 14 0 3 5 6 28 14 1 0 0
43 52 3 6 8 2 0 0 0 0 1 3 0 2 1 4 3 0 1 0 0 0 0 0 0 0 0 0 0 3 36 16 66 44 3 1 4 3 1 0 0 2 3 3 3 0 0
90 76 46 4 6 2 0 1 0 0 5 0 0 1 0 2 1 0 0 0 0 0 0 0 0 0 0 0 1 0 12 81 66 56 3 1 1 6 54 6 17 17 0 1 0 0 0
38 15 54 4 4 1 1 0 0 0 0 0 0 0 0 0 0 0 0 0 0 0 0 0 0 0 0 0 0 8 20 34 51 45 172 15 5 0 0 0 0 3 0 0 6 5 0
88 10 14 6 6 3 1 0 0 0 0 0 0 0 0 0 0 0 0 0 0 0 0 0 0 0 0 0 0 0 0 0 0 2 33 1 0 2 0 13 0 0 0 6 5 0 0
57 27 19 9 4 5 1 1 1 0 3 0 0 0 0 0 0 0 0 0 0 0 0 0 0 0 0 0 0 0 0 0 0 0 3 8 5 0 0 11 3 0 0 2 0 0 0
47 4 60 12 8 7 1 0 0 0 0 0 0 0 0 0 0 0 0 0 0 0 0 0 0 0 0 0 0 0 0 0 1 0 0 2 4 7 5 2 1 3 0 0 0 0 0
29 3 19 11 9 5 1 0 0 1 0 0 0 0 0 0 0 0 0 0 0 0 0 0 0 0 0 0 0 0 0 0 0 1 6 0 0 0 9 2 1 0 0 0 0 0 0
17 16 30 15 9 9 1 0 0 0 0 0 0 0 0 0 0 0 0 0 0 0 0 0 0 0 0 0 0 0 0 0 0 0 1 1 1 0 1 0 0 0 0 0 0 0 0
22 16 59 18 8 9 2 0 0 0 0 0 0 0 0 0 0 0 0 0 0 0 0 0 0 0 0 0 0 0 0 1 10 1 0 0 3 13 2 3 4 0 0 0 0 0 0
9 45 48 12 12 3 0 0 0 0 0 0 0 0 0 0 0 0 0 0 0 0 0 0 0 0 0 0 0 5 0 0 0 9 0 14 13 0 6 9 2 0 0 0 0 0 0
34 32 18 10 13 3 0 0 0 0 0 0 0 0 0 0 0 0 0 0 0 0 0 0 0 0 0 0 0 1 0 0 0 1 4 0 1 2 5 18 1 0 0 0 1 1 0
8 38 16 11 9 0 0 0 0 0 0 0 0 0 0 0 0 0 0 0 0 0 0 0 0 0 0 0 0 0 0 0 0 0 0 1 1 2 42 1 0 0 0 0 0 0 0

GFSGBSN_con_sbcape_093.txt.gz
CAPE
3 4 3 0 0 0 2 3 5 5 9 5 8 6 11 14 15 5 15 16 20 4 0 0 43 157 61 1 0 0 6 0 0 0 0 41 5 20 36 1 5 0 0 22 4 55 35
52 8 4 2 0 0 1 1 2 4 8 11 10 8 4 8 5 5 6 4 12 2 0 0 44 103 18 0 0 0 0 0 0 0 20 49 10 34 11 5 0 0 0 0 0 2 25
118 56 7 6 2 0 0 1 1 3 4 8 14 10 6 7 3 2 3 4 5 0 0 0 46 28 0 0 0 0 0 0 0 8 66 71 46 32 7 10 32 6 19 0 0 2 8
167 123 39 9 4 1 0 0 0 2 4 6 13 10 6 7 3 1 0 0 2 0 0 0 20 5 0 0 0 0 0 0 8 22 34 1 1 13 14 12 47 54 0 0 0 2 1
184 145 113 35 9 2 0 0 0 1 2 2 8 6 4 3 4 0 0 0 0 0 0 3 0 0 0 0 0 0 0 32 6 1 0 0 4 3 9 0 8 0 4 1 0 1 9
185 155 104 72 12 5 0 0 0 1 1 1 8 7 2 3 7 0 0 0 0 0 0 0 0 0 0 0 0 0 0 1 0 0 0 0 0 0 0 0 0 0 0 1 0 0 2
30 58 130 76 9 5 2 0 0 0 0 0 5 3 2 2 4 0 0 0 0 0 0 0 0 0 0 0 0 0 0 2 0 0 0 0 0 0 0 0 0 2 11 11 16 32 4
8 29 60 79 8 8 3 0 0 0 0 0 3 1 1 2 0 0 0 0 0 0 0 0 0 0 0 0 0 0 0 0 0 0 0 0 0 0 0 0 0 0 0 2 24 122 38
10 9 33 71 26 8 3 0 0 0 0 0 0 0 0 0 0 0 0 0 0 0 0 0 0 0 0 0 0 0 0 0 0 0 1 0 0 0 0 3 0 0 0 0 2 20 5
11 12 9 16 66 8 4 2 0 0 0 0 0 0 0 0 0 0 0 0 0 0 0 0 0 0 0 0 0 0 0 0 0 0 0 0 0 0 0 3 4 16 28 24 3 0 0
13 15 24 19 40 4 5 3 0 0 0 0 0 0 0 0 0 0 0 0 0 0 0 0 0 0 0 0 0 0 0 0 0 0 0 0 0 0 0 0 0 2 1 9 0 0 0
25 9 32 7 31 6 7 4 0 0 0 0 0 0 0 0 0 0 0 0 0 0 0 0 0 0 3 0 0 0 0 0 0 0 0 0 0 0 0 4 3 15 9 0 0 0 0
33 38 19 23 21 3 6 6 0 0 0 0 0 0 0 0 0 0 0 0 0 0 0 0 0 0 0 0 0 0 0 0 0 0 0 0 0 0 0 0 9 19 30 1 0 0 0
72 67 21 27 15 40 6 5 1 0 0 0 0 0 0 0 0 0 0 0 0 0 0 0 0 0 0 0 0 0 0 14 2 2 0 0 0 0 0 0 0 0 1 0 0 0 0
77 124 37 33 10 31 10 3 2 3 1 0 0 0 0 0 0 0 0 0 0 0 0 0 0 0 0 0 0 0 0 0 0 0 20 0 0 0 0 0 0 0 7 0 0 0 0
111 156 46 18 7 32 11 6 10 3 0 1 0 0 0 0 0 0 0 0 0 0 0 0 0 0 0 0 0 0 0 0 0 0 0 14 1 0 0 3 1 3 0 14 0 0 0
177 109 26 11 2 32 9 11 15 1 0 0 0 0 0 0 0 0 0 0 0 0 0 0 0 0 0 0 0 0 1 0 14 7 0 32 18 6 8 2 0 0 2 15 0 0 0
101 129 44 6 20 39 9 16 10 2 1 1 0 0 1 0 0 0 0 0 0 0 0 0 0 0 0 0 0 0 12 39 47 32 8 1 20 6 71 0 2 2 0 1 0 0 0
96 72 47 55 52 38 8 17 7 4 2 0 0 2 1 1 0 0 0 0 0 0 0 0 0 0 0 0 0 0 0 10 8 26 24 7 2 6 5 8 8 6 3 1 0 0 0
83 79 24 65 34 15 7 14 6 4 0 0 0 0 0 2 0 0 0 0 0 0 0 0 0 0 0 0 0 0 0 0 0 0 72 6 0 1 0 0 0 3 0 1 0 0 0
26 66 53 67 25 27 10 12 3 1 0 0 0 0 0 0 0 0 0 0 0 0 0 0 0 0 0 0 0 0 0 0 0 0 12 0 9 8 1 1 4 6 0 6 0 0 0
83 55 34 63 30 16 9 12 2 0 0 0 0 0 0 0 0 0 0 0 0 0 0 0 0 0 0 0 0 0 0 0 0 0 0 2 9 5 0 0 3 3 3 0 4 0 0
51 22 29 62 8 12 10 10 0 1 0 0 0 0 0 0 0 0 0 0 0 0 0 0 0 0 0 0 0 0 0 0 0 0 0 0 0 0 0 4 0 1 0 0 0 0 0
31 44 27 21 17 18 10 3 0 1 0 0 0 0 0 0 0 0 0 0 0 0 0 0 0 0 0 0 0 0 0 0 0 0 0 0 0 0 0 1 0 0 0 0 0 0 0
25 5 30 8 13 12 12 1 0 1 0 0 0 0 0 0 0 0 0 0 0 0 0 0 0 0 0 0 0 0 0 0 0 0 0 0 0 0 0 1 0 0 0 0 0 0 0
1 3 28 17 14 5 10 2 0 1 0 0 0 0 0 0 0 0 0 0 0 0 0 0 0 0 0 0 0 0 0 0 0 10 0 0 0 1 2 0 5 0 0 0 0 0 0
4 3 20 1 11 8 11 10 0 0 0 0 0 0 0 0 0 0 0 0 0 0 0 0 0 0 0 0 0 0 0 0 0 0 2 7 8 3 5 4 0 0 0 0 0 0 0
2 11 30 3 30 17 15 11 0 0 0 0 0 0 0 0 0 0 0 0 0 0 0 0 0 0 0 0 0 0 0 0 0 0 0 0 0 0 2 4 1 0 0 0 0 0 0
8 29 23 25 6 17 20 9 2 0 0 0 0 0 0 0 0 0 0 0 0 0 0 0 0 0 0 0 0 0 0 0 0 0 0 0 1 1 27 0 0 0 0 0 0 0 0

GFSGBSN_con_sbcape_096.txt.gz
CAPE
121 115 76 5 7 5 0 0 0 0 1 3 8 7 6 9 18 4 5 3 3 16 7 0 9 54 12 0 0 0 9 0 0 1 7 0 21 33 41 47 38 6 3 0 2 3 0
220 156 117 91 6 6 5 1 0 1 1 2 4 12 6 8 16 3 3 2 3 8 2 0 10 30 0 0 0 0 0 0 0 0 0 0 13 4 9 55 0 0 8 0 0 0 16
75 243 190 125 60 8 4 2 1 0 1 2 2 7 5 7 7 4 1 0 0 2 0 0 0 0 0 0 0 0 0 0 0 15 0 0 0 3 2 13 3 11 4 0 0 1 0
24 32 81 225 136 40 5 3 2 0 1 2 3 2 1 4 5 3 0 0 0 0 0 0 0 0 0 0 0 0 0 5 1 11 16 7 3 1 1 3 0 0 0 6 5 6 9
26 20 17 9 155 142 8 4 4 1 1 1 3 0 0 1 7 4 0 0 0 0 0 0 0 0 0 0 0 0 0 4 0 0 0 0 0 0 4 10 2 0 3 4 5 12 38
20 15 14 15 13 148 51 6 4 2 2 1 2 0 0 0 1 3 0 0 0 0 0 0 0 0 0 0 0 0 0 0 0 0 0 0 0 0 0 0 1 0 0 0 0 10 35
19 22 14 24 9 14 77 7 7 3 3 1 1 0 0 0 2 1 0 0 0 0 0 0 0 0 0 0 0 0 0 0 0 0 0 0 0 0 0 0 0 0 6 5 0 0 9
11 9 8 11 23 8 33 6 6 4 3 0 1 0 0 0 0 0 0 0 0 0 0 0 0 0 0 0 0 0 0 0 0 0 0 0 0 0 0 0 0 0 0 0 0 9 0
23 5 2 10 22 25 8 25 7 6 2 0 0 0 0 0 0 0 0 0 0 0 0 0 0 0 0 0 0 0 0 0 0 0 0 0 0 0 0 0 0 0 0 0 0 5 0
20 23 5 9 19 29 10 23 7 5 4 2 0 0 0 0 0 0 0 0 0 0 0 0 0 0 0 0 0 0 0 0 0 0 0 0 0 0 0 3 0 0 0 0 3 0 0
13 16 24 5 20 30 14 17 8 7 12 4 0 0 0 0 0 0 0 0 0 0 0 0 0 0 0 0 0 0 0 0 0 0 0 0 0 0 0 0 0 0 0 0 1 0 0
2 8 14 22 15 46 16 6 28 6 11 7 0 0 0 0 0 0 0 0 0 0 0 0 0 0 0 0 0 0 0 0 0 0 0 0 0 0 0 0 0 0 0 0 0 0 0
10 6 9 21 7 38 16 18 49 8 13 9 2 0 0 0 0 0 0 0 0 0 0 0 0 0 0 0 0 0 0 0 0 0 0 0 0 0 0 0 1 7 7 0 11 0 0
23 9 8 22 3 15 15 15 43 10 15 17 4 1 0 0 0 0 0 0 0 0 0 0 0 0 0 0 0 0 0 0 0 0 0 0 0 0 0 0 0 0 0 0 0 0 0
28 29 29 16 12 14 24 12 27 16 27 11 12 0 0 0 0 0 0 0 0 0 0 0 0 0 0 0 0 0 0 0 0 0 3 0 0 0 0 0 0 1 0 0 0 0 0
100 76 97 15 19 25 27 16 19 18 38 13 0 0 0 0 0 0 0 0 0 0 0 0 0 0 0 0 0 0 0 0 0 0 0 1 14 0 0 7 5 0 0 0 0 0 0
148 114 113 53 119 124 59 7 13 24 25 3 0 0 0 0 0 0 0 0 0 0 0 0 0 0 0 0 0 0 0 0 5 0 0 4 12 1 24 10 0 1 1 0 0 0 0
146 130 97 95 166 119 66 10 32 31 34 1 0 2 0 0 0 0 0 0 0 0 0 0 0 0 0 0 0 0 0 10 24 36 35 21 81 16 0 21 0 3 0 4 0 0 0
185 133 112 99 139 96 41 21 39 40 48 0 0 4 0 0 0 0 0 0 0 0 0 0 0 0 0 0 0 0 0 0 0 7 38 50 6 0 2 5 3 13 1 1 0 0 0
166 134 114 74 73 80 17 50 36 37 41 0 0 1 0 10 0 0 0 0 0 0 0 0 0 0 0 0 0 0 0 0 0 0 48 39 0 6 1 8 6 4 7 7 1 0 0
92 102 34 50 71 71 65 67 16 29 8 0 0 0 0 0 0 0 0 0 0 0 0 0 0 0 0 0 0 0 0 0 0 0 0 1 4 0 1 1 5 5 3 7 1 0 0
67 46 40 83 56 36 50 44 14 27 0 0 0 0 0 0 0 0 0 0 0 0 0 0 0 0 0 0 0 0 0 0 0 0 0 0 5 0 0 0 0 0 8 15 9 2 2
39 33 81 57 66 53 50 33 15 13 1 0 0 0 0 0 0 0 0 0 0 0 0 0 0 0 0 0 0 0 0 0 0 0 0 0 0 0 0 0 0 0 0 1 0 0 0
44 64 60 37 10 19 20 8 13 21 0 0 0 0 0 0 0 0 0 0 0 0 0 0 0 0 0 0 0 0 0 0 0 0 0 0 0 0 0 0 0 0 0 0 0 0 0
47 63 37 11 47 13 18 10 13 9 0 0 0 0 0 0 0 0 0 0 0 0 0 0 0 0 0 0 0 0 0 0 0 0 0 0 0 0 0 0 0 0 0 0 0 0 0
24 35 12 12 12 1 25 12 8 15 0 0 0 0 0 0 0 0 0 0 0 0 0 0 0 0 0 0 0 0 0 0 0 0 0 0 0 1 0 1 0 0 0 0 0 0 0
25 11 2 5 2 6 19 12 18 14 0 0 0 0 0 0 0 0 0 0 0 0 0 0 0 0 0 0 0 0 0 0 0 0 0 0 1 0 0 0 0 0 0 0 0 0 0
27 14 10 3 1 9 23 9 9 27 0 0 0 0 0 0 0 0 0 0 0 0 0 0 0 0 0 0 0 0 0 0 0 0 0 0 0 0 0 5 0 0 0 0 0 0 0
38 19 3 0 7 7 32 19 19 36 0 0 0 0 0 0 0 0 0 0 0 0 0 0 0 0 0 0 0 0 0 0 0 0 0 0 0 1 0 0 0 0 0 0 0 0 0

GFSGBSN_con_sbcape_099.txt.gz
CAPE
45 69 86 117 136 81 16 5 1 1 4 11 13 11 11 1 3 12 6 10 10 7 6 5 13 18 0 0 0 0 10 0 0 14 6 0 41 7 17 3 29 19 4 0 2 16 16
48 36 57 51 90 157 59 10 3 1 1 6 11 12 13 1 1 1 3 8 5 2 3 4 9 0 0 0 0 0 0 0 0 0 0 0 0 0 1 2 4 21 19 0 0 0 1
23 26 40 26 47 19 122 36 5 3 3 1 10 11 12 1 2 0 2 5 2 0 0 1 1 0 0 0 0 0 0 0 0 0 0 1 1 1 0 1 12 50 17 0 0 0 0
16 24 29 29 32 37 23 69 5 4 4 1 6 10 6 3 1 0 0 1 0 0 0 0 0 0 0 0 0 0 0 4 0 2 2 0 3 0 1 14 75 26 4 3 2 0 0
12 9 12 19 12 20 26 18 5 3 5 4 3 8 7 6 1 0 0 0 0 0 0 0 0 0 0 0 0 0 0 0 0 0 0 0 0 0 0 14 0 4 5 4 4 10 0
31 19 15 12 12 14 31 27 32 5 7 6 3 4 5 0 2 0 0 0 0 0 0 0 0 0 0 0 0 0 0 0 0 0 0 0 0 0 0 0 0 0 0 4 2 14 2
21 28 23 5 13 16 36 26 29 28 6 4 2 3 4 0 0 0 0 0 0 0 0 0 0 0 0 0 0 0 0 0 0 0 0 0 0 0 0 0 0 0 0 0 0 0 5
21 26 25 24 8 19 23 27 10 25 11 6 12 5 1 0 0 0 0 0 0 0 0 0 0 0 0 0 0 0 0 0 0 0 0 0 0 0 0 0 0 0 0 0 0 0 25
21 22 22 18 26 10 17 38 14 7 46 9 12 6 0 0 0 0 0 0 0 0 0 0 0 0 0 0 0 0 0 0 0 0 0 0 0 0 0 0 0 0 0 0 0 0 3
33 31 24 25 23 19 14 24 12 31 34 12 10 10 0 0 0 0 0 0 0 0 0 0 0 0 0 0 0 0 0 0 0 0 0 0 0 0 0 0 0 0 0 0 0 0 1
28 34 38 24 27 28 1 22 8 35 25 12 17 20 0 3 0 0 0 0 0 0 0 0 0 0 0 0 0 0 0 0 0 0 0 0 0 0 0 0 0 0 0 0 13 0 0
20 28 30 33 21 26 14 15 2 5 12 13 22 13 6 1 0 0 0 0 0 0 0 0 0 0 0 0 0 0 0 0 0 0 0 0 0 0 0 0 0 0 0 0 0 0 5
70 67 71 35 31 24 23 14 5 18 9 11 18 24 11 0 0 0 0 0 0 0 0 0 0 0 0 0 0 0 0 0 0 0 0 0 0 0 0 0 0 1 0 7 18 4 0
108 67 69 69 33 24 23 16 1 18 30 7 60 10 4 0 0 0 0 0 0 0 0 0 0 0 0 0 0 0 0 0 0 0 0 0 0 0 0 0 0 0 0 0 1 0 0
102 87 93 83 46 31 31 14 5 15 51 12 57 0 0 0 0 0 0 0 0 0 0 0 0 0 0 0 0 0 0 0 0 0 0 0 0 0 0 0 0 1 0 0 0 0 0
127 119 93 71 51 31 33 16 11 35 57 20 16 2 0 0 0 0 0 0 0 0 0 0 0 0 0 0 0 0 0 0 0 0 0 0 7 0 0 3 1 0 0 0 0 0 0
142 116 51 97 101 123 28 11 12 24 72 45 41 36 3 0 0 0 0 0 0 0 0 0 0 0 0 0 0 0 0 0 2 0 0 1 5 0 20 13 1 4 1 0 0 0 0
144 131 72 124 141 189 21 32 28 64 74 49 36 44 0 0 0 0 0 0 0 0 0 0 0 0 0 0 0 0 0 0 0 12 6 11 8 1 0 8 3 5 23 1 0 0 0
149 164 83 93 149 106 67 27 33 53 74 26 31 10 2 0 1 3 0 0 0 0 0 0 0 0 0 0 0 0 0 0 0 0 12 17 10 2 0 38 7 86 0 17 0 0 0
180 197 160 128 146 152 77 73 42 72 82 4 0 2 1 2 0 1 0 0 0 0 0 0 0 0 0 0 0 0 0 0 0 0 17 13 0 9 0 2 14 17 12 13 2 0 0
131 142 94 103 84 31 12 26 30 73 85 2 0 0 0 2 1 1 0 0 0 0 0 0 0 0 0 0 0 0 0 0 0 0 0 0 1 2 0 1 15 1 9 31 0 0 0
43 70 47 16 22 25 82 72 67 72 40 11 0 0 0 0 0 0 0 0 0 0 0 0 0 0 0 0 0 0 0 0 0 0 0 0 0 0 0 0 0 0 0 6 14 5 2
31 40 49 94 58 45 37 29 33 9 39 2 0 0 0 0 0 0 0 0 0 0 0 0 0 0 0 0 0 0 0 0 0 0 0 0 0 0 0 0 0 0 0 0 2 1 1
21 28 36 72 50 25 35 26 9 7 11 0 0 0 0 0 0 0 0 0 0 0 0 0 0 0 0 0 0 0 0 0 0 0 0 0 0 0 0 0 0 0 0 0 0 0 0
28 32 44 51 12 19 15 11 7 0 5 0 0 0 0 0 0 0 0 0 0 0 0 0 0 0 0 0 0 0 0 0 0 0 0 0 0 0 0 0 0 0 0 0 0 0 0
30 15 53 47 8 22 1 11 7 7 3 0 0 0 0 0 0 0 0 0 0 0 0 0 0 0 0 0 0 0 0 0 0 0 0 0 0 0 0 0 0 0 0 0 0 0 0
31 17 31 47 11 3 3 12 7 7 14 0 0 0 0 0 0 0 0 0 0 0 0 0 0 0 0 0 0 0 0 0 0 0 0 0 0 0 0 0 0 0 0 0 0 0 0
43 11 10 29 10 0 10 6 5 18 12 0 0 0 0 0 0 0 0 0 0 0 0 0 0 0 0 0 0 0 0 0 0 0 0 0 0 0 0 0 0 0 0 0 0 0 0
47 8 13 24 0 1 5 36 16 21 0 0 0 0 0 0 0 0 0 0 0 0 0 0 0 0 0 0 0 0 0 0 0 0 0 0 0 0 0 0 0 0 0 0 0 0 0

GFSGBSN_con_sbcape_102.txt.gz
CAPE
9 15 12 20 31 27 70 27 15 3 4 3 1 2 1 11 10 10 13 9 5 7 11 3 18 26 0 0 0 0 0 0 0 18 0 6 59 24 3 3 0 0 5 17 15 23 17
20 17 25 27 29 23 26 10 21 10 4 3 1 1 1 5 6 10 9 9 4 2 3 0 19 16 0 0 0 0 0 0 0 0 0 0 0 0 0 0 0 8 21 2 3 1 0
14 11 11 18 19 30 21 15 21 29 6 5 2 1 3 2 5 7 7 7 2 0 0 0 11 0 0 0 0 0 0 0 0 0 0 0 0 0 0 0 0 12 5 0 10 0 0
19 21 14 16 18 17 24 41 42 39 44 8 5 5 3 1 8 6 5 6 1 0 0 0 4 0 0 0 0 0 0 0 0 0 0 0 1 0 5 0 13 4 0 0 1 4 0
17 18 19 22 18 20 25 21 62 45 37 28 6 9 15 0 5 3 5 2 0 0 0 0 0 0 0 0 0 0 0 0 0 0 0 3 0 0 0 5 25 11 2 1 2 24 0
24 22 26 19 22 23 17 17 34 20 42 51 8 14 19 0 0 0 6 0 0 0 0 0 0 0 0 0 0 0 0 0 0 0 0 0 0 0 0 0 1 9 0 3 1 23 0
53 45 32 30 25 21 27 20 20 38 35 34 43 18 20 6 0 0 1 0 0 0 0 0 0 0 0 0 0 0 0 0 0 0 0 0 0 0 0 0 0 0 0 0 9 24 0
29 31 33 23 34 35 22 15 15 12 28 14 49 8 11 20 0 4 0 0 0 0 0 0 0 0 0 0 0 0 0 0 0 0 0 0 0 0 0 0 0 0 0 0 19 21 4
28 41 34 19 30 23 25 28 12 7 6 32 11 3 34 4 0 1 0 0 0 0 0 0 0 0 0 0 0 0 0 0 0 0 0 0 0 0 0 0 0 0 0 0 0 23 19
58 49 32 31 36 29 21 23 13 7 9 13 16 18 36 0 0 0 0 0 0 0 0 0 0 0 0 0 0 0 0 0 0 0 0 0 0 0 0 0 0 0 0 0 0 0 0
73 69 62 57 57 33 34 31 19 7 8 0 31 9 25 18 0 0 0 0 0 0 0 0 0 0 0 0 0 0 0 0 0 0 0 0 0 0 0 0 0 0 0 0 1 0 0
71 89 78 68 69 66 55 37 18 7 13 13 31 20 20 28 0 0 0 0 0 0 0 0 0 0 0 0 0 0 0 0 0 0 0 0 0 0 0 0 0 0 0 0 0 0 11
70 72 80 83 88 72 81 57 11 6 23 16 21 13 14 4 0 0 0 0 0 0 0 0 0 0 0 0 0 0 0 0 0 0 0 0 0 0 0 0 0 0 6 13 13 3 0
81 65 66 73 87 94 85 71 10 1 27 35 23 18 27 0 0 0 0 0 0 0 0 0 0 0 0 0 0 0 0 0 0 0 0 0 0 0 0 0 0 0 0 0 0 0 0
82 92 87 73 95 114 84 78 6 8 37 63 18 8 4 3 0 0 0 0 0 0 0 0 0 0 0 0 0 0 0 0 0 0 0 0 0 0 0 0 0 0 0 0 0 0 0
71 84 92 80 84 117 121 68 1 2 40 79 5 21 11 0 0 0 6 0 0 0 0 0 0 0 0 0 0 0 0 0 0 0 0 0 4 0 0 5 1 0 0 0 2 0 0
101 99 103 124 138 127 76 54 5 7 19 63 14 9 8 0 0 13 4 0 0 0 0 0 0 0 0 0 0 0 0 0 0 0 0 2 15 0 4 4 1 43 83 0 0 0 0
88 136 138 175 9 3 77 37 1 10 30 30 11 12 15 0 16 15 1 0 0 0 0 0 0 0 0 0 0 0 0 0 0 0 0 0 32 0 0 5 48 49 41 3 0 0 0
149 105 167 113 5 38 75 9 17 16 53 13 10 23 10 1 3 7 5 0 0 0 0 0 0 0 0 0 0 0 0 0 0 0 0 0 2 0 0 2 33 101 34 10 5 0 0
89 59 104 86 89 109 82 84 46 43 48 40 21 4 9 16 4 1 3 0 0 0 0 0 0 0 0 0 0 0 0 0 0 0 0 1 0 0 0 0 0 0 0 2 9 0 0
73 22 51 46 56 59 76 107 49 41 54 54 23 3 0 2 3 6 0 0 0 0 0 0 0 0 0 0 0 0 0 0 0 0 0 0 0 0 2 0 4 0 0 0 8 1 0
79 18 21 31 19 17 26 2 13 45 76 36 0 0 0 0 0 5 0 0 0 0 0 0 0 0 0 0 0 0 0 0 0 0 0 0 0 0 0 0 0 0 0 1 3 0 14
59 44 26 13 46 94 19 35 47 74 105 49 0 0 0 0 0 0 0 0 0 0 0 0 0 0 0 0 0 0 0 0 0 0 0 0 0 0 0 0 0 0 0 0 0 1 8
39 40 30 7 50 56 32 22 52 91 56 0 0 0 0 0 0 0 0 0 0 0 0 0 0 0 0 0 0 0 0 0 0 0 0 0 0 0 0 0 0 0 0 0 0 0 1
37 29 38 7 44 31 52 60 31 10 61 11 0 0 0 0 0 0 0 0 0 0 0 0 0 0 0 0 0 0 0 0 0 0 0 0 0 0 0 0 0 0 0 0 0 5 0
43 23 40 10 23 56 63 7 15 7 0 0 0 0 0 0 0 0 0 0 0 0 0 0 0 0 0 0 0 0 0 0 0 0 0 0 0 0 0 0 0 0 0 0 0 0 0
49 34 21 24 3 19 31 18 13 2 0 0 0 0 0 0 0 0 0 0 0 0 0 0 0 0 0 0 0 0 0 0 0 0 0 0 1 0 0 0 0 0 0 0 0 0 0
45 44 19 35 6 12 12 9 8 4 10 0 0 0 0 0 0 0 0 0 0 0 0 0 0 0 0 0 0 0 0 0 0 0 0 0 0 0 0 0 0 0 0 0 0 0 0
45 45 25 39 13 12 0 0 5 23 18 0 0 0 0 0 0 0 0 0 0 0 0 0 0 0 0 0 0 0 0 0 0 0 0 0 0 0 0 0 0 0 0 0 0 0 0

GFSGBSN_con_sbcape_105.txt.gz
CAPE
20 9 15 13 13 13 8 5 9 24 8 37 16 8 7 3 9 7 8 8 13 15 8 4 0 23 0 0 0 0 0 0 0 26 14 28 55 68 2 0 0 0 0 0 0 1 57
30 28 21 21 17 18 19 9 4 15 19 15 39 11 6 8 6 4 3 8 9 18 4 1 0 10 0 0 0 0 0 0 0 0 4 0 0 1 0 0 0 0 0 0 0 3 5
28 31 15 19 28 22 16 17 16 27 23 18 22 14 7 22 5 12 1 3 7 13 1 1 0 0 0 0 0 0 0 0 0 0 0 0 0 3 0 1 0 0 0 0 1 4 3
46 39 26 19 14 17 20 15 26 14 24 8 19 30 3 24 7 3 7 1 2 5 1 0 0 0 0 0 0 0 0 0 0 0 0 0 4 0 7 0 17 0 0 3 0 0 0
60 47 45 40 21 22 27 15 12 12 11 2 4 28 6 9 15 11 8 0 0 0 0 0 0 0 0 0 0 0 0 0 0 0 0 0 0 0 18 26 17 1 0 0 0 0 14
67 68 66 69 63 61 45 21 18 6 8 6 2 5 15 3 2 5 6 0 0 0 0 0 0 0 0 0 0 0 0 0 0 0 0 0 0 0 0 0 0 2 1 1 0 0 13
71 60 51 37 53 58 55 51 24 7 4 5 19 26 18 0 0 1 0 0 0 0 0 0 0 0 0 0 0 0 0 0 0 0 0 0 1 0 0 0 0 0 0 0 1 0 18
72 82 73 55 38 51 33 46 28 14 7 8 5 20 27 0 0 3 0 0 0 0 0 0 0 0 0 0 0 0 0 0 0 0 0 0 0 0 0 0 0 0 0 0 0 13 4
55 48 59 63 71 64 63 33 45 11 5 11 8 12 7 13 0 0 0 0 0 0 0 0 0 0 0 0 0 0 0 0 0 0 0 0 0 0 0 0 0 0 0 0 0 13 14
38 42 41 56 75 88 90 83 52 0 0 14 7 37 7 7 0 0 0 0 0 0 0 0 0 0 0 0 0 0 0 0 0 0 0 0 0 0 0 0 0 0 0 0 9 20 2
26 34 34 41 55 83 105 99 101 20 5 16 13 9 15 1 0 0 0 0 0 0 0 0 0 0 0 0 0 0 0 0 0 0 0 0 0 0 0 0 0 0 0 1 11 0 0
22 20 29 44 68 66 95 106 111 47 19 16 14 13 38 21 2 0 0 0 0 0 0 0 0 0 0 0 0 0 0 0 0 0 0 0 0 0 0 0 0 0 0 0 0 0 2
37 43 42 50 67 68 75 91 112 81 23 23 0 2 25 8 0 0 0 0 0 0 0 0 0 0 0 0 0 0 0 0 0 0 0 0 0 0 0 0 0 0 0 8 22 27 0
47 45 50 60 77 83 83 96 111 91 10 12 6 17 12 0 0 0 0 0 0 0 0 0 0 0 0 0 0 0 0 0 0 0 0 0 0 0 0 0 1 0 0 0 0 0 0
43 53 73 78 89 93 105 96 113 86 28 2 4 3 11 4 0 0 0 0 0 0 0 0 0 0 0 0 0 0 0 0 0 0 0 0 0 0 0 6 3 0 1 0 0 0 0
46 55 98 109 128 153 138 143 113 63 16 19 28 6 10 7 0 0 0 0 0 0 0 0 0 0 0 0 0 0 0 0 0 0 0 0 0 0 1 10 1 7 0 58 12 0 0
38 49 85 106 107 60 87 155 101 20 2 47 27 3 17 0 0 0 5 0 0 0 0 0 0 0 0 0 0 0 0 0 0 0 0 0 3 0 0 10 0 88 80 1 1 0 0
51 69 75 70 43 0 77 49 58 10 0 30 28 9 10 1 8 0 0 0 0 0 0 0 0 0 0 0 0 0 0 0 0 0 0 0 10 0 0 1 26 23 21 3 29 0 0
42 65 83 65 39 12 31 53 32 9 9 31 10 17 17 15 3 5 1 4 0 0 0 0 0 0 0 0 0 0 0 0 0 0 0 0 0 0 0 0 0 0 0 1 3 0 0
44 47 84 64 41 31 39 39 29 42 49 16 32 5 16 34 6 0 0 0 0 0 0 0 0 0 0 0 0 0 0 0 0 0 0 0 0 0 0 0 0 0 0 0 0 12 0
52 39 79 55 53 21 29 9 8 34 37 26 18 8 3 2 9 0 0 0 0 0 0 0 0 0 0 0 0 0 0 0 0 0 0 0 0 0 0 0 0 4 2 0 0 0 8
42 49 66 70 20 44 61 58 29 34 61 0 17 1 0 0 1 2 0 0 0 0 0 0 0 0 0 0 0 0 0 0 0 0 0 0 0 0 0 0 0 0 0 0 0 0 0
29 47 55 70 13 34 88 40 15 74 33 0 23 0 0 0 0 1 0 0 0 0 0 0 0 0 0 0 0 0 0 0 0 0 0 0 0 0 0 0 0 0 0 0 0 0 4
21 41 55 50 57 85 50 61 1 9 37 6 9 0 0 0 0 0 0 0 0 0 0 0 0 0 0 0 0 0 0 0 0 0 0 0 0 0 0 0 0 0 0 0 0 3 1
18 41 54 24 26 34 30 28 7 17 25 13 0 0 0 0 0 0 0 0 0 0 0 0 0 0 0 0 0 0 0 0 0 0 0 0 0 0 0 1 0 0 0 0 0 4 5
16 27 53 27 28 53 27 32 44 23 10 3 0 0 0 0 0 0 0 0 0 0 0 0 0 0 0 0 0 0 0 0 0 0 0 0 0 0 0 0 0 0 0 0 0 0 3
12 24 38 30 22 24 19 20 14 8 13 0 0 0 0 0 0 0 0 0 0 0 0 0 0 0 0 0 0 0 0 0 0 0 1 0 0 0 0 0 0 0 0 0 0 0 0
16 19 32 21 20 12 7 1 18 3 3 0 0 0 0 0 0 0 0 0 0 0 0 0 0 0 0 0 0 0 0 0 0 0 0 0 0 0 0 0 0 0 0 0 0 0 0
8 17 28 32 21 4 8 0 8 10 0 0 0 0 0 0 0 0 0 0 0 0 0 0 0 0 0 0 0 0 0 0 0 0 0 0 0 0 0 0 0 0 0 0 0 0 0

GFSGBSN_con_sbcape_108.txt.gz
CAPE
40 27 31 28 27 20 24 20 17 14 13 24 22 35 39 1 6 2 9 6 14 6 3 0 13 8 0 0 0 0 0 0 0 1 23 70 77 47 71 126 168 142 59 25 16 2 0
44 44 52 44 34 27 22 18 18 17 15 15 17 7 24 0 0 1 6 12 12 9 1 0 13 3 0 0 0 0 0 0 0 0 1 28 42 117 50 43 135 36 1 15 0 0 0
43 44 49 59 42 28 16 21 15 13 14 14 6 3 30 4 0 5 6 2 5 11 6 0 8 4 0 0 0 0 0 0 0 0 0 12 20 23 16 0 8 4 7 7 0 0 0
44 55 59 54 57 47 41 22 25 20 14 12 11 6 10 10 0 1 1 1 1 2 1 0 5 0 0 0 0 0 0 0 3 16 2 9 19 18 40 10 9 4 0 10 1 0 0
51 60 53 52 51 59 60 54 18 10 14 16 12 14 26 23 7 3 0 0 0 0 0 0 0 0 0 0 0 0 0 0 0 0 0 0 0 29 13 22 11 2 0 0 0 0 1
59 71 82 68 50 43 47 42 45 3 6 13 13 7 3 6 9 0 0 0 0 0 0 0 0 0 0 0 0 0 0 0 0 0 0 0 0 27 0 44 7 0 0 0 0 0 0
50 47 46 48 60 74 65 65 47 10 0 6 11 3 0 5 7 0 0 0 0 0 0 0 0 0 0 0 0 0 0 0 0 0 0 0 56 7 4 5 0 2 0 0 0 0 1
59 48 53 46 53 61 77 75 72 22 12 3 3 0 20 14 1 2 0 0 0 0 0 0 0 0 0 0 0 0 0 0 0 0 0 5 28 6 0 0 0 4 0 1 0 0 11
51 44 46 65 57 49 59 69 76 78 34 17 5 0 27 11 6 1 0 0 0 0 0 0 0 0 0 0 0 0 0 0 0 0 0 10 1 0 0 0 2 1 3 0 0 1 1
51 35 23 27 28 51 60 60 85 102 75 74 11 0 1 19 0 0 0 0 0 0 0 0 0 0 0 0 0 0 0 0 0 0 0 0 0 0 0 0 0 1 0 0 0 10 13
41 36 45 54 53 45 50 63 81 92 125 134 28 0 0 26 4 0 0 0 0 0 0 0 0 0 0 0 0 0 0 0 0 0 0 0 0 0 0 0 0 9 0 0 12 1 4
30 32 35 40 54 68 69 85 103 117 109 124 39 1 23 46 9 0 0 0 0 3 0 0 0 0 0 0 0 0 0 0 0 0 0 0 0 0 0 0 0 0 32 45 45 29 9
34 37 41 56 58 96 91 116 124 117 159 104 24 11 42 33 0 0 0 0 8 0 0 0 0 0 0 0 0 0 0 0 0 0 0 0 0 0 0 15 27 43 62 62 27 41 2
30 43 57 55 122 135 104 146 162 150 106 90 26 22 66 13 0 0 0 1 0 1 0 0 0 0 0 0 0 0 0 0 0 0 0 0 0 0 1 40 41 50 45 73 16 17 5
35 56 57 73 103 44 4 60 185 155 56 24 41 10 23 7 0 0 4 4 0 0 0 0 0 0 0 0 0 0 0 0 0 0 0 0 0 0 0 17 41 57 71 18 20 0 16
36 57 74 90 65 23 29 46 78 67 23 24 61 27 11 3 0 0 5 0 0 0 0 0 0 0 0 0 0 0 0 0 0 0 0 0 3 0 19 27 36 59 19 134 172 64 25
35 56 45 97 58 29 31 65 47 14 17 36 65 12 29 21 1 9 20 4 0 0 0 0 0 0 0 0 0 0 0 0 0 0 0 6 11 0 0 35 16 42 40 54 11 34 56
36 53 52 80 66 35 37 23 45 13 4 50 54 25 39 14 7 13 18 0 0 0 0 0 0 0 0 0 0 0 0 0 0 0 7 3 24 4 0 0 23 31 27 39 79 35 0
37 52 62 72 57 21 11 31 44 26 16 42 13 18 29 30 22 20 7 1 0 0 0 0 0 0 0 0 0 0 0 0 0 0 0 0 6 5 0 9 2 6 8 7 9 18 16
25 48 53 54 90 43 30 2 11 31 24 22 20 12 19 24 14 11 4 0 0 0 0 0 0 0 0 0 0 0 0 0 0 0 0 0 0 2 4 7 5 1 0 5 3 3 9
22 48 50 54 72 81 48 45 13 0 1 18 7 12 9 18 10 7 0 0 0 0 0 0 0 0 0 0 0 0 0 0 0 0 0 0 0 0 0 0 0 0 0 0 1 0 4
11 38 31 55 62 58 54 67 29 1 3 20 9 9 10 6 5 4 0 0 0 0 0 0 0 0 0 0 0 0 0 0 0 0 0 0 0 0 0 0 4 0 0 0 0 0 1
5 38 27 43 36 45 48 46 10 50 47 25 8 1 5 10 12 3 0 0 0 0 0 0 0 0 0 0 0 0 0 0 0 0 0 0 0 0 0 0 0 1 1 1 2 4 5
1 27 26 39 22 8 55 37 26 23 31 34 38 6 8 4 4 3 0 0 0 0 0 0 0 0 0 0 0 0 0 0 0 0 0 0 0 0 0 0 1 2 0 2 1 1 2
0 15 23 31 34 11 31 36 36 15 22 39 0 1 1 0 0 0 0 0 0 0 0 0 0 0 0 0 0 0 0 0 0 0 0 0 0 0 0 0 0 0 0 0 0 2 5
0 8 23 23 30 27 26 34 13 14 12 34 11 0 0 0 0 0 0 0 0 0 0 0 0 0 0 0 0 0 0 0 0 0 0 1 0 0 0 0 0 0 0 0 0 6 2
0 5 17 22 26 8 1 34 26 14 4 4 0 0 0 0 0 0 0 0 0 0 0 0 0 0 0 0 0 0 0 0 0 0 0 1 0 0 0 0 0 0 0 0 8 0 0
0 3 20 24 21 5 0 16 18 6 3 0 0 0 0 0 0 0 0 0 0 0 0 0 0 0 0 0 0 0 0 0 0 0 0 0 0 0 0 0 0 0 0 0 0 0 0
4 5 19 23 28 4 0 0 15 1 1 0 0 0 0 0 0 0 0 0 0 0 0 0 0 0 0 0 0 0 0 0 0 0 0 0 0 0 0 0 0 0 0 0 0 0 0

GFSGBSN_con_sbcape_111.txt.gz
CAPE
31 34 29 36 39 24 16 17 23 12 22 24 17 16 15 12 16 0 0 2 3 5 5 8 6 1 0 0 0 0 0 0 0 1 33 31 42 43 65 52 68 65 70 105 94 31 7
33 30 36 31 37 43 26 6 22 29 23 22 21 18 18 9 16 0 0 4 3 6 4 7 1 3 11 0 0 0 0 0 0 0 12 32 75 70 116 47 54 52 65 87 43 0 24
37 43 44 45 39 43 37 19 0 1 8 23 23 16 16 41 42 2 10 4 4 4 3 6 4 4 5 0 0 0 0 0 0 0 0 6 42 45 61 4 5 37 55 82 33 19 18
38 50 50 60 59 49 40 42 12 8 1 12 23 17 7 8 12 10 11 0 1 2 1 5 3 7 1 0 0 0 0 0 2 4 12 13 50 55 83 30 21 34 58 85 33 11 5
29 34 35 31 41 55 70 62 53 27 37 6 15 17 6 2 4 16 8 3 1 4 4 2 6 0 0 0 0 0 0 0 0 1 4 0 0 66 37 10 33 19 5 10 3 0 0
32 36 34 35 53 55 57 71 81 85 63 61 20 14 3 19 12 5 9 1 0 0 0 0 1 0 0 0 0 0 0 0 0 1 0 0 0 33 6 27 33 20 2 0 0 0 0
27 35 41 46 39 49 57 64 74 92 118 95 67 14 1 15 66 21 4 0 0 0 0 0 0 0 0 0 0 0 0 0 0 0 18 3 29 46 22 23 26 11 7 0 0 0 0
41 42 52 49 56 58 58 53 70 90 106 110 101 23 0 9 38 7 1 0 0 0 0 0 0 0 0 0 0 0 0 0 0 9 18 10 18 24 8 17 23 21 9 3 1 0 0
42 37 47 56 72 65 71 66 82 99 117 113 114 53 0 9 11 7 0 0 0 0 0 0 0 0 0 0 0 0 0 0 0 3 16 23 6 0 6 11 3 20 23 15 7 4 1
39 51 39 51 60 61 68 73 81 101 100 129 122 81 8 0 20 4 0 0 0 0 8 0 0 0 0 0 0 0 0 0 0 0 0 1 4 0 5 21 30 13 0 10 14 12 25
48 36 42 49 51 49 74 82 95 118 211 238 123 110 22 0 10 9 0 0 0 0 1 0 0 0 0 0 0 0 0 0 0 5 0 3 0 3 2 13 5 19 7 22 18 19 10
34 32 44 46 66 109 93 69 85 145 186 196 132 91 18 11 45 2 0 0 0 13 0 0 1 0 0 0 0 0 0 0 0 0 0 0 0 0 8 0 0 18 42 33 36 11 8
29 36 38 62 73 114 102 15 53 70 168 124 61 45 2 5 19 2 1 0 18 20 0 0 2 0 0 0 0 0 0 0 1 4 0 0 0 0 0 37 29 41 50 54 39 47 5
22 24 36 48 72 66 12 85 75 70 100 34 33 19 0 17 49 0 1 18 13 0 0 0 1 0 0 0 0 0 0 0 0 0 3 0 2 0 0 31 44 45 58 77 39 29 16
17 16 39 61 70 71 34 73 45 58 41 14 47 19 68 59 19 5 8 41 16 0 0 0 0 0 0 0 0 0 0 0 0 0 0 0 1 0 0 13 37 48 99 58 47 10 15
23 8 31 56 70 69 40 47 48 20 35 36 48 13 42 23 7 11 19 5 0 0 0 0 0 0 0 0 0 0 0 0 0 0 0 5 5 0 0 5 37 34 30 72 82 53 27
24 16 18 56 61 57 26 37 49 17 0 3 79 11 18 5 6 9 41 10 0 0 0 0 0 0 0 0 0 0 0 0 0 2 0 6 11 7 5 13 14 26 23 21 3 17 73
31 12 9 44 57 46 27 34 17 27 0 47 83 23 45 24 7 15 21 5 0 0 0 0 0 0 0 0 0 0 0 0 0 0 8 10 7 9 0 0 14 28 7 0 34 20 7
26 9 3 30 66 61 36 30 8 29 11 26 26 11 35 25 33 18 3 2 0 1 0 0 0 0 0 0 0 0 0 0 0 0 2 0 5 3 0 9 2 6 9 7 2 11 44
18 7 0 17 56 71 33 25 37 5 3 28 13 18 12 21 3 16 5 0 0 0 0 0 0 0 0 0 0 0 0 0 0 0 0 0 3 0 0 4 3 0 0 0 2 5 0
13 4 0 8 32 59 31 0 11 0 0 17 6 16 11 18 15 16 11 3 0 0 0 0 0 0 0 0 0 0 0 0 0 0 0 0 0 0 0 0 0 0 0 0 0 0 1
9 3 0 2 28 48 31 8 16 1 0 0 12 13 0 17 11 10 2 0 0 0 0 0 0 0 0 0 0 0 0 0 0 0 0 0 1 0 0 0 0 0 0 0 0 0 0
3 2 0 0 16 21 35 22 9 8 15 1 12 5 3 9 12 4 3 0 0 0 0 0 0 0 0 0 0 0 0 0 0 0 0 0 0 0 0 0 0 1 2 3 6 4 3
0 1 0 0 7 20 25 45 35 19 14 3 11 2 7 18 2 4 2 0 0 0 0 0 0 0 0 0 0 0 0 0 0 0 0 0 0 0 0 0 1 1 0 5 1 1 0
0 0 0 0 6 11 12 10 32 30 23 24 14 1 1 0 0 0 0 0 0 0 0 0 0 0 0 0 0 0 0 0 0 0 0 0 0 0 0 0 0 0 0 1 2 0 3
0 0 0 0 13 17 18 7 22 29 38 41 23 5 4 9 0 0 0 0 0 0 0 0 0 0 0 0 0 0 0 0 0 0 0 0 0 0 0 0 0 0 0 0 0 1 1
0 0 0 0 3 18 10 23 12 36 42 30 34 17 6 0 0 0 0 0 0 0 0 0 0 0 0 0 0 0 0 0 0 0 0 0 0 0 0 0 0 0 0 0 1 0 2
1 0 0 0 2 6 12 24 0 7 10 7 2 5 9 0 0 0 0 0 0 0 0 0 0 0 0 0 0 0 0 0 0 0 0 0 0 0 0 0 0 0 0 0 0 0 0
3 0 0 5 10 7 7 6 0 9 7 0 0 0 2 0 0 0 0 0 0 0 0 0 0 0 0 0 0 0 0 0 0 0 0 0 0 0 0 0 0 0 0 0 0 0 0

GFSGBSN_con_sbcape_114.txt.gz
CAPE
41 42 39 51 53 39 28 12 6 11 19 24 28 17 22 16 36 40 12 3 5 4 9 12 6 2 0 0 0 0 0 0 0 0 0 34 38 23 20 28 59 28 1 15 21 20 48
45 44 57 56 65 61 52 38 24 26 10 22 24 24 19 8 8 10 4 10 8 11 9 13 12 2 10 0 0 0 0 0 0 0 1 15 21 24 11 46 55 49 43 26 32 12 5
48 37 43 43 34 38 44 50 54 40 59 40 34 19 15 10 2 3 51 45 12 10 11 18 12 4 4 0 0 0 0 0 0 0 0 23 23 7 13 21 19 32 41 42 34 27 0
32 41 38 37 43 39 51 63 60 72 87 87 64 23 9 8 3 5 4 75 4 10 7 17 11 11 1 0 0 0 0 0 0 1 6 14 16 0 3 33 14 5 20 29 8 10 5
40 32 32 50 45 35 30 35 41 60 77 100 102 64 16 2 4 34 29 37 3 10 11 21 5 14 0 0 0 0 0 0 0 0 9 2 0 10 27 19 26 9 6 2 5 0 4
49 45 39 40 35 45 52 58 58 62 78 77 109 105 58 0 8 75 45 41 12 10 0 3 1 1 0 0 0 0 0 0 0 1 10 0 2 18 3 2 50 46 24 1 4 0 0
62 37 43 43 47 55 62 58 65 80 79 91 117 120 92 1 12 67 24 0 0 0 3 0 0 0 0 0 0 0 0 0 0 0 0 18 25 22 9 14 5 6 0 0 0 0 0
34 39 53 46 59 62 69 70 85 94 99 117 138 139 95 13 7 33 1 0 0 0 0 0 0 0 0 0 0 0 0 0 10 14 25 24 5 24 8 13 3 2 4 10 4 0 0
31 36 40 46 61 61 68 92 92 109 118 125 138 143 127 40 0 27 6 0 0 1 0 0 0 0 0 0 0 0 0 0 0 0 6 4 4 22 15 11 4 0 4 6 0 5 0
29 36 37 37 47 60 81 72 46 42 95 153 206 210 107 28 0 4 1 3 1 3 15 0 0 0 0 0 0 0 0 0 0 0 0 0 1 0 0 5 19 1 3 0 7 5 1
33 30 22 34 45 58 73 46 85 122 156 149 168 95 62 27 0 9 3 21 1 2 5 0 0 0 0 0 0 0 0 0 0 0 0 0 1 0 0 21 4 0 0 0 0 12 0
35 20 18 18 45 64 77 88 125 123 133 102 56 42 42 15 18 10 20 36 4 11 1 0 0 0 0 0 0 0 0 0 0 0 0 0 0 0 1 0 0 0 1 0 7 17 1
35 25 10 18 41 76 85 84 125 115 83 46 36 27 23 15 28 22 9 9 18 9 0 0 0 0 0 0 0 0 0 0 0 0 0 0 0 0 0 0 1 18 16 5 10 30 3
33 33 10 23 56 78 60 67 115 88 52 68 45 28 15 2 15 17 1 4 6 0 0 0 0 0 0 0 0 0 0 0 0 0 0 0 0 0 0 3 12 0 19 23 4 35 4
19 26 21 18 59 82 54 28 69 109 121 116 102 23 57 45 26 5 0 4 6 0 0 0 0 0 0 0 0 0 0 0 0 0 0 0 0 0 0 0 10 6 23 0 29 2 0
8 23 17 20 58 84 46 33 35 26 75 75 29 17 25 23 5 9 7 16 2 0 0 0 0 0 0 0 0 0 0 0 0 0 0 1 1 0 0 0 25 21 7 4 8 0 2
5 11 5 16 41 61 41 29 18 15 4 36 67 10 29 23 0 1 3 0 1 0 0 0 0 0 0 0 0 0 0 0 0 0 0 1 3 0 1 0 0 3 0 0 0 0 11
2 2 0 9 26 39 28 14 13 9 0 0 41 10 8 3 3 2 15 2 0 0 0 0 0 0 0 0 0 0 0 0 0 0 0 0 0 0 0 0 2 0 2 0 0 0 5
0 1 0 4 17 18 3 14 6 0 0 3 10 7 4 12 16 20 2 0 0 0 0 0 0 0 0 0 0 0 0 0 0 0 0 0 0 0 0 0 0 1 0 0 0 0 0
0 0 0 1 14 24 0 16 0 0 0 0 9 9 3 0 1 13 4 0 0 0 0 0 0 0 0 0 0 0 0 0 0 0 0 0 0 0 0 0 0 0 0 0 0 0 0
0 0 0 0 6 7 3 10 0 0 0 0 0 5 2 8 4 11 0 0 0 0 0 0 0 0 0 0 0 0 0 0 0 0 0 0 0 0 0 0 0 0 0 0 0 0 0
0 0 0 0 1 4 2 7 0 0 4 0 0 0 0 0 0 3 0 0 0 0 0 0 0 0 0 0 0 0 0 0 0 0 0 0 0 0 0 0 0 0 0 0 0 0 0
0 1 0 0 0 0 2 15 0 1 22 6 1 1 0 0 1 0 0 0 0 0 0 0 0 0 0 0 0 0 0 0 0 0 0 0 0 0 0 0 0 0 0 0 0 0 0
0 0 0 0 0 0 0 4 0 0 20 30 6 0 0 0 0 0 0 0 0 0 0 0 0 0 0 0 0 0 0 0 0 0 0 0 0 0 0 0 0 0 0 0 0 0 0
0 0 0 0 0 0 0 0 0 0 8 36 20 3 0 0 0 0 0 0 0 0 0 0 0 0 0 0 0 0 0 0 0 0 0 0 0 0 0 0 0 0 0 0 0 0 0
1 0 0 0 0 0 0 0 0 0 2 23 25 6 0 0 0 0 0 0 0 0 0 0 0 0 0 0 0 0 0 0 0 0 0 0 0 0 0 0 0 0 0 0 0 0 0
11 0 0 0 0 0 0 5 1 0 17 14 13 28 7 1 0 0 0 0 0 0 0 0 0 0 0 0 0 0 0 0 0 0 0 0 0 0 0 0 0 0 0 0 0 0 0
16 0 2 0 0 0 0 11 16 1 27 3 0 4 18 0 0 0 0 0 0 0 0 0 0 0 0 0 0 0 0 0 0 0 0 0 0 0 0 0 0 0 0 0 0 0 0
11 1 0 0 0 0 0 5 9 10 22 0 0 0 0 6 0 0 0 0 0 0 0 0 0 0 0 0 0 0 0 0 0 0 0 0 0 0 0 0 0 0 0 0 0 0 0

GFSGBSN_con_sbcape_117.txt.gz
CAPE
47 49 37 55 57 43 35 43 49 68 66 61 50 33 22 11 6 2 7 21 4 9 9 8 7 1 0 1 0 0 0 0 0 0 0 9 32 32 12 0 7 1 0 0 0 1 0
44 45 60 53 56 46 44 57 66 58 67 75 75 54 31 12 6 0 1 6 38 18 12 5 12 4 5 0 0 0 0 0 0 0 0 20 29 28 28 0 6 0 4 0 0 0 15
46 61 53 49 57 46 46 46 36 40 44 63 63 82 46 25 9 1 6 4 60 6 3 8 5 8 15 0 0 0 0 0 0 0 0 17 10 7 12 0 0 0 0 1 4 5 28
39 83 68 56 41 49 58 58 64 65 64 59 68 77 103 49 18 0 24 41 26 8 13 9 1 11 1 0 0 0 0 0 0 0 4 2 5 6 5 0 0 0 0 0 0 16 13
50 62 46 65 49 52 50 43 68 68 73 88 93 92 101 87 23 7 77 74 29 27 23 6 0 4 0 0 0 0 0 0 0 1 0 0 0 0 18 26 4 0 0 0 0 0 8
42 47 56 48 34 47 48 65 78 89 104 115 107 105 98 85 14 9 70 56 51 18 3 15 1 0 0 0 0 0 0 0 0 1 0 0 0 0 8 0 0 38 16 9 2 0 0
32 46 42 55 39 40 59 83 105 100 80 110 138 164 137 93 36 30 22 0 3 0 8 0 0 0 0 0 0 0 0 0 0 0 0 0 3 0 0 0 0 3 0 0 0 0 0
43 55 63 44 31 58 83 114 82 85 147 167 155 221 201 72 95 0 25 0 0 0 0 0 0 0 0 0 0 0 0 0 1 0 0 17 0 0 2 27 18 6 1 4 12 0 0
56 57 60 39 28 94 114 123 130 208 243 231 221 269 152 39 74 5 46 30 6 0 0 0 0 0 0 0 0 0 0 0 0 0 0 2 0 14 4 0 0 0 8 3 1 0 0
62 52 63 29 54 96 130 126 179 243 256 161 125 150 76 62 7 12 18 18 5 0 0 0 0 0 0 0 0 0 0 0 0 0 0 0 1 3 0 1 13 0 4 0 0 0 0
62 53 60 33 56 104 110 145 176 165 81 68 68 63 39 36 0 7 54 22 0 0 0 0 0 0 0 0 0 0 0 0 0 0 0 0 0 0 0 0 0 0 0 0 0 0 0
74 29 48 34 61 85 125 53 139 157 123 148 57 45 41 42 20 24 23 9 0 0 0 0 0 0 0 0 0 0 0 0 0 0 0 0 0 0 0 0 1 0 0 0 0 0 0
92 11 37 28 52 55 112 27 90 87 77 141 74 50 4 4 33 0 1 0 3 0 0 0 0 0 0 0 0 0 0 0 0 0 0 0 0 0 0 0 2 0 0 0 2 0 0
45 18 31 8 32 38 17 13 16 23 15 97 99 15 38 8 1 0 0 3 1 2 0 0 0 0 0 0 0 0 0 0 0 0 0 0 0 0 1 0 0 0 7 9 2 2 1
3 17 12 1 15 16 7 16 18 17 0 49 46 0 8 23 0 0 0 0 8 0 0 0 0 0 0 0 0 0 0 0 0 0 0 0 0 0 1 6 8 0 0 0 6 2 0
2 14 2 1 11 5 11 15 14 8 0 1 0 0 2 1 0 0 0 11 0 0 0 0 0 0 0 0 0 0 0 0 0 0 0 0 0 0 0 0 0 0 0 0 0 0 3
8 6 3 0 5 6 5 11 8 0 0 2 1 1 0 0 0 0 1 1 1 0 0 0 0 0 0 0 0 0 0 0 0 0 0 0 0 0 0 1 0 0 0 0 0 0 1
10 0 2 0 2 5 3 2 0 0 0 0 0 1 0 0 0 0 0 0 0 0 0 0 0 0 0 0 0 0 0 0 0 0 0 0 0 0 1 0 0 0 0 0 0 0 0
8 0 0 0 0 1 1 0 0 0 0 0 2 0 0 0 0 0 0 0 0 0 0 0 0 0 0 0 0 0 0 0 0 0 0 0 0 0 0 0 0 0 0 0 0 0 0
8 0 0 0 0 5 0 0 0 0 0 0 0 0 0 0 0 0 0 0 0 0 0 0 0 0 0 0 0 0 0 0 0 0 0 0 0 0 0 0 0 0 0 0 0 0 0
8 0 0 0 0 0 0 0 0 0 0 0 0 1 0 0 0 0 0 0 0 0 0 0 0 0 0 0 0 0 0 0 0 0 0 0 0 0 0 0 0 0 0 0 0 0 0
21 0 0 0 0 0 0 0 0 0 0 0 0 0 0 0 0 0 0 0 0 0 0 0 0 0 0 0 0 0 0 0 0 0 0 0 0 0 0 0 0 0 0 0 0 0 0
25 0 0 0 0 0 0 0 0 0 0 0 0 0 0 0 0 0 0 0 0 0 0 0 0 0 0 0 0 0 0 0 0 0 0 0 0 0 0 0 0 0 0 0 0 0 0
15 3 0 0 0 0 0 0 0 2 0 0 0 0 0 0 0 0 0 0 0 0 0 0 0 0 0 0 0 0 0 0 0 0 0 0 0 0 0 0 0 0 0 0 0 0 0
3 15 0 0 0 0 0 0 0 0 0 0 0 0 0 0 0 0 0 0 0 0 0 0 0 0 0 0 0 0 0 0 0 0 0 0 0 0 0 0 0 0 0 0 0 0 0
0 19 2 0 0 0 0 0 0 0 0 0 0 0 0 0 0 0 0 0 0 0 0 0 0 0 0 0 0 0 0 0 0 0 0 0 0 0 0 0 0 0 0 0 0 0 0
11 12 8 0 0 0 0 0 0 0 0 0 0 0 0 0 0 0 0 0 0 0 0 0 0 0 0 0 0 0 0 0 0 0 0 0 0 0 0 0 0 0 0 0 0 0 0
20 4 6 0 0 0 0 1 0 0 1 0 0 0 0 0 0 0 0 0 0 0 0 0 0 0 0 0 0 0 0 0 0 0 0 0 0 0 0 0 0 0 0 0 0 0 0
17 11 3 0 0 0 0 0 4 0 14 0 0 0 0 0 0 0 0 0 0 0 0 0 0 0 0 0 0 0 0 0 0 0 0 0 0 0 0 0 0 0 0 0 0 0 0